GFSWCAN_850_rhum_000.txt.gz
RH
75 88 92 97 91 92 85 84 95 91 84 86 71 79 92 93 90 98 100 99 100 93 88 80 79 83 85 80 88 94 93 98 99 99 99 98 99 90 86 72 85 89 88 86 91 91 72 56 62 71 58 53 57 66
77 88 96 98 97 90 90 79 86 90 82 80 74 82 84 97 88 95 98 100 100 97 89 82 79 78 78 80 77 89 90 93 92 97 94 90 94 93 87 88 78 90 75 77 78 72 57 55 56 53 53 57 57 56
84 98 98 97 96 87 69 80 78 92 83 80 80 87 42 78 87 98 98 100 97 89 85 86 81 77 80 80 82 89 96 88 93 100 96 92 89 90 92 88 81 73 74 79 71 58 63 55 58 54 54 59 59 54
86 94 94 95 95 88 58 82 80 91 91 81 87 46 31 61 79 87 87 97 99 100 98 86 85 83 77 82 88 92 87 97 98 99 98 94 88 79 86 80 84 79 70 73 74 66 57 54 56 54 56 60 60 60
88 98 86 68 58 63 64 83 86 79 78 47 44 65 58 70 80 75 63 91 98 100 99 96 94 90 91 89 92 96 96 100 99 99 98 97 89 88 93 88 89 77 76 74 80 62 57 56 55 54 54 58 57 55
92 89 91 44 37 34 28 54 92 88 92 89 91 92 80 56 74 78 95 86 99 100 100 93 95 96 88 91 98 100 100 99 100 98 98 95 84 82 95 95 72 60 58 59 64 54 53 57 56 56 52 56 58 56
95 73 100 88 55 33 32 42 73 92 90 93 95 94 86 46 59 87 97 100 100 100 99 100 96 99 100 100 99 99 100 99 98 90 99 98 94 86 94 95 68 60 59 54 56 52 62 62 58 56 51 55 57 56
96 97 100 98 98 58 44 51 74 85 88 90 90 71 59 53 55 54 60 84 99 100 100 100 100 98 99 99 99 99 99 99 100 98 98 98 91 90 98 83 68 66 64 58 57 54 53 53 58 58 56 55 53 48
98 98 98 98 89 96 68 74 85 58 82 73 72 90 99 100 98 92 91 98 100 99 98 99 99 99 99 99 96 100 100 99 99 98 98 98 95 98 82 76 70 66 61 63 61 57 59 58 62 62 57 52 41 37
98 87 99 65 70 92 95 95 55 81 76 71 87 84 100 100 99 97 100 100 100 100 100 99 91 96 94 99 100 97 97 99 100 96 94 99 97 72 60 56 54 58 59 60 63 78 72 73 64 62 54 44 35 35
98 58 61 56 57 76 86 70 58 83 77 86 86 98 82 94 98 100 100 100 98 100 99 97 90 92 96 97 96 95 99 100 99 92 98 98 94 86 67 58 57 57 56 55 51 48 52 53 58 58 52 42 38 40
90 42 41 39 40 56 47 37 38 70 97 100 99 96 98 98 100 100 100 100 97 96 98 98 97 83 94 87 92 95 97 98 91 92 99 97 88 71 70 72 67 59 55 55 52 49 52 55 56 53 46 42 40 36
74 41 38 35 37 39 44 32 27 42 91 90 96 99 98 98 98 99 98 99 100 100 99 98 98 83 87 84 95 92 95 91 87 98 96 93 80 65 68 69 72 63 57 56 54 56 56 58 58 51 45 42 35 32
56 39 36 34 34 38 37 25 23 81 99 96 100 93 98 97 99 99 99 100 96 99 100 85 92 94 83 93 92 96 93 90 99 100 90 90 61 58 67 70 76 68 62 58 56 58 59 59 57 50 41 34 32 28
51 38 31 32 36 33 26 23 42 98 100 96 99 96 98 100 99 99 100 100 98 100 96 82 84 75 95 95 90 95 97 98 97 90 89 61 60 68 74 77 78 73 67 62 59 60 61 58 52 42 36 34 29 24
55 39 34 36 30 30 27 35 98 96 98 97 98 98 96 98 97 97 99 99 91 100 91 77 91 90 88 93 96 98 98 97 83 92 60 56 59 71 76 79 78 73 66 62 62 62 61 54 43 38 38 32 28 28
72 53 49 34 25 28 31 89 98 97 100 96 98 99 100 99 99 98 99 98 99 100 100 96 89 81 91 99 96 91 88 84 73 57 53 53 64 73 76 78 77 71 67 64 63 63 56 46 41 36 32 39 38 42
77 52 50 37 30 27 39 99 98 98 92 91 99 95 97 98 98 98 97 100 99 100 97 94 82 100 91 91 91 87 74 68 58 60 61 59 69 74 77 76 74 70 67 65 63 58 48 42 36 33 32 42 46 50
80 71 48 41 38 34 39 79 98 95 95 98 98 98 100 96 79 81 98 100 100 99 100 100 93 94 91 92 89 63 62 63 64 65 66 67 74 76 78 78 74 71 68 66 61 50 44 38 32 30 35 44 42 49
78 59 43 40 37 31 46 81 92 98 96 97 100 98 100 98 77 80 98 100 100 100 100 99 93 78 79 76 78 71 74 69 69 70 71 75 75 77 78 76 74 73 72 67 57 47 41 38 37 36 35 42 40 45
66 43 42 39 40 39 65 85 92 91 100 98 98 100 96 93 100 96 99 100 100 100 100 100 99 96 84 75 70 68 64 71 62 59 57 70 74 77 77 77 75 74 69 63 52 48 39 35 40 44 44 45 46 47
63 53 54 44 42 66 75 91 94 79 79 99 100 100 100 98 100 96 95 100 99 97 97 97 97 97 98 91 78 63 62 75 76 67 60 63 66 76 80 76 77 74 69 57 47 40 39 37 39 45 48 50 51 54
65 54 50 48 57 59 62 72 82 96 98 98 98 98 98 100 90 88 99 97 98 98 96 96 96 97 97 98 98 82 77 79 76 76 72 69 69 71 78 78 75 70 63 54 45 41 40 44 50 50 51 54 59 66
64 58 58 52 59 57 58 69 77 92 95 99 100 98 90 96 94 99 99 98 93 85 88 94 95 95 96 97 98 98 95 88 86 81 78 75 78 84 81 79 77 68 56 48 47 45 48 53 54 54 56 58 66 66
68 62 60 62 74 77 79 97 100 95 99 100 99 100 95 100 100 100 100 92 73 85 88 93 95 95 95 96 96 97 98 98 94 86 86 85 84 87 89 84 79 68 56 47 52 54 57 56 57 57 62 66 66 57
80 61 72 72 76 74 83 75 98 94 99 100 100 93 92 98 99 98 95 83 88 82 88 94 96 93 92 96 96 96 97 97 100 99 96 93 92 85 83 83 84 76 62 52 43 51 56 60 62 66 71 67 56 51
86 78 62 65 72 78 86 90 86 96 100 100 100 99 100 100 100 91 90 84 78 78 83 90 97 96 94 94 95 96 96 97 97 99 98 100 98 97 93 89 89 74 69 58 53 53 51 64 68 71 63 54 50 41
81 75 90 93 97 92 86 97 100 100 96 90 97 99 100 94 89 80 77 78 80 82 84 87 97 95 94 95 96 96 96 96 97 98 99 99 98 97 97 97 96 84 87 92 76 65 64 66 69 78 57 49 39 29
96 94 77 100 100 100 99 84 86 69 78 82 93 95 91 81 74 76 77 81 86 89 88 88 91 94 95 95 96 96 97 96 96 100 95 95 98 98 97 98 98 98 97 86 79 92 97 95 75 53 46 36 30 30
96 94 94 100 96 90 69 76 83 93 89 85 83 85 80 73 71 75 82 87 92 93 96 96 96 95 95 95 95 96 96 96 96 94 90 95 96 96 97 97 97 95 94 96 95 94 89 57 51 41 33 31 33 36
97 96 96 96 96 90 87 89 94 100 99 95 93 96 89 82 81 82 87 92 95 96 98 97 96 95 95 95 96 96 95 96 96 97 97 96 96 96 97 97 97 96 96 96 95 76 54 47 38 33 34 38 39 32
97 97 99 100 100 100 100 100 98 98 99 100 96 99 95 95 92 88 90 95 95 97 96 96 96 96 95 96 96 96 96 96 96 96 96 96 96 96 96 96 97 97 88 63 54 48 42 36 35 40 42 37 28 21
97 97 100 97 100 100 100 98 100 99 100 100 98 100 98 97 94 89 92 95 96 96 96 95 96 96 96 96 96 96 97 97 97 96 97 97 97 96 95 94 93 86 62 46 42 38 38 43 46 41 31 24 18 17

GFSWCAN_850_rhum_006.txt.gz
RH
43 48 81 98 77 89 58 88 92 37 20 45 89 53 52 36 30 71 85 99 98 99 92 83 67 76 83 74 72 83 89 96 98 98 91 84 89 68 74 60 69 66 81 88 77 77 77 52 62 56 50 56 60 65
49 36 84 99 71 92 41 71 92 30 18 59 88 91 87 92 69 68 92 86 98 100 99 92 84 72 68 66 71 86 86 84 82 93 91 93 84 76 70 66 62 74 60 58 60 52 46 53 53 56 62 62 63 68
22 28 81 98 85 94 49 76 95 75 54 35 89 87 88 93 94 71 82 86 95 100 95 88 84 84 80 78 76 81 90 81 90 82 94 94 96 88 76 70 65 63 62 67 65 50 53 52 57 60 61 71 67 68
21 35 54 97 90 82 98 97 97 96 95 94 91 90 89 96 96 94 78 76 82 99 100 85 78 80 79 79 79 81 82 86 91 96 91 89 95 70 72 67 68 60 67 64 63 52 52 56 60 60 59 64 68 77
29 53 42 95 95 93 100 100 100 100 97 98 93 96 88 90 91 82 48 36 55 95 97 97 92 85 80 79 82 86 90 95 99 96 97 93 77 88 71 76 70 61 56 55 49 53 52 53 63 61 60 66 69 63
25 31 58 95 87 89 100 100 100 100 100 96 93 93 93 97 88 86 100 100 100 99 100 95 99 100 99 96 94 94 99 100 98 94 91 80 74 83 83 77 55 56 62 59 48 56 56 60 61 60 60 65 69 64
25 25 79 96 100 71 100 98 100 100 99 90 88 91 96 97 89 92 98 100 100 99 100 99 92 97 100 100 100 100 99 98 98 95 97 88 85 97 96 80 55 61 61 58 60 60 61 62 62 60 58 66 67 67
27 27 53 97 98 65 99 100 100 99 59 39 92 73 92 98 90 87 47 64 100 100 100 100 94 91 96 97 94 98 98 100 100 97 95 99 95 100 98 70 64 64 63 61 62 61 58 58 61 62 62 65 65 64
31 28 38 98 98 46 40 94 100 69 34 68 72 82 93 86 85 94 100 92 100 100 99 99 96 93 97 98 98 100 98 100 93 100 97 98 86 97 79 68 66 68 66 63 66 63 61 63 63 64 65 66 61 62
36 28 43 99 93 48 32 87 84 45 29 69 66 81 100 81 80 94 93 100 100 100 100 98 82 90 93 96 98 93 99 98 100 91 97 99 97 74 66 69 66 64 60 68 67 72 71 72 65 64 63 62 57 50
42 30 36 94 76 36 37 64 38 33 28 90 84 90 91 89 98 100 100 100 99 100 99 94 85 83 92 91 90 94 94 99 100 89 96 96 84 71 68 69 68 67 67 61 65 61 59 54 60 61 64 61 50 35
45 36 41 96 59 43 44 31 30 29 51 91 98 99 94 98 100 100 100 100 97 93 98 97 91 90 98 98 91 97 99 97 100 84 97 94 74 67 63 66 69 69 68 61 62 59 59 58 59 60 60 54 37 36
44 39 42 96 54 39 32 28 25 29 99 89 96 94 94 93 93 94 96 99 100 98 100 100 100 92 96 93 93 93 100 95 83 97 90 81 72 63 60 70 77 77 67 60 60 57 59 60 61 56 54 43 36 39
51 42 63 76 47 32 31 26 23 85 96 95 95 92 95 95 94 96 99 98 98 100 100 100 96 94 91 96 88 95 84 85 96 98 93 84 60 54 54 67 81 76 67 60 57 56 59 63 64 58 48 36 37 40
86 50 94 54 40 38 31 26 36 99 98 92 92 97 94 91 98 96 96 99 100 100 100 100 93 88 96 98 86 95 97 94 85 85 82 62 55 57 65 68 76 75 69 62 57 56 61 65 63 55 45 41 42 36
69 79 66 40 38 34 32 27 62 98 96 93 98 96 91 93 90 88 92 98 100 99 100 100 100 99 98 93 98 97 95 94 83 97 65 56 53 58 67 68 71 76 69 63 60 60 62 65 60 50 47 48 39 31
85 91 63 50 43 33 31 34 94 97 93 92 94 94 93 98 98 96 87 91 93 100 100 100 100 100 96 97 99 91 92 90 90 70 65 60 58 60 62 67 72 75 71 66 64 66 67 65 57 49 49 43 35 31
89 89 88 58 48 33 40 48 96 97 90 86 90 92 94 99 99 85 83 90 87 99 99 100 99 98 96 98 94 88 85 88 82 76 69 68 65 67 67 67 70 74 72 67 64 64 68 63 55 50 40 36 33 35
95 99 84 72 48 39 35 64 89 93 95 95 95 97 98 100 88 82 76 82 98 100 100 98 100 96 88 84 91 100 100 99 100 83 71 69 67 71 74 72 72 71 70 68 67 68 69 63 52 42 36 34 30 36
99 99 93 77 49 38 34 60 64 99 94 94 99 100 100 100 85 65 67 82 86 94 100 100 96 98 99 99 97 98 99 100 94 78 72 74 72 71 78 79 74 72 70 71 73 70 69 61 48 39 34 34 30 39
99 96 89 68 45 43 44 66 89 100 99 98 99 100 100 100 100 100 100 96 83 80 93 95 98 94 93 94 97 97 95 100 100 96 81 79 83 83 81 83 82 77 73 71 71 74 66 53 43 40 44 60 40 38
94 82 62 55 52 50 74 93 99 96 88 94 99 100 100 94 99 100 100 100 100 100 94 87 83 75 67 66 74 90 96 97 97 99 92 80 84 91 81 84 85 81 76 73 73 69 62 50 44 42 70 44 46 46
86 74 62 56 58 61 75 94 93 99 99 100 100 100 99 100 98 94 98 96 94 92 84 66 58 55 55 56 66 82 97 99 100 98 99 92 81 92 94 86 86 84 80 79 74 69 60 51 47 83 52 46 47 48
76 62 63 58 59 68 70 80 90 99 100 100 100 99 91 92 97 100 96 98 91 82 70 62 59 51 42 47 57 64 78 94 96 95 98 98 96 86 91 94 88 86 85 78 75 69 62 54 72 54 49 45 46 46
77 72 65 73 73 76 82 84 96 95 93 100 100 96 92 100 98 100 98 89 77 75 71 68 66 57 62 58 58 63 72 89 98 96 93 97 98 98 92 99 97 93 87 84 79 71 63 61 58 51 46 44 46 50
86 70 71 72 81 72 75 77 96 89 92 100 98 91 100 96 100 99 90 71 68 66 67 66 57 59 61 69 70 71 73 81 94 96 90 96 97 97 98 96 97 98 94 89 78 71 60 60 55 46 46 49 51 56
91 87 68 57 55 62 75 81 78 86 100 85 86 98 96 100 100 82 59 59 59 52 48 56 65 69 70 71 75 76 81 85 93 93 92 96 96 97 97 96 95 94 93 91 85 74 58 54 50 50 49 54 59 54
85 68 77 77 87 74 82 92 91 88 78 71 88 100 93 93 75 48 46 39 45 48 51 62 73 77 81 81 83 85 83 88 92 95 94 96 95 96 97 97 96 96 97 93 95 95 72 59 74 57 53 62 56 47
88 79 71 100 100 98 83 75 75 52 52 66 85 84 80 54 37 34 39 45 48 54 62 71 72 82 85 86 88 89 92 96 99 96 95 96 96 96 96 97 96 96 98 97 97 97 77 96 79 58 69 54 45 36
97 79 82 96 89 87 65 62 64 61 66 74 72 70 64 49 42 42 48 52 57 65 75 81 85 89 88 90 86 83 89 95 98 97 96 95 95 96 96 96 96 96 97 97 97 97 97 90 93 95 55 65 90 49
93 87 88 87 90 86 74 74 79 83 84 81 81 86 78 67 56 50 48 52 68 77 81 81 87 94 93 91 93 91 84 89 95 96 95 95 95 96 95 96 96 96 96 96 96 96 96 97 90 71 95 90 38 33
99 93 94 100 99 99 94 90 90 90 93 90 86 86 84 82 79 65 66 72 78 84 89 95 95 89 90 92 92 94 93 93 93 96 96 96 96 96 96 96 96 96 96 96 96 96 96 94 96 95 84 39 35 29
97 97 100 97 100 100 99 94 99 96 98 96 96 99 96 92 89 70 72 79 84 88 90 90 90 93 95 94 94 97 98 95 94 96 96 96 96 95 95 96 96 96 96 97 97 96 96 96 94 72 39 34 26 20

GFSWCAN_850_rhum_009.txt.gz
RH
50 66 77 97 98 98 98 90 92 80 24 20 40 77 91 81 61 40 100 91 95 99 90 91 72 64 75 65 73 80 86 88 87 92 99 98 98 62 62 48 63 68 80 82 82 92 78 42 47 59 52 50 52 61
73 58 72 90 96 96 88 98 90 95 69 48 59 89 90 92 89 83 99 98 95 96 96 97 92 81 78 70 65 81 79 72 76 90 93 93 97 66 57 61 48 63 47 52 52 50 38 44 47 49 55 56 55 61
30 46 65 95 95 92 96 100 99 98 97 90 89 89 92 91 92 97 100 100 98 100 98 98 88 86 77 71 68 71 88 77 81 87 94 94 97 86 89 60 55 50 45 57 58 41 42 43 46 55 63 63 65 70
36 41 54 96 96 98 99 100 100 99 98 92 96 98 99 92 88 94 100 99 98 96 99 92 86 86 80 80 78 76 82 78 84 90 96 94 93 70 68 63 63 55 58 55 53 45 42 49 55 61 65 68 76 73
34 39 40 83 96 99 100 100 99 98 93 88 98 99 92 94 91 91 97 89 75 99 98 97 95 86 80 81 82 82 90 93 98 98 97 92 83 77 60 67 65 49 51 58 47 45 47 49 61 64 64 68 72 70
46 34 31 65 92 100 99 100 100 89 94 88 94 94 89 92 94 98 100 90 90 92 100 98 98 98 98 89 88 94 100 100 96 95 93 84 75 82 89 72 43 40 42 43 41 53 56 61 64 66 65 67 69 66
45 36 30 48 92 98 99 96 97 97 81 81 85 96 99 100 99 98 89 100 100 100 100 99 93 97 100 100 99 99 99 100 98 97 97 90 83 97 88 75 45 47 52 52 58 59 59 64 60 65 64 67 68 70
80 79 38 40 87 99 98 95 96 90 38 33 81 82 90 97 99 100 90 99 99 100 100 100 90 91 92 99 91 97 98 98 99 97 95 94 94 92 93 64 59 57 54 62 62 62 60 61 63 66 67 67 68 70
84 83 62 42 52 99 82 97 86 63 20 31 73 91 97 90 95 99 89 67 99 100 99 98 98 91 92 95 96 98 97 94 90 98 95 98 92 95 70 65 62 59 66 63 66 68 64 63 67 65 67 69 66 69
80 92 87 44 45 97 75 87 44 27 16 53 72 88 98 96 79 87 91 99 100 99 100 95 80 88 93 87 85 85 95 93 100 79 92 100 95 68 61 60 62 69 67 65 71 76 72 72 68 69 67 67 63 62
89 98 94 46 47 98 72 85 30 20 17 86 93 98 91 91 96 99 100 100 99 100 99 93 70 71 89 82 78 89 90 98 100 84 85 86 77 59 69 61 64 72 74 70 66 66 61 58 62 65 70 68 62 55
99 99 80 45 76 96 88 52 30 24 36 92 98 97 91 100 100 100 100 100 98 100 95 84 81 77 96 95 86 90 98 96 99 76 92 93 70 64 64 56 61 68 76 72 65 63 59 63 62 63 66 64 59 43
98 93 90 52 96 85 52 39 29 32 94 91 98 96 99 98 95 92 92 97 100 97 100 99 99 93 95 93 91 89 100 96 77 95 88 76 66 64 56 54 63 79 80 74 66 61 59 64 66 61 60 60 48 33
98 98 93 60 96 88 46 44 28 62 98 100 97 90 96 94 87 94 97 98 98 100 99 100 99 95 91 97 84 99 85 80 94 94 90 88 72 60 58 64 74 81 76 72 66 60 59 62 67 66 61 53 33 35
98 99 98 72 92 64 49 46 34 92 96 94 97 91 88 89 99 97 97 99 100 100 100 100 97 87 98 100 81 94 96 94 82 82 85 83 73 69 70 74 77 78 75 68 64 61 63 65 67 65 60 44 37 36
99 98 84 72 60 54 49 44 57 96 97 94 96 96 90 93 92 94 96 98 99 97 100 100 100 100 100 98 97 91 90 92 88 99 90 85 73 70 76 77 79 81 74 67 64 64 66 70 68 63 56 42 42 41
100 98 93 72 62 61 52 45 78 97 94 93 88 97 90 95 93 86 77 76 88 97 100 100 100 89 100 99 98 88 94 94 94 96 89 76 75 71 67 72 78 81 79 71 65 65 68 71 68 60 50 48 48 44
99 98 94 89 77 64 48 52 86 97 91 90 90 88 93 94 93 83 86 92 92 99 99 100 98 99 96 96 94 89 93 100 99 93 92 80 73 70 73 73 73 80 81 76 71 67 67 71 67 58 50 49 48 42
99 98 98 90 82 63 43 63 77 92 91 95 94 95 92 94 93 96 97 95 98 97 98 99 100 94 88 93 93 97 99 100 100 100 91 84 74 70 70 76 78 78 81 79 75 71 73 74 66 56 52 49 40 37
98 98 99 93 84 48 43 63 60 99 89 94 97 99 96 92 93 84 72 83 99 89 97 91 90 96 95 96 96 97 98 100 100 100 97 89 92 80 73 71 82 82 80 81 81 78 75 74 69 59 52 42 34 33
98 99 99 94 81 52 47 62 89 100 98 92 97 100 97 100 100 100 99 98 98 81 80 74 94 100 85 69 62 61 61 89 100 100 100 100 95 99 86 79 73 85 85 83 82 82 80 73 66 59 47 39 32 50
98 99 98 92 54 48 64 80 99 97 96 98 98 100 96 90 92 100 97 100 98 92 92 90 82 72 50 38 35 42 50 57 73 89 88 98 100 99 98 91 80 78 88 87 85 82 79 74 64 54 44 40 42 81
98 98 95 68 62 66 78 82 98 100 92 90 100 94 90 95 100 96 98 90 91 90 80 80 67 50 44 36 28 30 41 51 59 79 90 93 96 98 98 96 93 80 76 90 88 85 81 75 64 52 48 46 87 51
97 95 80 66 66 73 73 90 92 97 98 89 86 76 85 91 96 98 91 83 89 73 78 72 58 55 50 37 38 42 49 54 57 61 77 97 93 94 100 97 99 90 79 79 92 87 85 76 64 54 50 78 69 46
94 93 88 81 75 75 79 85 87 86 86 90 88 82 87 100 90 92 91 79 68 63 63 68 66 64 49 35 38 49 58 63 65 67 66 76 85 90 92 95 97 97 92 81 90 91 88 80 66 57 62 92 51 47
95 91 81 74 78 74 68 79 87 85 80 92 88 87 97 89 94 86 74 69 53 56 51 51 59 51 44 48 53 60 67 71 75 75 64 75 87 100 100 98 96 95 97 93 90 92 89 82 71 66 85 90 51 46
95 96 73 61 58 58 62 68 66 72 87 81 77 92 91 95 88 72 48 45 48 52 52 43 42 46 48 52 63 68 72 78 79 78 77 79 82 88 95 98 97 96 98 97 98 94 90 84 74 75 97 64 51 47
85 70 78 68 73 63 77 75 80 81 71 63 76 92 89 80 68 37 39 39 38 36 38 42 47 52 59 66 73 78 78 80 81 81 81 82 82 85 91 96 96 96 96 96 97 97 96 88 80 89 96 78 52 55
87 75 64 91 90 80 76 70 69 47 46 58 80 75 75 48 33 30 30 34 39 42 44 49 54 65 73 76 78 80 84 86 89 89 92 93 90 92 94 96 96 96 95 96 97 97 96 96 96 96 96 74 64 56
98 73 78 87 85 82 69 57 60 51 55 60 60 59 54 41 33 34 36 38 43 49 52 56 71 80 81 83 83 81 82 87 90 94 98 95 96 95 95 96 96 96 96 96 96 97 97 97 97 97 95 91 58 43
92 85 87 80 83 81 68 66 70 73 73 69 68 72 70 58 45 39 39 40 48 54 62 73 78 85 91 91 93 94 86 84 91 97 100 100 98 94 95 95 96 96 96 96 96 97 94 96 97 96 96 79 42 44
99 95 89 92 92 90 87 82 82 82 85 80 78 75 74 75 70 52 51 53 55 66 75 82 84 82 89 93 96 99 100 95 91 91 90 95 94 94 95 95 96 96 96 95 95 96 95 95 96 96 94 65 87 95
98 95 94 92 96 98 96 89 94 91 93 93 91 92 90 84 83 58 56 55 65 74 78 79 82 86 92 97 98 98 99 98 94 94 97 96 96 95 96 96 96 96 95 96 96 96 96 96 96 96 96 95 92 51

GFSWCAN_850_rhum_012.txt.gz
RH
84 26 78 84 77 92 95 95 98 99 97 93 92 98 94 63 65 47 53 99 100 99 86 80 88 77 66 65 86 84 87 86 90 87 96 94 97 77 71 60 75 79 87 93 92 98 94 44 51 65 60 54 51 54
72 28 61 88 76 89 98 99 98 98 98 98 94 99 99 93 75 83 88 72 91 100 91 89 88 87 86 82 72 79 78 76 78 91 95 91 92 90 75 76 50 68 60 68 71 71 44 44 47 47 53 58 57 57
46 33 70 96 80 91 99 100 99 98 98 98 92 98 98 98 98 81 87 91 89 98 97 90 81 74 75 73 72 76 83 75 77 81 88 92 98 87 93 77 70 53 46 67 60 48 51 47 49 54 57 60 63 63
86 52 35 83 80 95 98 99 95 98 98 94 98 99 98 95 97 85 80 83 95 94 98 94 91 96 85 72 70 70 78 75 78 84 94 87 97 79 85 77 75 65 59 64 65 58 48 53 56 58 58 67 74 70
85 50 41 84 64 89 92 98 99 99 99 86 91 95 94 93 93 82 74 80 89 96 99 98 95 88 85 79 82 83 87 88 89 98 98 88 84 86 77 73 77 58 68 74 74 51 52 58 58 60 61 68 70 67
75 77 47 71 38 56 88 98 98 93 98 91 98 98 94 99 94 83 86 83 82 90 99 100 100 96 88 85 88 88 90 89 92 94 93 84 76 84 96 79 55 48 50 48 50 51 54 58 59 60 61 66 69 67
81 97 97 84 45 47 88 100 99 100 90 99 92 95 94 96 90 87 84 99 100 92 99 99 99 99 100 99 98 98 99 99 96 97 98 88 85 85 96 90 56 44 47 52 52 53 57 59 60 61 61 67 67 69
84 98 99 93 77 56 91 99 92 95 99 74 76 84 87 86 87 91 83 96 99 99 100 100 99 97 96 97 97 99 99 99 100 95 94 96 88 93 97 79 69 62 58 58 58 59 59 59 61 62 64 66 69 70
84 96 98 97 96 56 90 98 76 99 48 41 65 97 91 89 92 90 88 86 96 99 98 100 100 100 90 94 95 96 96 98 92 98 96 95 93 98 83 72 67 65 65 64 63 63 65 64 62 63 65 68 68 70
96 98 99 95 98 61 87 97 99 39 30 68 78 95 100 97 85 95 98 100 100 100 100 100 81 96 90 88 94 91 97 93 100 87 87 99 97 75 68 68 67 67 68 67 66 70 71 71 66 65 66 67 66 67
99 98 97 96 98 64 90 96 70 34 33 88 100 99 91 80 83 97 99 99 99 100 100 93 81 87 84 88 86 89 96 100 100 92 87 96 87 72 67 64 58 59 71 73 70 67 65 65 64 65 68 66 64 64
98 98 98 99 99 64 93 87 52 40 48 92 97 92 90 99 100 100 100 100 100 94 98 95 88 86 94 89 87 88 100 98 98 81 94 95 88 68 62 59 62 72 74 73 75 71 65 64 64 64 68 65 62 58
98 97 98 98 99 79 97 95 44 42 74 99 98 96 98 96 99 98 97 98 99 99 99 99 98 90 89 92 94 90 99 96 81 96 85 92 87 76 72 79 78 86 82 77 75 71 64 67 76 68 67 66 62 58
99 99 99 98 99 95 100 86 46 46 99 98 94 95 90 85 81 96 97 99 100 100 100 100 99 96 89 98 90 88 91 87 85 93 93 99 88 81 79 79 83 85 83 75 71 68 66 68 76 78 68 64 70 55
99 98 99 98 99 99 99 58 44 65 98 93 94 92 86 89 89 97 90 97 99 99 100 100 97 89 100 100 88 98 94 85 78 91 99 92 84 81 78 77 81 83 84 84 71 66 68 72 76 82 77 75 72 41
99 99 98 98 99 96 71 63 42 89 98 95 96 89 91 94 87 94 92 97 98 93 100 100 100 100 100 99 96 86 85 88 96 100 90 92 88 86 85 78 79 81 81 78 77 71 71 72 71 72 72 67 52 38
99 99 97 99 95 87 79 64 61 94 90 90 93 90 91 89 89 88 77 78 79 92 100 100 99 90 99 99 93 82 86 99 99 99 94 90 90 83 80 77 76 76 80 77 75 76 75 76 76 73 69 61 45 43
99 98 99 99 97 94 69 53 81 94 94 88 93 84 90 87 91 82 83 88 88 95 99 99 99 99 99 95 88 100 96 98 99 96 89 85 89 87 85 77 75 77 77 80 78 74 74 76 75 76 69 56 51 51
98 98 99 98 98 84 49 63 71 98 92 89 89 91 92 93 93 88 82 81 96 91 97 99 100 98 97 98 97 96 99 99 100 97 79 78 93 86 85 85 79 79 80 79 80 78 78 79 78 75 67 59 54 52
99 99 99 99 98 70 45 61 60 98 93 96 96 96 96 96 96 89 79 70 94 97 94 93 90 94 91 92 86 71 63 68 74 83 74 78 66 64 70 83 86 80 82 83 80 80 78 79 79 76 68 59 56 50
99 99 99 98 99 81 51 62 84 96 96 91 92 97 96 93 93 99 98 99 97 92 97 78 78 80 89 79 54 45 38 40 48 62 71 73 79 100 84 92 96 92 85 88 85 83 82 81 78 76 71 64 60 49
98 99 98 98 95 73 51 70 95 92 92 98 94 98 95 96 97 97 97 99 95 90 83 86 81 82 70 42 30 26 24 24 26 28 33 48 59 74 94 77 94 94 96 91 90 86 82 80 82 79 74 66 56 45
99 99 97 96 96 83 77 73 93 96 97 96 97 98 96 96 95 93 98 92 86 81 82 79 73 70 57 42 36 23 23 28 33 37 39 42 44 49 79 88 90 97 98 94 94 94 89 84 83 80 74 66 54 46
98 97 96 95 95 84 72 94 94 97 96 94 96 89 94 95 99 99 99 83 73 55 54 58 67 66 54 50 34 20 26 32 38 44 50 57 57 49 60 64 74 84 93 97 98 100 95 90 84 82 75 65 54 49
96 96 96 96 86 79 88 94 92 93 94 93 95 91 96 90 99 99 96 77 77 56 45 48 53 53 54 48 30 26 31 40 49 51 50 65 64 63 60 59 64 79 91 98 97 99 100 94 89 83 78 68 56 62
96 93 94 86 84 82 79 89 91 89 88 95 94 89 87 98 100 86 90 53 42 29 33 31 28 36 39 34 35 37 44 54 67 67 58 66 71 75 83 100 93 78 92 96 97 98 97 97 92 86 80 72 64 82
96 97 94 70 61 59 63 60 62 84 89 89 94 99 98 97 88 80 36 29 27 28 38 46 49 47 37 40 45 50 58 67 73 72 72 74 73 76 78 79 73 66 85 96 97 96 97 97 96 91 82 73 69 92
86 74 81 65 62 58 79 82 81 81 84 63 77 94 92 76 68 32 27 24 26 32 40 42 38 40 44 48 53 61 70 75 77 78 78 74 73 74 74 76 78 81 90 96 97 96 97 96 96 96 96 81 71 97
78 70 59 90 79 68 69 70 74 48 45 52 83 86 80 46 34 26 26 27 31 33 36 40 44 48 47 58 70 75 79 83 91 92 88 81 76 71 81 89 93 99 100 99 99 96 96 96 96 96 96 94 93 96
97 70 76 80 84 80 65 53 63 53 51 52 56 53 47 36 30 30 30 31 33 37 42 45 47 56 70 79 78 77 79 84 92 97 97 92 85 88 93 99 97 98 98 98 97 97 96 97 97 96 96 96 97 96
81 77 80 73 86 82 70 62 61 61 59 55 56 62 57 47 35 32 32 34 37 39 42 50 63 75 78 78 81 84 80 82 91 98 100 100 97 93 91 90 95 97 97 97 97 96 96 97 95 95 96 96 97 96
91 91 90 94 98 86 79 72 73 76 82 75 74 69 66 62 56 41 39 41 43 46 52 65 72 74 79 83 86 88 96 95 97 95 95 94 92 90 94 96 96 96 97 97 97 96 94 95 95 96 96 96 96 74
96 93 94 92 94 97 91 84 90 90 89 89 90 90 83 75 73 49 47 43 46 56 68 72 73 76 78 82 89 89 88 92 95 98 100 100 100 97 96 96 96 96 96 96 96 96 96 96 95 96 96 95 83 76

GFSWCAN_850_rhum_018.txt.gz
RH
78 72 88 87 99 99 81 90 93 99 99 88 96 99 98 99 96 87 68 70 63 98 97 82 85 89 93 88 85 76 79 85 94 91 90 90 90 82 86 75 92 88 96 99 97 98 93 51 72 73 57 55 57 59
98 96 98 100 100 99 96 94 85 89 99 92 90 96 94 90 100 94 96 79 80 93 60 65 85 90 90 84 97 89 77 84 80 92 93 91 91 86 89 73 71 89 74 83 84 78 50 48 52 50 55 58 59 62
98 99 100 100 99 99 98 94 86 87 99 97 97 100 97 85 88 91 99 99 93 93 62 65 16 40 66 80 87 99 83 78 77 78 86 91 91 84 85 81 83 67 58 71 70 59 57 51 48 53 53 54 56 61
99 99 99 99 99 99 98 87 77 79 97 98 98 98 97 99 87 95 100 92 99 79 90 66 88 82 72 81 85 94 97 78 77 77 87 93 92 82 89 84 91 79 71 68 74 71 59 58 54 53 54 56 64 66
99 98 99 99 99 99 98 99 68 78 95 98 94 98 95 93 84 91 98 94 97 93 89 91 59 74 81 97 90 86 90 80 79 90 95 94 86 88 86 81 90 73 81 84 78 60 60 56 53 54 56 57 63 72
99 99 99 99 99 99 98 99 91 75 93 95 96 93 96 92 97 100 95 100 92 98 93 93 97 98 99 100 93 81 82 84 82 84 90 86 81 79 97 94 72 63 63 62 67 59 61 58 56 53 56 57 62 68
99 99 99 99 99 99 98 98 90 77 94 85 83 93 94 86 95 99 80 91 93 98 96 98 99 99 100 100 100 99 92 92 86 86 93 90 88 86 94 92 60 73 86 79 72 70 66 59 57 58 58 58 63 69
99 99 99 99 98 98 98 99 67 89 88 39 52 69 83 77 80 84 81 76 90 91 96 99 98 98 100 100 99 96 98 92 92 87 93 96 90 90 99 80 79 82 70 72 72 68 68 63 60 61 62 61 63 66
99 98 99 98 99 98 99 98 67 96 56 34 75 90 93 84 95 96 88 94 90 99 98 99 100 100 97 92 99 96 97 99 91 97 95 91 92 98 84 73 71 73 74 69 60 76 68 66 66 66 66 64 64 67
100 99 98 99 99 98 99 97 82 88 32 54 94 97 92 96 94 87 97 99 99 99 99 99 99 96 99 87 99 94 97 95 100 97 98 99 93 82 69 71 78 85 87 87 84 77 74 71 69 69 68 65 65 66
99 100 99 98 99 98 99 100 97 82 31 50 86 96 90 81 97 96 99 99 98 100 99 99 100 97 90 91 98 93 100 100 100 94 91 97 94 74 75 70 75 86 91 86 84 81 75 80 74 71 70 67 67 68
100 98 99 98 100 99 100 100 99 86 46 46 77 99 99 99 99 99 98 98 100 99 99 99 100 100 94 88 91 94 97 99 98 87 94 91 91 82 76 74 77 87 89 88 81 82 80 79 74 70 72 67 66 73
100 99 99 99 99 99 94 98 100 76 49 92 99 99 98 99 99 100 96 98 99 99 99 99 99 97 91 85 94 92 93 94 86 95 87 90 90 84 82 80 76 84 85 88 81 78 75 73 71 69 72 70 67 89
100 99 99 99 99 99 97 98 95 54 62 94 94 97 98 98 97 94 98 100 100 100 100 100 100 99 98 97 92 89 90 86 93 82 84 97 97 88 85 83 81 81 83 82 94 86 73 70 73 76 79 87 74 78
100 100 98 100 99 99 99 100 73 54 58 92 96 98 96 83 88 88 90 87 98 100 100 100 99 98 100 97 93 95 96 93 77 88 97 98 93 91 90 90 86 81 79 79 79 90 81 73 81 86 96 97 90 82
100 100 99 99 98 98 99 98 76 54 90 92 93 99 87 92 93 89 89 87 94 99 100 100 100 100 100 96 97 93 83 88 94 99 98 89 89 84 74 74 84 80 79 80 81 78 77 77 79 90 95 99 94 92
100 98 94 100 100 100 98 95 71 63 92 96 97 91 90 95 98 86 88 94 95 96 100 100 99 91 98 96 99 88 92 98 99 98 84 79 83 84 71 52 57 73 76 74 76 80 79 76 79 81 82 91 97 93
99 96 100 99 99 99 98 95 58 89 99 92 97 86 89 89 91 87 85 88 81 96 99 99 100 99 97 98 97 99 99 95 92 81 64 60 59 77 52 42 48 62 69 74 74 76 80 79 78 81 82 83 87 92
99 100 100 99 98 95 76 62 61 91 90 89 97 94 90 90 93 90 88 89 86 88 93 99 99 98 89 93 99 95 90 82 74 67 51 37 43 36 31 30 32 39 51 71 75 74 76 82 82 80 81 82 78 76
100 100 99 99 99 90 69 61 59 79 99 85 93 95 92 92 94 91 94 92 85 81 97 96 94 85 86 85 86 84 74 65 56 38 27 26 28 28 28 28 27 27 30 41 70 87 82 80 84 84 82 81 80 75
100 99 99 100 99 89 64 56 58 67 93 89 93 92 89 99 98 94 89 83 90 95 100 52 46 58 85 84 82 71 62 47 29 28 29 26 25 24 24 29 30 28 29 34 47 67 94 92 89 88 86 84 81 78
99 99 99 99 97 86 84 80 70 82 81 92 95 96 94 96 96 94 90 95 89 54 35 26 18 31 68 79 68 62 41 32 30 25 20 22 23 25 25 33 37 34 35 38 42 46 67 93 96 92 92 87 85 81
100 99 98 97 97 94 95 93 76 82 98 92 95 94 94 96 97 97 99 89 69 33 26 35 42 49 68 79 70 50 38 36 25 20 23 27 28 30 30 34 44 47 44 39 48 43 42 68 97 98 96 92 88 85
99 98 97 97 98 96 95 83 86 99 98 98 98 92 88 93 100 100 99 76 44 32 38 42 59 72 72 70 61 48 47 48 42 27 27 29 29 30 34 31 38 48 55 52 51 48 40 48 89 100 99 96 92 88
98 97 97 96 98 92 95 100 100 100 98 94 96 93 92 99 99 100 93 67 41 46 42 46 63 61 54 40 36 33 46 46 48 38 34 37 37 36 32 35 45 52 58 60 58 59 61 70 87 98 100 99 96 94
97 96 94 92 98 82 87 94 97 94 94 96 95 89 90 96 100 76 76 37 30 28 32 23 18 23 25 20 20 22 28 39 44 39 35 40 42 46 47 56 56 50 59 65 65 66 67 66 88 100 100 100 99 97
97 96 95 84 78 68 76 69 70 89 91 88 89 95 94 92 75 67 23 20 20 16 14 16 17 19 21 25 28 33 39 49 54 46 39 38 42 56 68 72 65 63 73 76 70 66 68 68 67 93 100 100 98 98
93 93 96 85 66 61 77 86 84 83 78 63 78 92 83 70 59 22 19 17 15 16 18 20 22 22 23 25 29 35 39 41 43 42 45 52 58 63 65 65 68 76 83 80 76 73 77 83 78 87 100 98 97 97
93 86 76 90 68 62 61 68 70 41 39 51 79 73 69 34 27 21 17 16 15 17 19 20 24 27 29 32 36 39 42 44 54 60 58 56 57 59 69 70 75 86 90 87 87 93 99 100 98 94 97 97 96 97
82 75 68 72 79 75 54 38 37 36 39 42 40 42 40 31 24 24 21 19 18 20 23 26 29 31 35 37 38 42 57 65 64 65 66 66 70 74 76 77 83 91 96 99 97 93 97 99 100 99 99 98 99 99
73 69 66 65 80 75 71 60 50 48 50 49 49 52 46 37 30 28 30 30 31 30 31 34 35 36 37 40 48 56 57 62 66 73 79 80 80 80 83 88 92 94 94 98 96 92 94 98 98 99 98 95 96 96
77 66 82 91 94 88 78 65 59 58 66 62 59 57 59 57 55 47 44 45 44 43 41 39 37 41 44 56 61 62 62 66 72 74 75 79 80 86 99 99 98 99 95 90 93 95 98 97 96 96 96 96 96 95
93 83 87 91 94 95 84 74 81 79 84 85 82 85 78 67 63 51 46 42 37 36 38 39 42 55 61 62 63 68 74 79 80 78 78 79 86 96 99 94 97 98 98 96 97 97 94 94 96 96 96 96 96 96

GFSWCAN_850_rhum_021.txt.gz
RH
77 84 83 87 93 95 99 98 90 89 94 100 97 90 97 94 93 93 76 61 63 90 76 69 94 90 92 95 86 78 81 85 93 88 92 93 90 88 89 74 92 91 98 99 98 98 94 60 74 73 58 57 60 60
86 89 87 97 93 98 99 98 92 85 83 99 97 96 91 97 93 97 98 98 98 95 48 44 48 65 72 73 97 98 78 84 81 90 91 92 94 88 88 90 77 91 80 90 84 76 52 54 56 47 50 58 58 61
84 92 99 99 100 100 98 99 98 91 89 89 100 98 81 98 91 92 98 99 99 100 90 89 40 19 29 31 80 93 87 76 81 73 85 91 85 85 97 90 85 73 61 75 75 63 64 55 54 55 56 55 56 60
99 99 98 99 99 99 98 98 99 98 89 88 100 98 92 89 94 92 98 91 100 98 99 70 63 52 77 78 57 68 91 93 80 80 85 92 87 77 86 79 85 77 78 74 74 72 63 58 55 55 54 55 58 60
99 91 100 99 98 98 99 99 99 99 97 87 96 99 89 88 92 88 94 98 100 99 94 79 67 32 24 64 86 82 82 99 86 88 93 92 87 88 90 84 90 68 83 88 87 65 68 62 58 59 56 55 56 57
99 100 99 99 98 99 98 99 99 99 96 86 96 91 86 90 93 94 98 91 91 97 99 97 55 38 57 68 76 94 94 100 80 80 91 86 80 77 97 96 71 68 70 79 76 84 78 67 64 59 59 58 57 58
100 99 100 99 99 98 98 98 98 99 95 92 86 51 87 86 95 99 84 93 87 99 88 89 93 86 87 93 100 97 100 100 88 81 92 88 88 82 94 92 69 85 76 73 82 70 77 65 63 58 60 59 59 60
100 99 99 99 99 98 99 99 99 98 78 87 41 73 83 81 81 86 90 90 90 91 97 98 96 100 96 100 100 97 100 91 92 88 94 95 94 92 99 85 67 63 60 57 76 66 64 76 72 66 63 62 63 62
100 99 99 99 99 99 99 99 99 97 92 57 66 92 93 91 92 91 85 94 97 98 99 99 98 100 97 92 97 90 88 98 97 96 95 88 92 99 84 73 68 68 81 83 73 67 58 72 71 68 67 68 68 64
100 99 99 99 99 99 98 99 98 98 96 38 83 98 91 98 96 97 99 99 99 98 99 99 99 98 98 85 100 92 92 97 100 94 96 99 96 82 75 70 70 74 84 89 97 87 76 79 77 74 71 71 70 66
100 99 98 99 99 98 99 99 100 97 76 42 76 95 93 92 95 98 99 99 98 97 98 98 100 99 89 92 97 93 99 100 99 95 97 99 96 77 74 69 75 82 87 90 96 90 87 85 75 79 78 75 71 67
100 99 97 99 99 98 98 100 98 98 91 52 66 96 99 98 99 100 96 97 100 99 99 98 99 100 100 90 94 98 99 99 98 88 93 83 94 87 78 74 73 83 88 90 92 88 82 84 79 79 76 76 72 67
98 100 99 98 98 98 98 100 98 99 75 81 99 98 99 99 99 97 97 97 99 96 100 99 100 99 98 92 96 93 92 95 87 96 88 92 93 84 79 78 75 83 86 86 100 92 81 77 75 73 71 73 72 68
88 100 100 98 99 98 99 99 99 97 54 93 90 95 97 98 98 94 98 100 99 100 99 100 100 99 99 98 94 85 94 87 99 94 83 98 94 88 86 84 80 79 82 84 85 99 93 92 85 80 77 78 86 73
91 99 100 97 97 98 100 100 99 96 58 89 96 99 98 84 87 91 90 87 95 99 100 99 100 98 100 92 92 96 99 90 84 88 98 94 88 83 73 70 81 80 77 77 80 80 84 86 86 88 91 98 99 92
94 100 98 96 95 99 100 99 98 96 67 89 97 100 89 96 90 89 84 86 90 95 100 100 100 100 100 97 97 94 91 90 90 99 93 87 87 80 72 56 58 75 78 75 75 77 78 76 76 81 90 99 100 100
100 97 89 99 99 100 99 99 97 76 81 98 98 91 91 94 94 90 90 92 98 98 99 100 98 89 99 98 99 91 92 93 98 86 77 76 76 80 73 43 41 53 60 67 71 73 76 78 76 75 79 89 100 100
98 88 98 100 99 99 99 97 97 75 100 93 96 84 91 90 90 87 85 89 96 98 100 99 100 99 97 94 96 95 95 92 82 72 64 61 52 60 42 29 28 27 31 42 62 73 74 76 80 79 78 81 82 90
86 99 100 100 99 97 94 94 87 81 76 87 92 88 93 97 94 91 89 90 90 89 95 98 99 97 91 89 98 94 93 84 82 82 72 49 37 31 28 28 26 24 23 25 32 53 74 81 81 83 83 82 80 80
93 99 100 100 99 97 86 69 62 67 87 79 92 94 94 98 96 92 93 95 94 80 96 100 96 86 82 76 79 78 80 81 73 66 47 31 26 27 26 22 20 21 23 23 24 34 56 79 90 86 85 85 83 82
100 100 100 99 99 98 84 65 58 56 74 86 89 90 86 93 96 94 91 92 97 88 97 46 36 44 67 74 77 81 80 70 64 53 31 26 24 18 17 19 19 24 29 31 31 28 31 47 73 92 91 88 86 85
98 100 99 99 98 97 98 79 67 71 77 84 88 96 96 94 94 95 91 99 92 66 55 38 26 14 20 38 63 77 67 54 36 30 28 19 17 19 21 23 21 18 23 33 41 39 34 34 34 50 84 93 90 87
93 98 99 98 98 98 96 95 88 79 96 88 91 94 91 92 93 95 100 92 67 35 24 21 19 18 25 45 71 69 56 40 35 33 21 20 23 26 28 30 31 29 25 29 44 47 46 42 39 37 60 91 95 92
99 99 98 97 98 97 97 94 89 98 100 99 97 90 87 87 98 100 100 74 35 24 23 25 30 45 52 63 75 68 53 42 40 41 36 29 27 28 32 32 33 33 38 45 50 50 51 51 48 46 52 81 100 98
99 97 98 96 98 95 96 100 100 100 96 93 99 95 92 100 98 100 99 66 40 27 30 35 42 55 57 49 53 55 52 46 45 42 41 43 38 35 35 34 33 42 54 56 54 54 54 57 58 56 63 84 100 100
97 93 97 90 99 90 91 98 99 94 93 97 97 92 91 96 100 78 77 33 23 23 25 29 25 41 42 35 39 28 26 32 36 30 27 35 44 46 41 40 46 44 56 63 65 64 63 62 61 61 60 77 100 100
99 98 97 95 87 78 76 72 73 90 95 94 94 96 91 80 76 67 22 20 20 20 22 24 20 15 14 17 22 25 30 32 34 38 42 44 42 41 46 58 58 56 55 55 60 66 70 69 67 66 66 64 83 100
88 90 95 90 72 69 83 93 90 87 84 67 75 89 81 73 60 21 20 18 18 16 15 16 18 20 21 22 23 25 28 33 38 39 38 36 37 50 60 63 61 58 57 57 60 66 75 79 75 73 78 76 72 95
100 97 85 86 70 68 62 74 77 48 45 68 78 78 72 30 20 19 19 16 16 15 16 18 20 22 22 24 26 29 32 36 41 40 41 48 53 56 62 64 66 68 68 69 73 82 90 92 85 88 91 94 88 97
96 92 75 73 76 76 49 40 38 37 41 47 40 39 34 27 23 20 20 21 20 15 16 20 22 23 25 28 30 35 39 41 46 60 65 60 58 60 65 69 70 72 79 84 86 84 90 98 98 99 100 98 100 100
78 84 70 70 76 63 59 50 45 45 48 48 48 53 45 43 45 44 41 37 33 28 25 23 22 25 29 32 38 38 45 58 62 64 66 66 67 67 66 69 78 91 93 95 99 94 90 93 94 96 98 99 96 96
81 74 76 92 89 77 78 72 59 54 59 55 51 51 53 53 51 53 50 50 48 46 44 42 41 39 41 40 40 52 60 61 62 68 73 76 73 69 70 77 92 100 97 95 97 96 93 94 96 96 94 94 96 97
94 80 86 90 94 92 81 70 76 76 78 79 74 74 73 67 64 55 50 47 45 40 37 37 36 36 39 49 61 61 60 64 70 77 84 83 85 100 98 91 99 100 96 95 96 96 96 96 96 96 96 97 97 97

GFSWCAN_850_rhum_024.txt.gz
RH
85 74 79 86 83 92 91 93 93 99 81 90 98 100 99 86 85 91 86 73 82 67 46 47 81 96 90 96 92 82 84 85 91 87 89 92 92 91 89 83 90 90 93 96 89 99 92 61 75 70 60 57 57 60
81 69 86 85 88 98 97 96 90 96 99 95 95 98 100 97 80 94 98 99 94 97 66 55 49 53 60 74 97 98 85 82 79 90 92 91 92 94 87 94 78 92 82 90 87 79 52 55 62 53 50 53 57 58
76 82 91 98 98 96 93 90 95 98 99 98 83 99 100 99 96 91 100 96 98 100 94 97 60 45 45 34 42 99 96 87 80 72 85 90 88 91 99 95 82 75 64 73 79 67 70 57 54 60 60 57 57 58
83 92 99 99 99 98 97 96 98 98 99 99 98 97 99 99 88 92 98 97 98 96 98 72 60 57 60 53 78 39 77 99 100 85 82 91 86 78 88 78 87 79 77 80 75 69 63 58 62 59 60 58 58 58
84 86 93 99 99 99 97 97 98 98 98 99 98 98 98 88 82 88 82 82 97 99 97 88 88 59 56 65 52 64 52 82 98 98 93 92 88 88 91 89 94 78 79 86 84 68 77 73 64 64 65 63 61 60
81 85 98 99 98 99 99 96 96 98 99 99 98 99 92 66 84 92 98 88 94 90 98 98 70 56 48 38 44 41 73 95 98 97 87 86 78 75 92 96 72 68 70 75 82 81 80 75 70 70 70 64 62 60
93 98 100 100 100 99 99 99 99 99 99 98 98 88 58 80 83 90 87 85 87 89 98 93 92 84 97 66 83 84 94 99 99 93 90 89 90 81 91 84 82 84 78 67 65 71 82 72 70 74 76 69 63 62
100 100 99 100 100 99 99 99 98 99 98 99 92 56 83 79 79 81 78 90 90 97 94 98 94 99 98 90 89 96 100 98 100 91 95 94 97 90 96 80 74 68 64 61 73 71 70 65 63 68 75 72 66 65
100 100 100 99 99 98 98 99 98 99 98 98 60 90 90 96 90 91 92 95 100 97 98 98 98 97 99 95 99 96 98 100 99 96 96 89 96 96 87 79 71 71 69 67 61 65 73 75 71 71 74 72 71 70
100 99 99 99 99 99 99 99 98 99 98 80 53 98 90 95 96 94 100 99 99 98 99 100 98 98 100 99 97 96 96 98 94 92 95 99 96 86 77 74 70 70 72 77 81 82 82 77 79 79 81 79 76 73
100 99 100 99 98 99 99 96 99 99 92 61 53 91 94 98 95 100 99 99 98 99 98 98 99 98 99 94 97 88 99 99 95 99 96 97 93 88 81 73 71 74 75 82 89 94 94 93 88 87 75 79 82 77
100 99 100 100 98 99 99 96 100 94 97 96 66 76 94 97 94 100 97 96 99 96 98 98 100 100 98 90 94 97 99 98 97 93 99 96 94 88 77 77 77 78 82 85 89 97 95 89 87 87 82 80 77 77
94 100 100 100 94 98 99 98 100 97 96 83 94 97 98 95 99 99 95 96 94 99 100 99 99 100 98 92 97 98 95 97 90 98 91 92 95 88 87 83 77 79 83 83 86 99 100 97 88 82 78 74 74 73
98 98 100 100 92 99 99 99 100 99 89 72 92 96 98 96 92 96 96 98 98 98 99 100 100 100 99 100 96 90 96 90 98 99 86 99 91 90 83 82 79 78 78 82 85 86 99 100 97 90 84 79 80 83
98 95 97 100 94 100 99 99 100 97 89 64 94 97 97 85 90 87 90 95 86 94 100 98 99 99 100 97 94 99 100 97 88 87 96 95 90 79 65 59 66 76 79 80 80 82 81 84 92 95 93 97 99 99
95 94 98 99 99 99 100 99 99 97 80 79 99 99 86 97 90 88 88 87 94 98 98 100 100 100 99 99 96 92 89 88 87 97 92 87 84 75 75 48 49 61 58 64 74 76 80 81 80 81 86 93 100 99
92 90 94 100 100 99 100 99 96 90 66 96 94 93 94 95 94 88 92 90 94 98 98 100 99 94 99 99 98 96 92 90 86 89 83 82 81 80 70 38 32 29 27 28 36 59 70 76 80 81 82 89 97 100
94 94 100 100 99 99 100 98 93 91 100 85 96 80 89 90 90 92 93 88 92 98 99 99 99 99 99 97 96 93 91 85 81 72 68 66 59 58 44 28 25 23 22 21 22 30 47 60 71 76 82 82 82 87
66 93 99 100 100 99 98 98 96 91 82 78 78 78 86 88 93 97 98 96 94 96 98 98 98 96 91 91 91 89 88 81 80 75 68 68 55 45 30 24 23 20 17 15 17 20 31 61 74 82 83 82 82 82
98 99 100 100 100 99 98 89 75 68 72 69 85 91 92 96 92 92 96 97 99 96 99 99 94 85 82 74 75 79 76 78 78 82 81 60 44 30 25 19 15 13 15 20 24 25 23 26 38 50 74 86 84 84
99 100 100 100 100 98 97 86 70 58 58 77 83 86 83 93 92 95 96 96 98 97 98 68 50 49 64 70 68 70 76 80 77 74 65 55 37 24 17 16 17 18 18 18 18 21 29 31 28 25 28 50 86 90
97 96 99 100 99 98 99 96 68 66 71 76 77 94 97 95 91 95 95 98 95 79 70 57 54 47 35 28 28 44 71 81 73 66 44 27 20 16 18 21 22 25 26 26 24 25 30 34 35 36 34 28 48 83
100 96 99 95 99 98 96 97 88 84 86 78 90 94 93 91 85 87 100 88 72 49 43 40 40 51 52 33 23 48 68 70 54 37 30 24 18 20 23 26 28 29 28 29 32 39 44 45 44 42 39 38 35 56
100 98 100 94 98 98 96 97 98 97 99 100 100 93 83 81 94 100 100 75 42 37 35 31 31 34 36 33 31 35 58 62 49 36 35 31 26 27 32 32 32 35 35 36 45 48 50 50 52 51 49 46 44 46
92 94 100 96 99 96 96 96 100 100 100 97 100 97 94 95 99 100 91 68 39 28 32 36 34 32 42 39 37 43 67 68 52 41 39 43 45 42 35 36 39 40 37 44 49 50 51 53 55 56 57 56 53 52
97 90 99 93 98 94 95 100 100 98 96 99 98 92 93 96 98 77 77 29 23 22 23 27 33 36 34 32 53 53 54 55 53 42 29 34 33 35 36 40 37 31 44 54 54 53 53 56 58 59 60 63 62 60
97 95 97 98 94 88 82 72 76 93 98 96 97 100 93 74 73 62 22 17 20 20 22 25 27 25 26 30 32 32 31 27 29 28 29 31 35 41 48 47 39 43 53 55 57 57 57 58 60 60 59 63 67 65
90 90 96 94 89 80 82 92 92 91 87 71 84 93 92 86 72 20 17 18 15 14 17 20 17 18 19 19 19 20 22 25 27 29 30 33 35 39 40 48 59 59 58 58 61 62 63 64 66 69 70 70 71 73
100 100 92 95 79 78 72 77 78 52 46 61 86 84 73 43 34 30 22 19 18 14 13 15 17 19 21 22 23 23 24 27 30 32 34 35 32 39 53 56 59 64 68 68 68 71 73 74 78 87 91 92 92 94
99 100 87 82 84 84 60 56 42 38 42 53 59 54 44 39 38 38 34 32 32 32 24 21 18 18 21 23 24 27 28 30 36 39 38 40 50 53 57 63 67 68 68 71 78 83 87 88 88 90 95 99 100 96
72 93 82 81 85 64 64 58 51 47 47 48 50 57 52 47 42 39 39 41 47 51 51 47 40 27 25 29 30 30 32 37 40 42 50 56 58 62 69 73 73 70 71 85 94 94 91 94 95 95 94 94 94 97
83 87 80 90 83 71 67 71 63 57 57 54 48 47 46 45 44 41 46 51 51 50 50 49 46 41 38 36 36 38 41 42 51 58 60 62 67 74 80 82 93 89 91 97 98 93 94 98 97 96 95 96 96 97
95 87 86 80 82 88 78 73 76 71 73 74 64 61 61 61 62 52 51 53 52 50 47 42 40 43 44 44 41 44 53 58 59 62 67 74 81 87 100 100 100 99 95 95 96 98 99 99 98 97 97 97 97 96

GFSWCAN_850_rhum_027.txt.gz
RH
91 90 64 65 82 85 98 87 87 92 94 98 99 98 99 99 88 76 82 88 90 77 52 50 64 74 78 86 95 86 89 87 90 88 86 88 91 93 90 82 74 82 95 83 76 88 94 59 71 70 59 54 55 59
92 88 63 68 82 97 98 81 82 90 98 98 99 99 99 100 99 92 87 91 88 90 61 58 62 68 62 58 88 93 99 88 80 89 92 91 92 95 90 84 82 94 80 88 79 77 54 60 59 53 55 58 60 58
85 80 72 84 97 99 99 94 88 98 98 97 99 97 99 99 99 93 85 91 100 100 84 87 52 62 56 54 53 90 86 98 92 89 84 90 87 91 97 85 86 79 70 81 80 67 72 57 57 61 61 62 59 58
86 77 77 85 98 98 99 98 92 90 95 99 99 98 98 99 98 90 90 100 99 94 97 75 56 48 48 73 58 58 57 96 94 99 89 92 89 82 92 79 85 81 79 81 84 73 64 66 65 64 65 63 63 64
91 86 84 83 93 97 99 98 96 96 97 99 99 95 99 98 91 78 84 98 100 98 94 92 80 61 63 70 70 72 61 60 84 98 99 93 87 89 93 90 94 82 84 92 92 69 70 66 63 72 72 71 62 67
85 86 87 96 96 100 100 99 98 97 98 100 99 98 93 65 89 98 95 89 89 89 97 96 70 60 52 68 67 79 74 69 88 99 94 83 77 72 96 95 73 70 67 70 79 83 76 71 78 75 74 74 67 65
90 90 92 99 99 99 100 99 98 99 98 99 99 94 69 93 84 91 88 87 95 95 98 96 88 58 79 90 84 93 86 79 95 98 99 93 91 78 92 95 72 72 70 78 73 66 65 76 75 75 68 66 73 70
99 100 100 99 99 99 100 99 99 98 99 98 98 90 87 85 84 84 82 82 94 97 97 98 95 92 96 94 73 77 82 84 100 99 99 96 99 93 97 81 81 75 70 66 68 71 66 60 60 60 59 69 74 71
97 99 99 99 99 99 99 98 99 97 99 96 97 51 96 99 95 92 82 92 98 99 99 98 98 95 90 96 97 92 97 99 99 97 98 87 99 92 82 84 78 74 68 68 66 62 67 77 80 77 76 78 75 72
86 97 100 98 97 98 99 99 97 98 98 84 77 97 97 94 92 88 98 99 99 100 99 98 98 98 100 100 99 98 100 99 100 98 95 93 93 90 81 78 75 70 68 68 72 72 84 85 88 82 81 82 83 79
87 94 99 97 93 98 100 96 97 98 92 87 78 68 86 84 80 99 99 100 99 96 98 98 98 98 99 100 98 98 99 100 99 100 96 100 87 93 85 77 73 70 70 77 85 90 96 100 97 90 85 84 82 82
75 96 97 86 86 91 97 98 98 99 96 99 94 90 96 91 93 100 98 96 98 95 99 98 99 100 98 99 93 95 100 98 97 96 98 98 92 92 83 80 77 76 80 87 88 92 100 100 98 91 87 87 83 82
71 84 100 92 97 88 91 96 94 100 98 87 93 97 99 96 99 97 95 95 98 99 100 99 98 100 98 96 95 96 95 88 94 99 94 95 95 89 87 85 85 83 84 85 84 92 100 100 100 96 84 80 77 75
64 85 96 98 100 89 89 99 98 100 92 69 94 96 96 96 95 94 94 97 97 100 99 100 99 100 99 100 96 99 97 92 96 97 91 92 92 91 85 85 80 79 80 80 81 82 85 98 99 100 100 97 94 87
81 97 98 97 100 93 96 99 100 100 89 74 87 86 96 82 88 86 87 100 89 96 98 99 99 100 100 100 98 99 98 93 86 84 93 93 89 79 64 60 69 68 67 72 75 74 77 78 83 86 87 91 98 100
83 94 91 95 100 94 92 97 99 98 94 72 97 98 83 98 88 86 85 87 97 99 100 100 99 99 99 100 99 94 92 87 87 96 89 88 82 69 57 46 47 44 35 34 46 56 67 71 75 78 80 84 94 99
84 78 79 98 100 97 93 100 98 94 88 76 89 84 91 91 91 81 91 89 89 92 99 99 99 98 99 99 98 97 91 90 74 84 82 81 71 72 68 39 31 25 22 20 21 28 38 51 65 73 75 78 82 95
53 72 94 99 99 100 99 99 92 98 82 74 89 71 79 78 82 82 88 90 93 99 99 98 98 98 99 97 94 90 86 80 76 78 77 78 74 67 56 35 28 22 18 16 15 17 24 38 48 57 73 78 80 81
56 85 93 98 100 100 98 99 98 95 94 87 72 68 72 70 67 73 91 98 98 98 94 98 98 97 94 89 87 79 81 77 78 78 74 69 63 60 48 31 23 18 14 14 16 19 21 23 27 33 45 66 80 82
70 98 91 89 100 100 98 98 93 82 75 61 73 80 76 76 81 85 92 99 98 97 99 100 91 80 82 74 75 75 79 77 75 77 75 71 67 56 32 25 17 14 14 15 17 19 21 26 29 28 26 27 44 75
91 99 100 100 100 100 98 92 82 74 61 69 80 76 69 88 90 91 90 90 98 97 97 75 66 58 64 69 65 65 69 76 76 76 74 77 67 50 33 18 14 16 19 18 17 17 22 27 30 30 30 31 28 35
98 86 100 100 99 96 99 100 88 71 75 78 78 86 91 96 91 95 98 100 96 79 71 61 56 51 43 50 46 38 38 54 84 83 76 65 53 35 20 15 19 24 25 25 23 23 27 34 38 40 39 38 37 37
98 99 100 100 99 99 95 97 95 92 94 77 91 94 92 92 85 87 100 88 76 61 54 57 57 60 62 57 52 46 32 37 75 80 70 46 27 19 17 21 25 27 29 31 30 36 42 45 46 45 45 44 44 44
94 97 88 100 97 96 98 98 97 98 100 100 100 95 82 76 88 100 100 76 45 40 34 37 42 45 47 44 40 42 38 42 72 72 48 32 28 21 22 27 31 32 37 36 32 36 45 48 49 49 50 51 53 53
97 96 98 98 97 96 98 99 98 99 100 95 100 98 93 94 97 100 97 65 40 23 22 24 32 42 42 35 35 34 42 60 71 68 46 37 37 40 39 38 38 38 43 43 34 36 48 50 50 50 50 51 54 57
97 79 97 96 98 95 94 99 99 99 98 98 98 91 98 97 93 76 80 30 25 18 20 26 29 36 35 35 35 46 44 55 70 68 49 40 36 37 34 36 36 37 43 39 35 45 52 52 50 50 50 52 54 56
96 94 98 98 96 94 90 78 79 90 96 94 96 100 94 78 74 62 32 22 18 16 15 20 21 21 24 24 27 41 46 41 37 31 31 28 30 32 34 37 41 43 37 36 46 53 52 51 54 57 57 56 58 64
91 86 95 93 96 90 85 91 89 90 85 71 89 100 91 83 79 41 21 21 24 23 23 14 16 19 20 21 20 19 20 21 22 25 26 28 29 31 34 37 38 39 42 52 55 57 59 61 63 64 64 62 62 71
99 98 90 98 89 90 83 85 79 55 48 60 89 88 78 53 45 43 40 37 36 33 32 29 18 16 18 20 21 21 22 24 26 26 26 27 32 36 39 38 44 55 59 61 63 66 66 66 68 70 75 80 79 84
94 98 92 92 91 91 68 66 59 50 48 49 52 54 52 45 42 42 41 40 40 40 40 40 41 42 34 22 20 20 22 25 26 28 28 31 37 39 41 55 61 65 69 71 68 66 69 77 84 86 86 90 91 90
90 97 92 90 89 58 58 56 55 56 55 53 50 56 51 48 43 39 41 43 44 42 40 40 43 46 48 47 39 32 31 34 34 32 35 40 44 52 59 63 69 75 77 78 75 72 80 90 94 93 93 94 94 97
92 96 90 95 82 61 64 70 68 67 63 62 59 58 57 56 54 50 44 44 43 43 45 49 50 50 49 48 44 41 39 38 38 40 44 53 59 63 68 75 79 84 88 92 90 90 95 100 98 95 97 96 97 97
100 97 96 76 76 79 76 70 78 79 78 70 60 58 58 59 58 47 45 47 48 49 52 53 52 48 43 45 46 46 46 46 51 56 58 60 64 70 75 78 80 89 93 97 96 97 99 100 97 95 96 96 97 97

GFSWCAN_850_rhum_030.txt.gz
RH
87 86 79 50 61 73 92 96 82 82 88 93 94 96 97 99 99 96 84 81 82 87 59 53 62 72 58 73 84 87 86 88 86 85 78 72 66 64 67 58 63 66 75 82 74 78 79 50 60 54 50 55 55 61
89 87 83 62 70 86 98 99 91 86 91 89 94 93 95 99 99 98 86 80 94 100 77 67 72 69 59 53 78 84 97 89 78 79 75 73 72 73 66 72 60 73 57 56 54 52 41 55 54 58 59 63 64 62
90 89 85 79 81 90 98 98 97 94 88 89 97 95 97 98 99 99 99 88 97 100 83 91 83 59 61 60 56 66 81 97 99 99 83 78 74 69 77 66 66 65 61 61 64 47 51 53 60 60 61 62 62 62
87 86 83 77 79 84 94 96 98 94 94 92 92 98 96 98 97 99 99 91 90 95 96 87 77 60 52 56 62 62 65 95 87 96 96 82 74 69 68 59 60 61 65 60 60 57 61 63 63 65 67 65 61 62
85 81 79 76 80 89 97 99 98 97 96 97 95 97 98 99 91 70 90 94 98 99 89 83 78 59 59 60 78 67 73 86 89 95 100 92 77 75 72 69 68 66 65 66 59 55 52 56 68 69 72 71 70 68
83 82 80 78 84 87 96 100 99 98 98 93 98 98 96 98 86 93 92 86 80 99 99 93 75 63 59 71 65 78 79 93 92 90 97 99 78 69 78 73 56 64 68 68 58 64 70 68 65 66 76 72 68 71
90 92 93 96 98 100 96 99 99 99 97 97 98 96 95 79 87 87 90 82 95 96 97 88 80 55 70 97 98 88 98 90 80 84 94 98 89 77 80 69 53 64 69 70 73 75 69 67 74 75 72 59 61 67
96 83 84 86 95 98 96 97 99 98 93 98 95 92 95 86 88 83 82 84 93 99 100 92 88 78 94 96 80 86 91 88 88 86 95 97 100 87 87 67 74 77 76 75 72 69 68 66 60 60 66 63 63 71
85 87 88 84 95 96 98 98 95 94 88 85 85 85 91 98 94 90 90 95 99 100 98 92 91 88 98 99 98 85 84 79 76 97 94 95 98 97 72 74 75 76 72 72 73 72 65 63 72 78 78 76 76 75
72 84 88 90 85 99 99 98 89 93 83 81 74 87 96 94 89 78 99 99 100 99 100 95 98 94 99 100 98 95 99 95 98 96 99 97 98 86 82 82 80 77 72 67 66 68 73 84 90 89 86 86 84 79
63 75 82 88 84 92 98 98 95 96 90 88 90 71 84 90 84 96 99 99 98 94 99 98 99 96 99 100 100 100 100 100 100 100 100 97 84 84 87 80 76 72 70 67 69 77 88 94 97 95 91 90 90 84
66 88 99 87 83 82 89 98 99 100 100 100 95 90 91 91 95 96 92 92 93 91 98 97 98 99 98 100 99 97 100 99 98 97 96 95 82 96 88 82 77 74 72 77 84 88 97 100 100 99 96 89 88 88
56 82 99 98 93 88 88 97 100 100 100 86 79 87 92 94 92 91 93 90 93 99 99 99 96 99 100 100 97 96 99 94 95 99 86 78 92 91 86 82 80 80 83 87 87 87 92 98 99 100 99 87 81 79
17 81 98 96 97 91 88 98 98 99 99 78 69 67 88 87 87 88 84 90 89 99 98 99 99 98 100 99 92 100 100 96 96 90 77 83 92 90 86 84 80 82 83 82 81 81 81 88 100 99 100 100 100 97
25 72 96 96 98 96 97 93 95 98 95 83 74 60 88 81 81 80 84 92 87 93 98 99 98 100 99 100 100 98 95 87 74 74 76 89 84 81 75 79 74 69 67 69 68 70 72 76 78 79 80 86 94 99
53 80 86 91 98 100 98 97 96 97 96 81 85 95 82 93 82 82 76 82 90 92 98 100 98 98 99 100 100 95 92 83 79 90 80 86 84 68 56 56 54 36 27 25 32 37 43 50 57 67 74 77 81 89
72 65 70 81 92 91 89 95 94 91 91 82 82 76 79 76 77 67 74 81 87 88 95 97 97 99 98 100 97 90 86 84 77 80 85 82 76 64 50 42 33 26 22 19 17 20 25 32 46 57 60 70 77 80
61 66 75 82 85 93 90 98 90 92 95 84 87 68 74 69 69 70 69 77 86 97 100 96 100 98 94 96 87 86 82 80 77 82 81 81 72 75 68 42 34 27 20 15 15 17 20 25 30 29 36 54 69 76
44 70 80 91 100 100 98 100 96 97 97 94 84 77 75 70 66 64 66 81 98 98 96 98 99 96 85 84 89 77 79 80 80 80 80 81 78 69 63 49 33 22 15 13 15 17 19 21 23 24 23 22 33 56
61 99 98 99 100 98 98 98 94 96 88 67 68 72 74 69 71 81 86 94 100 97 100 96 89 76 74 73 78 80 80 80 82 80 77 74 69 66 63 40 30 19 12 12 14 14 16 20 25 26 27 27 27 29
82 99 100 100 100 99 99 96 91 82 72 66 69 69 62 68 75 85 88 100 100 97 96 78 65 53 52 62 70 72 75 90 78 79 74 74 72 72 61 39 26 15 16 19 20 20 20 22 28 32 35 37 37 37
100 100 100 99 99 100 99 100 97 75 77 80 78 78 87 94 88 94 100 100 98 81 71 54 51 58 63 61 57 55 54 55 50 63 82 81 74 74 63 47 19 16 21 23 23 23 26 31 36 40 41 41 42 42
96 99 99 94 98 98 97 97 98 97 94 86 87 90 86 89 84 87 100 88 74 50 48 50 47 50 55 57 63 61 57 52 46 42 73 82 72 49 29 19 16 21 24 27 29 27 26 34 42 44 46 47 47 47
98 88 91 96 87 94 99 99 97 97 100 97 100 91 85 75 83 99 99 73 42 39 38 29 28 27 34 43 44 42 47 53 48 53 82 79 61 35 22 18 21 24 29 31 32 34 30 32 42 47 47 47 48 49
92 98 98 98 87 98 95 95 96 95 100 94 100 92 90 95 89 96 93 62 38 25 19 20 28 33 36 37 41 39 40 39 43 48 73 70 45 32 26 26 31 36 40 37 36 38 34 33 46 49 48 47 47 46
96 94 98 87 92 95 93 97 98 98 97 95 95 88 98 92 93 85 75 37 28 21 19 19 23 25 27 30 32 31 36 39 47 64 69 64 48 38 35 37 37 32 37 38 42 41 36 40 50 52 50 51 52 51
97 90 99 100 95 94 92 83 84 87 94 92 85 96 94 93 84 66 38 34 24 21 31 33 32 21 22 23 24 32 40 38 45 50 58 51 39 34 32 31 31 32 37 40 41 40 44 52 54 54 54 55 57 58
87 81 95 96 97 92 93 94 93 92 82 76 87 96 92 86 75 47 26 29 35 37 39 36 28 36 40 20 23 23 25 25 25 24 25 26 26 28 30 34 37 38 39 39 40 44 52 56 57 58 60 59 59 66
98 94 90 99 95 98 93 91 93 90 74 62 86 83 77 53 42 40 41 43 43 40 37 32 36 38 38 38 30 21 22 24 30 31 27 25 26 25 28 32 38 41 43 48 56 59 61 62 63 63 64 67 66 69
97 91 88 93 94 94 70 69 68 60 56 55 54 55 53 49 42 38 37 36 36 36 33 29 31 41 43 42 41 39 34 28 27 30 32 32 31 30 30 36 42 50 58 61 63 68 73 74 70 71 82 91 91 87
85 89 90 88 90 58 55 52 55 60 59 56 52 57 54 49 44 41 42 38 34 30 30 30 35 42 43 42 44 47 49 46 42 40 44 44 38 36 39 46 56 61 64 68 72 78 84 87 86 90 93 92 89 93
96 98 96 100 85 62 61 66 65 67 64 64 63 60 59 61 60 52 42 37 37 36 36 42 44 44 46 49 52 51 49 50 48 48 44 41 40 46 56 61 65 69 74 79 87 93 94 95 94 94 96 95 94 95
100 100 100 87 78 72 67 64 75 79 81 75 63 61 65 65 64 48 42 40 38 39 42 47 52 54 54 54 50 46 47 47 46 46 48 54 58 60 62 66 71 72 77 84 93 93 94 96 95 94 94 93 92 95

GFSWCAN_850_rhum_033.txt.gz
RH
74 78 80 51 57 70 82 89 88 89 89 86 89 90 89 95 92 92 97 77 82 88 77 72 62 56 45 51 63 78 75 80 80 77 66 60 52 48 47 46 54 59 64 64 57 66 72 39 56 57 50 51 52 56
78 86 86 73 68 79 87 93 93 93 89 86 92 92 91 91 94 99 99 86 88 95 84 71 71 74 68 62 69 69 86 78 79 72 57 53 51 50 50 56 42 58 45 48 47 48 36 42 40 53 57 55 58 62
86 89 83 81 79 80 83 89 89 88 86 86 93 94 96 95 98 99 100 97 97 98 87 81 82 73 54 57 70 58 60 91 99 100 91 74 67 47 57 53 52 47 42 54 49 40 40 42 53 56 61 62 64 65
84 89 87 82 81 80 79 86 87 88 85 90 93 98 100 98 96 98 85 100 94 96 96 71 66 66 74 58 58 77 57 79 86 92 99 86 74 47 49 46 47 45 51 56 50 43 52 49 46 48 64 65 64 64
87 93 83 84 84 85 84 83 94 100 87 88 91 97 94 99 93 78 88 92 95 99 88 85 80 66 58 73 60 64 81 80 75 87 97 100 69 63 57 55 54 51 51 57 52 39 40 41 53 62 69 72 66 64
79 86 84 89 92 93 90 94 100 98 99 93 91 98 94 98 80 80 99 75 76 80 97 82 81 78 60 60 70 89 88 86 80 75 77 80 88 96 67 57 39 41 48 46 43 53 54 62 69 72 68 72 72 72
80 82 87 87 90 94 93 97 94 99 92 92 95 92 92 95 87 83 89 81 92 95 96 84 78 70 66 98 99 94 87 89 82 86 66 69 82 99 86 60 42 45 49 59 67 68 65 67 64 72 72 67 57 54
86 85 89 88 90 97 95 92 94 93 88 92 92 91 81 94 90 94 82 84 88 99 98 89 83 76 85 96 78 87 81 88 78 65 59 61 61 95 99 64 50 56 60 67 69 70 68 67 65 63 59 60 64 62
80 90 82 88 95 99 98 80 85 84 82 80 81 78 97 98 98 89 88 92 98 99 96 94 92 95 99 98 98 84 79 74 62 70 61 55 74 99 85 67 64 66 65 64 72 71 70 68 65 65 77 80 85 81
52 71 73 98 94 93 88 89 81 84 76 72 75 92 100 87 87 85 99 98 100 99 98 94 99 94 99 99 98 96 83 96 79 63 68 83 88 84 86 80 70 73 73 70 68 68 64 70 80 87 93 95 98 94
47 68 82 95 91 81 88 94 88 74 88 95 94 93 78 81 82 97 99 99 99 95 99 98 99 96 100 99 100 99 100 98 100 98 93 100 96 80 84 82 84 80 75 70 66 65 69 81 89 94 99 99 99 96
44 78 99 98 88 86 90 94 94 99 99 97 84 82 81 94 98 95 94 97 97 96 98 97 89 95 98 100 99 100 100 100 99 100 100 96 82 87 84 86 81 77 74 72 70 74 82 86 92 98 99 98 89 86
48 63 98 98 92 90 98 99 99 99 99 78 63 73 98 89 88 82 84 82 85 93 93 96 93 91 98 100 99 99 100 95 93 100 79 74 87 90 90 87 81 76 77 78 81 82 82 85 94 100 100 100 98 85
25 63 100 98 98 93 95 99 99 99 96 82 78 62 86 84 78 80 77 83 90 88 95 94 88 90 98 98 100 100 94 93 91 90 77 79 83 84 89 87 88 85 85 84 83 81 81 86 95 100 99 99 99 100
22 74 99 99 97 95 89 90 97 98 95 86 80 70 75 72 80 78 75 79 77 78 100 94 95 99 98 100 100 100 98 87 67 72 82 90 89 83 84 86 82 78 75 73 73 73 75 78 77 79 77 78 83 91
40 90 92 96 95 95 92 88 89 93 93 84 84 92 79 87 83 86 80 92 80 93 97 99 98 98 96 99 100 99 94 88 82 98 90 90 86 75 68 69 58 41 32 34 40 37 37 44 53 56 59 69 77 79
70 76 70 85 96 100 89 86 88 88 88 89 92 82 90 88 84 77 71 75 83 93 85 93 93 97 93 98 96 84 88 94 98 92 90 90 82 64 52 48 37 26 24 21 19 17 20 26 32 34 33 41 55 69
45 53 63 76 77 94 95 92 89 90 100 96 90 92 84 77 77 74 78 88 89 96 99 89 100 94 92 92 82 88 91 94 96 80 87 84 79 66 56 45 36 31 26 19 14 14 15 16 16 16 17 18 28 46
28 39 54 85 100 96 97 99 96 100 100 99 85 81 78 78 78 78 79 90 88 100 96 98 93 91 84 76 87 80 81 84 90 88 82 82 79 73 76 57 45 34 26 17 13 13 14 14 16 18 19 21 23 24
48 53 77 99 100 97 93 98 93 98 100 89 74 77 70 76 74 68 85 97 99 100 98 93 85 72 69 60 72 81 98 98 97 99 99 88 82 78 70 72 57 37 28 14 13 14 16 16 17 20 23 26 29 30
76 99 100 95 100 97 96 98 96 94 87 86 74 68 76 67 63 90 92 99 100 92 87 83 71 46 52 56 55 56 60 65 76 94 96 83 77 74 70 69 58 42 26 14 17 19 20 21 23 27 32 36 36 36
74 97 98 98 97 99 100 98 99 84 78 88 82 77 94 92 92 100 93 100 96 92 83 64 58 58 55 56 56 58 61 62 62 58 60 71 82 80 76 75 67 50 23 17 21 22 23 24 29 35 39 41 42 43
76 86 98 98 99 98 98 97 97 97 94 91 87 89 85 90 84 82 99 94 75 47 44 47 44 46 46 31 27 29 46 60 63 56 50 54 57 76 76 68 59 41 17 19 23 26 28 29 28 34 42 44 44 44
89 92 96 93 89 95 96 100 98 99 100 94 93 85 82 87 82 97 88 76 44 40 37 34 33 27 27 30 31 34 43 53 60 61 55 53 62 76 72 51 29 18 18 23 26 28 30 33 33 31 38 46 46 45
97 98 95 96 98 98 96 96 94 92 99 88 92 88 87 88 89 87 81 62 44 36 24 24 28 30 31 31 32 36 42 55 40 41 46 57 74 79 61 36 23 19 20 27 30 32 34 37 38 34 37 48 49 48
96 81 95 92 93 95 86 94 97 93 87 92 89 89 92 90 94 89 74 49 43 26 27 30 31 32 35 36 38 37 36 60 51 37 41 59 72 73 56 37 29 27 32 35 35 36 38 41 42 38 41 49 51 51
95 94 98 93 87 88 86 82 82 84 93 95 81 91 92 96 91 71 44 38 27 29 42 42 38 38 36 37 46 45 32 34 34 39 47 57 60 60 53 43 37 32 33 35 37 38 41 44 41 42 49 54 55 57
87 83 95 98 97 90 89 86 90 93 82 83 95 94 94 88 78 46 40 44 46 43 44 42 35 31 32 32 34 36 40 39 37 33 35 37 30 29 29 30 30 31 33 36 41 43 42 40 44 53 56 57 59 62
96 94 84 98 97 96 93 88 85 70 65 70 88 90 77 50 43 40 40 43 44 38 33 30 29 30 30 29 30 33 40 40 35 28 28 29 28 28 32 33 33 30 30 34 40 41 43 52 58 60 63 65 64 66
96 89 85 91 94 93 71 64 57 58 65 76 75 66 59 54 47 41 38 33 31 30 28 30 33 36 35 35 33 33 42 45 43 41 40 37 34 34 38 37 34 33 34 40 46 53 60 63 66 71 76 76 71 72
88 86 88 87 89 61 64 61 63 67 65 64 62 65 61 56 42 37 32 24 21 23 31 35 37 38 41 42 44 45 45 45 47 48 48 47 47 53 60 57 45 41 44 53 61 66 71 78 82 84 85 85 84 90
91 97 95 97 85 64 62 62 63 66 62 66 62 60 57 58 57 45 32 31 36 37 37 38 37 37 41 43 46 48 49 53 55 55 53 52 52 52 49 46 49 56 64 70 74 79 84 88 91 92 92 89 90 92
100 100 100 89 84 75 68 66 77 79 82 76 64 59 63 62 63 41 30 28 35 40 38 40 43 48 52 55 56 56 55 52 50 50 49 49 48 50 57 62 66 72 77 79 80 86 92 96 95 93 93 94 93 92

GFSWCAN_850_rhum_036.txt.gz
RH
66 72 72 61 52 65 81 92 95 90 87 79 85 89 90 92 90 92 91 96 82 88 76 78 67 58 52 44 64 64 75 76 73 83 78 73 67 55 50 46 62 72 79 77 70 74 82 56 60 71 60 53 55 53
68 73 75 76 71 74 82 89 90 88 89 82 83 85 86 94 91 99 98 99 98 95 70 69 69 66 68 57 66 60 70 76 99 96 81 69 64 52 54 67 48 66 57 63 59 62 45 43 48 54 54 54 58 60
71 78 83 83 81 75 77 85 91 92 94 86 85 91 96 92 90 97 99 91 97 94 82 79 74 71 66 61 67 65 54 88 93 98 99 95 88 60 67 63 55 48 43 60 52 45 45 42 50 55 59 60 62 63
73 76 77 77 77 78 79 84 90 93 97 89 91 91 96 93 97 86 88 92 94 92 93 72 70 71 76 77 64 65 66 70 73 77 98 99 89 54 66 59 60 54 52 58 60 51 50 46 46 54 58 62 62 62
74 72 75 70 74 76 74 82 91 94 99 100 94 94 90 90 90 78 77 73 84 86 89 91 76 72 58 73 74 78 82 80 80 78 90 91 99 88 69 69 73 54 63 73 70 45 45 45 45 48 60 66 66 61
63 70 73 76 79 78 81 84 95 95 96 98 95 95 93 90 86 82 96 80 70 85 96 90 74 76 65 60 70 80 82 85 82 76 75 71 67 97 99 77 52 43 44 46 49 49 55 57 56 62 65 69 63 65
62 70 67 65 78 81 84 89 94 98 99 96 94 92 86 79 91 85 80 81 84 88 94 88 85 73 67 85 95 91 90 87 81 80 74 71 64 94 100 94 57 47 40 46 54 57 67 68 67 66 65 66 64 57
60 65 54 63 70 75 78 98 94 92 93 94 86 81 80 91 88 92 82 88 94 93 90 96 90 81 85 95 91 86 83 89 91 82 72 67 63 68 92 78 77 80 52 56 63 68 65 68 68 66 65 62 61 62
52 47 48 59 60 61 68 96 97 92 95 83 74 83 93 93 94 88 87 87 98 97 98 93 97 97 99 98 99 96 80 85 68 84 73 64 75 92 74 58 74 88 63 66 68 70 70 68 68 67 73 79 83 83
19 35 61 61 57 55 66 91 96 94 85 80 81 96 93 79 74 78 98 99 99 99 98 94 95 96 96 98 98 99 97 92 98 80 67 80 79 53 52 81 85 80 70 70 71 75 69 64 75 80 82 82 87 93
22 46 62 61 65 59 69 90 97 88 93 89 96 95 78 79 86 94 99 98 98 97 98 93 98 98 85 99 100 99 98 99 99 96 89 99 90 82 75 78 79 73 74 73 70 69 64 72 80 85 91 91 91 90
16 37 66 77 69 63 76 98 99 99 100 91 67 60 75 99 93 92 96 96 95 98 96 98 88 90 91 99 98 99 99 99 99 100 100 99 100 97 98 92 86 87 78 74 74 72 73 80 84 95 99 99 98 90
17 32 48 70 76 73 89 98 97 98 94 74 62 63 86 84 87 82 92 89 94 95 93 95 91 86 91 99 99 100 100 98 95 100 98 99 90 88 88 88 85 82 79 78 76 79 83 85 85 91 99 99 100 100
17 32 44 66 90 89 92 95 94 94 97 84 74 66 89 90 89 91 92 96 87 83 83 94 95 85 87 97 99 100 98 99 99 98 94 99 85 85 88 86 83 85 86 87 87 86 84 86 89 89 95 87 93 98
15 20 54 89 90 89 91 92 91 92 96 89 80 83 91 72 70 67 61 62 67 73 92 93 92 97 94 99 92 99 98 97 97 94 100 96 91 84 84 86 84 84 85 83 83 80 76 73 68 66 68 72 77 79
12 22 48 78 86 91 95 89 88 89 92 89 84 93 75 76 82 79 78 71 77 66 75 94 98 99 95 99 99 99 99 98 100 100 100 97 98 87 80 78 64 47 41 43 39 34 32 33 32 34 38 44 54 59
28 42 46 64 90 91 92 88 85 87 91 97 94 81 87 85 77 75 70 72 74 61 97 87 94 95 96 99 98 99 100 100 100 99 99 99 97 98 68 63 48 28 26 22 20 18 18 18 20 18 18 19 30 46
28 39 46 50 71 98 99 86 82 88 100 99 95 97 83 73 73 73 74 78 76 92 93 91 98 95 96 97 90 98 86 83 81 89 91 91 97 98 80 49 39 34 39 58 46 48 16 14 16 17 18 19 19 20
30 42 56 72 93 96 85 98 86 98 97 98 98 88 81 75 76 78 78 82 87 97 95 97 93 90 94 78 81 65 72 87 98 97 98 99 100 99 100 99 87 63 74 54 20 12 12 13 14 15 17 19 21 23
48 63 73 97 99 88 86 95 92 99 99 94 80 75 74 70 74 71 83 99 99 98 92 90 86 81 72 51 60 66 68 76 77 79 77 79 86 99 87 81 84 92 53 35 19 12 14 16 16 17 20 23 27 32
83 99 100 100 100 92 87 99 99 95 94 88 79 68 64 71 65 70 97 100 99 88 92 87 63 45 49 55 59 63 64 63 66 69 70 65 66 85 91 80 71 69 54 44 27 15 17 18 20 22 26 31 34 37
74 98 98 100 99 97 99 99 97 93 83 88 87 78 79 90 92 98 99 100 95 83 78 56 42 55 60 56 51 52 52 47 44 58 68 71 65 55 61 77 80 75 71 55 26 16 19 22 23 23 26 34 39 40
87 92 99 98 93 99 98 98 99 97 99 97 89 92 90 88 80 80 90 84 66 44 39 45 45 45 40 28 28 30 33 36 35 35 50 67 66 65 61 57 64 78 75 62 24 19 22 26 28 28 27 27 33 40
91 93 94 97 98 98 96 96 98 98 99 99 100 95 87 87 90 97 100 67 46 41 40 43 34 24 29 35 38 38 36 41 49 54 56 62 63 61 61 63 70 72 55 37 20 20 24 27 30 32 34 34 31 40
97 98 98 98 98 96 99 99 99 93 100 97 98 95 95 83 98 98 93 50 44 47 48 32 34 37 38 40 43 46 50 45 46 71 97 70 48 58 62 69 72 60 33 20 19 20 26 32 34 36 38 39 35 37
96 84 96 92 97 94 93 99 99 96 95 97 95 87 84 99 100 90 86 50 43 38 36 41 40 36 31 30 28 30 44 56 56 46 44 42 47 58 70 81 76 51 32 24 24 29 32 35 36 37 40 41 38 39
94 96 98 95 86 85 86 80 79 89 98 98 96 98 98 96 94 77 50 41 40 29 40 47 45 43 39 32 28 28 30 30 34 57 58 43 39 53 64 66 60 49 40 36 34 33 33 36 38 41 42 39 39 48
86 79 96 99 93 85 91 93 94 95 92 76 84 99 94 89 87 53 46 46 44 44 45 45 44 38 32 32 32 34 36 37 34 32 46 59 51 39 36 37 37 36 35 33 32 34 36 38 42 43 41 42 50 57
99 92 91 99 98 93 90 91 88 70 61 74 95 94 82 59 49 47 49 48 48 48 44 33 23 24 28 28 36 41 47 47 45 40 40 40 43 44 38 33 36 36 34 34 35 32 31 34 40 43 48 55 59 62
96 89 83 92 94 94 72 70 59 51 56 57 56 58 59 57 52 51 51 46 42 36 26 23 23 31 37 41 43 44 44 45 44 45 46 45 45 46 45 45 45 44 42 38 35 35 36 39 46 55 64 67 70 73
88 89 90 86 89 66 64 65 65 65 66 66 64 69 66 61 50 44 43 36 26 22 21 24 31 36 40 41 43 45 43 46 47 48 49 49 48 48 49 51 58 62 59 57 49 45 49 58 65 69 72 76 81 86
94 94 95 98 87 68 66 68 64 66 67 69 68 66 64 64 61 48 38 28 24 20 25 34 37 41 45 45 46 48 50 53 55 56 57 58 58 55 54 57 62 66 62 52 54 63 70 74 77 80 82 85 88 90
100 100 100 89 86 76 66 59 73 76 81 76 61 57 58 60 58 43 40 34 24 27 31 37 44 50 53 55 56 58 59 57 56 55 54 53 54 53 52 52 54 60 68 74 76 78 80 84 85 88 92 94 93 92

GFSWCAN_850_rhum_039.txt.gz
RH
64 62 59 58 51 62 75 83 86 89 86 84 86 88 91 94 90 93 96 98 94 88 73 76 70 65 56 59 74 62 77 86 84 86 85 81 72 61 58 57 74 76 85 89 85 84 86 59 60 72 61 57 48 45
59 63 63 69 66 68 72 82 91 87 85 91 88 89 90 88 89 90 98 79 100 95 74 76 79 71 66 76 66 58 64 77 99 98 95 96 78 67 68 76 56 74 69 74 71 70 46 57 52 53 52 54 58 54
59 64 68 72 68 67 73 78 87 80 82 88 84 88 88 89 93 90 78 89 98 100 79 74 75 69 60 68 72 68 70 87 86 84 98 96 99 78 76 74 58 52 50 61 58 49 48 42 48 53 53 56 56 58
61 64 69 65 64 68 77 80 81 80 84 94 88 89 88 89 90 88 76 84 96 98 94 73 75 76 74 74 79 69 73 74 75 71 75 94 94 85 87 73 71 60 58 62 65 56 51 46 52 53 56 58 60 62
59 61 64 60 63 72 79 84 80 81 87 89 96 92 88 93 87 78 70 67 73 74 88 74 80 78 57 62 73 70 68 75 79 75 96 93 94 93 87 83 79 60 66 70 74 50 50 46 43 52 54 59 61 61
53 53 54 57 67 74 84 86 82 80 80 95 92 94 91 87 86 85 96 88 80 85 95 95 71 73 64 62 73 77 79 80 79 83 82 71 68 91 95 90 48 42 46 54 52 46 48 48 47 50 59 66 66 63
49 47 46 44 56 71 81 80 70 64 67 85 91 89 83 88 88 77 73 77 84 89 91 93 86 75 77 90 91 89 89 87 80 81 82 74 68 80 97 79 54 55 66 69 62 55 69 64 65 67 66 66 65 66
50 43 37 41 58 71 72 68 72 72 64 70 69 73 91 89 86 83 85 83 89 90 85 96 91 82 94 96 97 88 86 88 88 85 85 82 73 72 95 64 53 46 60 71 73 58 55 64 66 67 66 65 63 62
52 41 40 52 69 64 63 58 61 62 60 59 64 82 88 88 92 86 92 97 86 81 94 92 100 97 90 99 99 97 88 98 74 94 83 72 78 92 73 64 56 60 78 99 87 74 70 70 68 68 68 72 76 79
31 22 36 60 58 54 54 56 54 52 50 56 72 89 93 72 77 85 98 98 92 88 87 92 90 97 90 98 98 99 99 97 98 87 71 82 87 57 56 54 95 77 76 100 90 76 73 72 72 78 82 83 84 85
16 24 45 59 59 58 55 52 51 48 47 56 75 89 70 81 96 95 96 98 98 94 96 92 96 95 79 98 98 98 95 98 95 95 91 97 99 99 98 76 84 84 82 95 95 79 73 73 80 87 91 92 92 86
23 31 51 56 59 59 54 48 47 46 47 50 45 47 69 98 92 89 99 92 93 98 94 97 89 86 89 95 97 97 99 99 94 99 99 99 100 95 99 100 98 95 100 98 99 85 77 83 89 96 100 99 98 97
23 29 59 65 57 62 58 59 58 50 47 57 48 55 83 84 75 75 82 84 90 93 86 86 92 83 83 95 98 100 100 98 100 99 99 100 92 87 91 99 99 99 100 99 100 97 83 89 92 94 94 97 98 99
27 36 57 77 62 67 66 62 60 52 50 61 66 68 82 89 90 93 91 90 74 79 67 84 99 90 84 97 99 100 93 99 98 98 98 99 100 97 88 90 90 93 98 99 99 99 90 90 90 90 80 76 78 81
42 46 72 72 63 82 83 82 68 55 53 72 72 74 84 72 78 77 70 60 59 62 78 96 90 94 94 99 93 100 99 98 98 98 99 100 99 99 89 88 84 84 87 89 89 85 81 78 69 57 50 50 56 66
32 52 79 81 85 86 85 77 63 69 77 79 82 84 82 74 70 73 69 68 72 67 85 99 98 95 96 100 98 97 99 98 95 95 96 99 100 100 98 90 72 48 43 49 47 73 54 40 36 29 25 22 29 42
21 42 50 92 95 87 80 80 75 77 78 86 87 82 89 90 84 73 72 67 77 64 98 87 96 89 94 97 100 97 97 95 91 90 91 95 99 100 100 94 69 37 33 32 42 35 36 30 20 16 16 17 18 19
34 37 44 68 84 78 83 79 79 85 97 98 94 95 88 74 71 73 72 75 76 85 90 92 92 93 98 92 93 90 87 82 74 72 87 99 97 99 100 98 88 95 78 94 100 97 52 32 32 13 15 17 19 21
38 36 48 58 74 80 84 94 84 98 90 96 98 96 89 78 72 72 78 84 88 90 91 97 92 87 94 80 79 51 68 69 79 78 66 61 70 70 94 99 99 98 98 99 92 35 16 13 14 14 16 18 22 24
65 67 75 99 94 82 88 98 95 100 98 93 87 74 68 64 64 67 75 85 97 93 94 96 88 75 65 34 44 58 63 63 71 74 69 54 56 76 78 91 98 99 96 92 45 26 16 16 17 18 18 22 26 30
82 99 100 99 96 90 96 100 100 100 100 96 82 76 64 66 63 63 65 88 95 92 94 77 62 38 37 43 52 60 65 68 66 68 67 55 40 54 64 78 99 100 95 75 61 43 26 17 19 19 22 25 30 34
92 99 99 100 96 87 98 95 94 98 91 88 87 76 72 79 79 84 93 100 95 72 68 50 39 39 43 47 47 38 36 36 37 42 46 46 46 39 44 66 79 81 80 78 76 63 33 19 21 23 24 23 25 31
94 100 95 93 91 96 98 98 98 95 98 96 96 90 85 88 86 90 93 87 60 45 44 42 42 44 48 38 35 41 45 48 47 46 57 69 63 59 65 70 71 69 68 67 79 74 34 20 23 26 27 28 28 27
95 97 75 71 85 98 99 99 100 100 99 99 100 100 90 87 98 98 100 57 42 41 44 44 45 44 35 39 42 45 50 53 60 57 54 63 81 72 58 54 64 67 68 75 76 67 31 21 24 27 29 32 34 35
79 95 94 98 96 96 98 98 98 97 99 98 100 98 90 92 97 100 94 50 43 40 46 54 43 37 34 30 28 28 25 27 31 34 44 58 60 51 45 50 55 62 70 70 58 36 20 20 25 31 34 35 37 39
96 91 99 94 97 90 94 100 98 98 98 100 98 91 88 98 100 94 83 39 47 45 38 40 47 56 55 46 44 42 39 38 41 41 33 39 56 64 53 57 65 71 75 60 37 23 21 22 30 35 36 38 40 42
100 99 99 97 87 89 89 84 82 92 100 99 97 100 98 96 95 76 46 48 52 47 49 47 47 48 45 43 36 35 35 35 37 40 42 41 37 50 63 50 43 54 67 61 42 34 33 34 35 36 37 40 43 46
82 78 98 98 90 84 89 94 96 97 92 76 86 100 95 90 82 48 48 47 49 45 46 50 51 50 40 34 30 30 33 38 43 48 49 43 38 33 47 68 61 47 39 42 50 47 42 39 37 37 36 38 42 44
98 93 86 99 98 90 84 87 86 67 60 68 90 95 81 51 46 44 42 43 46 47 45 39 26 24 24 22 24 31 39 44 52 55 55 51 40 30 35 41 52 55 47 39 41 41 43 43 43 39 37 38 42 48
95 93 88 96 95 95 69 65 62 59 58 59 57 57 55 51 47 48 50 50 46 40 33 30 27 25 24 27 31 35 41 44 47 52 53 51 52 48 49 53 52 50 50 50 50 49 50 48 40 39 41 48 57 62
86 93 86 86 90 70 64 64 64 65 66 68 68 71 65 64 55 51 44 39 32 27 28 26 22 24 28 34 41 45 49 51 50 50 52 53 53 53 54 55 56 58 62 61 56 52 51 52 52 53 58 66 72 75
88 92 96 100 92 76 73 73 70 70 67 69 70 68 67 68 64 46 38 33 33 33 30 31 33 32 35 39 48 56 57 56 58 60 61 61 61 60 61 60 58 60 66 74 80 78 66 62 68 75 80 82 82 82
100 100 99 90 88 78 72 64 69 72 78 73 57 54 58 60 57 41 38 34 30 30 30 32 33 35 37 39 48 55 60 60 57 54 54 55 56 56 55 54 53 53 57 62 71 78 84 86 85 85 85 86 85 86

GFSWCAN_850_rhum_042.txt.gz
RH
68 62 53 46 49 58 67 78 84 88 86 92 89 87 87 85 84 86 82 76 85 87 72 76 73 78 65 66 79 62 79 82 86 87 87 82 79 67 64 63 75 74 84 90 85 94 88 51 58 69 59 58 56 52
64 58 54 53 56 62 68 76 82 83 86 89 91 87 88 87 87 84 81 87 99 89 80 79 81 75 76 73 76 63 67 92 99 96 95 98 92 70 72 79 64 73 67 78 77 74 46 48 53 48 54 55 56 53
62 54 60 57 60 63 67 74 78 80 83 86 89 86 87 89 89 80 75 75 86 88 70 71 75 76 72 70 69 70 74 86 84 78 96 93 97 91 88 83 65 57 56 64 62 51 54 42 52 51 52 52 53 56
58 58 60 62 66 66 68 69 74 77 82 83 88 87 86 90 82 74 64 67 72 93 94 76 80 80 84 84 76 73 76 76 75 69 70 90 93 90 94 84 82 65 60 65 68 58 54 49 44 44 52 55 56 59
56 61 61 63 64 64 65 70 74 68 78 69 71 81 85 81 77 76 67 71 75 73 80 73 81 74 68 65 71 82 68 74 80 69 94 85 83 91 85 92 77 62 69 75 74 51 50 44 42 44 54 53 58 61
56 62 60 63 62 61 63 68 64 53 56 56 61 67 72 72 83 77 97 87 77 77 83 90 65 79 75 70 71 78 81 82 80 81 85 76 69 87 95 87 65 38 39 71 81 70 64 59 44 43 54 57 60 61
59 58 59 60 59 59 60 60 52 54 52 60 65 60 68 73 68 67 74 80 82 81 77 87 90 74 79 90 94 89 86 86 82 82 88 79 71 84 90 99 45 38 36 42 49 68 73 63 56 49 59 64 68 68
55 54 63 54 53 50 50 46 46 47 51 60 57 58 58 62 56 74 88 92 90 87 83 95 90 76 92 94 99 90 90 93 91 87 87 93 78 74 93 68 50 48 53 56 66 72 94 76 68 69 70 70 69 66
56 58 52 49 50 48 45 44 44 46 51 54 63 70 63 64 60 71 80 98 89 86 82 83 99 97 79 89 97 99 95 97 80 96 90 76 78 93 70 61 63 62 96 96 95 97 98 82 75 72 69 68 68 72
55 60 47 51 53 45 44 43 42 43 46 62 65 65 63 59 75 79 87 98 100 81 77 81 92 98 86 93 96 99 98 95 99 86 74 86 85 54 85 99 93 81 95 93 88 97 99 100 82 76 75 77 77 79
60 55 46 50 45 42 41 41 39 36 47 53 52 49 63 76 87 93 90 96 96 89 93 90 92 92 80 96 95 93 99 98 99 95 87 97 96 98 100 99 100 96 94 100 100 100 100 100 94 86 87 90 89 86
54 42 46 52 44 44 42 37 33 31 34 37 37 51 67 93 92 87 100 87 90 92 94 92 93 88 88 92 97 97 98 100 96 98 97 96 99 100 99 97 99 98 100 99 100 100 100 98 97 100 100 100 100 100
28 36 50 48 42 58 42 34 32 26 38 43 40 53 73 83 62 59 63 76 82 85 85 85 92 84 83 93 99 98 99 96 100 99 99 99 94 100 99 96 94 99 99 100 100 100 100 100 100 100 95 92 90 93
41 45 49 52 40 47 47 30 21 23 39 48 52 54 78 83 82 91 86 84 74 79 67 82 99 98 87 97 94 100 82 100 98 97 97 86 91 100 100 99 96 91 98 98 99 99 99 99 100 96 84 75 69 67
50 55 69 64 50 48 54 39 26 26 37 53 55 68 79 76 85 84 76 61 60 62 68 93 89 95 95 97 94 98 98 98 96 94 92 78 97 93 99 100 97 68 69 89 96 98 98 98 98 74 55 45 38 40
59 79 73 64 61 77 74 66 48 42 52 61 65 79 82 73 62 76 73 69 69 69 73 98 91 90 92 99 96 93 94 94 90 94 79 88 88 95 91 98 99 75 43 45 53 90 91 64 42 32 23 19 23 30
58 59 67 63 70 80 74 57 55 52 57 68 81 70 78 80 84 74 72 68 72 68 93 94 98 90 91 92 98 96 97 91 76 76 71 68 66 76 90 82 93 97 57 53 69 73 82 54 61 68 31 19 20 21
55 36 36 56 70 75 74 67 57 63 94 89 71 78 77 70 67 68 70 72 74 71 81 92 92 93 98 98 93 88 69 56 67 78 77 66 61 63 67 78 98 100 99 99 98 98 98 90 36 20 21 18 19 22
30 32 55 80 87 64 78 74 74 86 93 92 92 85 69 66 60 68 76 80 84 84 79 96 90 90 93 78 73 46 44 59 69 66 60 50 47 53 52 68 99 94 100 99 99 99 60 26 20 18 18 18 20 25
62 84 98 100 86 59 76 91 89 94 92 84 84 83 71 58 56 62 75 86 97 90 93 93 91 73 63 35 36 41 49 55 65 65 42 34 39 45 47 53 63 76 94 99 99 99 79 33 20 19 18 20 24 28
98 100 100 98 96 85 90 98 99 99 99 90 86 82 69 68 67 63 71 95 92 92 94 68 48 37 35 39 44 48 52 53 44 46 43 47 54 57 62 51 45 50 80 85 99 98 78 51 30 20 20 21 23 26
99 100 100 99 86 84 89 95 94 96 93 93 88 84 78 77 70 74 91 100 97 72 57 47 37 35 38 43 44 49 45 40 46 51 50 50 51 64 79 68 54 49 69 76 84 95 89 72 41 21 22 25 24 24
96 99 95 94 86 86 97 99 92 88 98 96 99 90 84 85 88 96 100 97 70 40 39 41 41 42 45 46 48 40 40 47 42 36 37 45 52 57 63 62 62 64 67 64 67 71 79 85 60 23 23 25 27 30
98 93 79 87 96 98 97 99 96 95 100 100 100 100 92 84 100 100 100 63 44 42 41 42 48 53 53 51 44 33 30 39 38 38 35 34 35 38 55 63 58 49 50 62 68 68 74 80 67 26 24 27 30 33
64 85 85 100 100 95 98 98 99 97 99 100 100 100 90 100 97 100 98 51 37 39 45 50 52 50 47 62 73 73 66 51 46 48 34 35 36 38 37 50 62 59 57 54 60 68 72 71 54 24 24 29 32 36
95 91 98 92 97 91 93 99 96 97 99 100 98 93 96 98 100 96 82 36 37 43 39 46 51 57 56 50 49 49 42 40 48 48 29 35 37 42 42 42 49 55 58 71 75 68 49 33 25 22 23 29 34 38
96 98 97 95 86 90 91 87 86 93 100 100 98 100 98 97 93 74 42 39 44 48 48 48 48 48 48 47 48 45 42 42 43 42 39 40 41 42 46 49 41 48 66 57 63 64 43 29 24 24 28 33 37 41
79 84 97 98 95 90 91 95 98 97 92 78 88 100 92 87 80 44 42 42 44 43 43 43 45 46 46 42 36 35 32 32 32 34 35 40 41 43 48 49 47 41 51 73 66 56 56 50 42 38 38 39 41 45
94 83 86 97 100 91 83 86 84 64 56 65 88 91 74 46 42 41 42 45 49 51 51 45 32 30 30 30 32 31 30 32 38 41 43 45 44 42 54 54 48 44 45 60 75 66 55 54 50 53 53 48 48 44
91 92 87 98 98 98 66 68 63 53 54 55 54 54 54 52 50 51 53 52 48 41 28 31 31 33 34 35 32 30 30 34 40 49 54 54 57 52 53 61 61 60 58 56 55 56 57 55 56 54 53 54 49 46
91 96 88 90 92 70 66 63 59 62 65 69 68 71 66 61 55 53 43 34 30 27 29 28 28 30 33 34 36 35 31 35 43 56 62 62 61 61 61 60 58 57 59 60 60 60 58 57 57 53 50 52 55 59
93 98 96 100 95 74 72 75 74 74 73 74 76 72 72 76 72 49 27 30 29 32 29 29 32 33 35 34 34 36 38 42 54 61 63 63 64 64 63 64 64 62 60 64 69 76 82 83 79 73 66 66 72 79
99 99 98 92 92 82 76 73 72 72 75 72 60 57 59 63 56 36 32 25 24 25 29 32 35 37 38 38 38 38 41 41 41 44 45 49 54 56 56 56 57 58 59 60 65 70 73 77 82 86 87 87 86 88

GFSWCAN_850_rhum_045.txt.gz
RH
77 66 58 46 42 47 57 66 79 78 81 83 78 77 80 81 80 73 69 65 69 78 83 78 75 76 68 66 72 60 79 80 88 88 89 84 86 74 70 66 73 80 87 87 86 93 91 47 58 69 58 56 58 58
74 65 52 43 42 49 57 69 78 74 81 82 82 77 83 78 75 63 66 68 85 75 80 79 73 76 80 68 68 63 70 96 99 92 91 94 94 83 75 79 65 76 67 74 80 79 49 44 55 49 53 57 55 58
80 60 48 44 45 53 59 70 76 77 77 79 80 79 85 80 71 60 58 61 66 68 72 73 78 75 72 70 70 69 77 83 82 76 93 86 90 95 94 86 70 61 60 67 64 51 56 44 40 40 50 54 56 57
69 56 48 46 48 56 64 70 75 74 76 78 70 74 80 70 70 62 60 67 66 74 78 74 84 76 67 70 78 72 75 74 72 70 72 89 90 94 96 91 92 71 67 70 74 62 51 44 46 46 44 48 56 56
65 52 49 48 49 60 66 69 74 72 65 58 62 65 67 62 67 65 67 73 72 76 70 72 77 82 80 74 73 81 77 75 75 68 90 79 75 89 82 88 94 56 65 82 66 83 85 72 61 59 54 48 53 59
59 55 53 49 56 65 65 68 74 48 53 50 57 57 58 61 56 58 78 78 73 74 78 89 70 75 77 80 80 79 80 82 77 74 81 79 72 85 92 94 64 52 44 39 57 49 51 52 56 59 64 53 56 61
57 60 52 51 62 67 68 66 49 44 44 49 49 51 51 52 58 62 67 70 72 70 77 79 85 73 81 89 96 88 84 84 80 82 86 82 70 85 91 91 48 41 43 59 59 65 65 43 71 64 77 67 65 64
61 56 56 57 67 68 61 52 41 43 42 50 47 40 45 52 59 63 68 64 64 74 79 93 85 77 85 92 99 92 92 92 90 88 87 94 81 76 86 65 52 62 83 86 86 97 92 86 69 78 80 77 71 70
62 65 54 67 67 68 56 44 41 43 37 50 49 41 44 50 59 71 68 68 66 72 74 81 100 96 80 89 96 99 95 99 87 93 91 80 81 91 80 94 99 100 100 96 97 96 98 97 98 95 90 79 75 70
70 56 64 62 67 60 42 39 40 38 37 47 49 48 48 61 65 73 78 83 75 76 78 83 96 97 85 85 93 99 98 94 94 86 79 82 79 74 100 100 99 99 100 96 100 98 98 98 100 99 98 92 85 83
67 61 57 54 64 43 35 36 32 37 45 48 42 46 65 71 74 82 91 89 90 84 89 90 86 85 78 86 95 92 97 97 99 96 84 96 93 76 99 99 95 100 99 99 100 100 100 100 100 100 100 94 98 93
64 63 52 70 50 39 37 31 27 33 36 38 36 54 68 77 80 76 99 82 86 86 89 94 90 84 85 83 99 98 98 99 97 97 97 96 84 69 99 99 93 94 98 97 99 100 100 100 99 100 100 100 100 100
59 54 56 56 43 37 30 29 35 37 32 34 36 53 64 70 57 53 54 74 74 77 84 73 88 84 86 90 96 100 98 98 99 98 97 84 62 85 100 100 93 89 73 94 98 98 99 100 100 100 100 98 93 93
63 61 66 50 40 37 31 27 34 38 34 40 39 56 77 77 78 85 83 81 66 70 66 84 97 98 92 97 93 99 78 98 98 94 90 93 70 92 93 91 99 92 69 55 91 98 98 98 99 99 99 87 68 66
76 80 70 65 60 46 27 31 48 41 38 41 42 61 75 77 95 90 85 68 62 63 69 88 85 91 86 92 93 94 88 98 93 89 94 61 77 68 63 78 80 88 92 52 59 78 97 98 98 98 89 44 35 44
87 88 76 73 56 44 33 31 41 39 41 49 57 77 82 70 69 83 72 71 68 74 74 94 86 85 85 93 86 87 86 88 87 94 62 71 72 61 56 63 65 84 96 89 73 47 87 97 96 63 26 24 23 29
89 81 76 73 67 56 29 35 37 40 39 51 65 58 60 63 63 72 69 65 68 69 85 94 87 73 88 91 93 91 95 90 64 60 68 70 55 55 53 56 59 62 85 100 100 97 98 98 97 96 97 84 27 23
76 64 75 61 59 58 40 42 39 44 58 59 62 50 56 54 58 63 66 68 70 69 71 81 94 95 99 97 88 86 88 62 57 51 46 42 47 39 44 42 47 49 71 94 99 99 98 98 93 95 81 30 22 24
49 56 76 71 60 36 46 50 53 60 84 76 78 70 64 66 66 67 72 72 74 77 76 91 94 88 92 75 64 39 34 45 53 53 47 40 38 45 52 56 62 55 49 72 85 98 98 98 87 31 21 26 22 26
56 83 87 79 48 34 48 67 63 64 73 71 70 80 75 72 65 66 75 82 88 89 95 94 92 69 51 33 33 39 46 51 58 54 45 39 46 50 50 58 76 74 57 49 54 88 99 98 98 66 25 23 23 26
98 100 100 90 58 57 69 84 88 88 87 76 86 82 73 74 72 69 73 90 97 90 95 66 47 39 39 40 44 46 47 54 55 59 50 49 49 46 48 52 65 65 64 53 49 59 91 98 99 70 41 22 23 24
100 100 98 80 79 79 81 89 84 85 85 91 85 88 80 72 74 79 92 98 92 78 64 49 39 38 42 43 43 46 46 51 50 46 47 42 33 31 31 34 46 60 60 58 62 63 75 94 99 97 69 27 24 25
99 97 91 83 83 86 100 98 90 88 95 96 97 94 87 87 90 98 100 99 73 42 41 43 43 44 46 46 48 49 50 50 43 38 46 46 42 37 34 35 36 39 56 61 54 54 68 72 80 94 98 63 25 27
93 82 83 98 92 100 100 98 93 94 98 97 98 100 94 88 100 100 100 70 47 43 43 40 42 47 53 56 57 61 68 72 66 69 55 50 48 40 38 32 30 33 43 52 60 51 54 69 74 75 83 69 26 27
52 90 71 100 100 96 97 99 97 96 92 95 99 100 95 100 99 100 100 54 47 41 39 43 49 52 51 49 48 51 49 47 52 52 49 48 44 41 30 31 36 33 37 45 58 68 64 70 75 79 82 63 26 27
84 99 84 93 98 89 95 98 96 93 98 100 100 97 100 98 100 96 82 38 37 36 39 43 46 48 47 46 47 46 44 46 52 54 38 42 39 37 37 42 43 35 37 45 58 63 74 75 67 61 63 45 25 26
99 100 96 89 84 88 90 89 89 93 100 100 99 100 99 97 96 74 41 35 40 41 44 46 48 48 48 48 48 48 49 50 47 47 39 34 33 38 43 48 50 46 49 53 53 53 63 72 58 36 26 24 23 24
82 92 95 100 97 92 93 96 97 98 92 79 89 100 93 89 79 40 37 38 38 40 44 46 47 48 50 49 46 41 38 38 39 37 32 32 36 38 48 54 54 53 55 53 49 46 56 64 63 58 40 34 32 34
86 78 85 99 97 96 88 86 85 66 58 66 85 90 72 43 37 38 39 42 46 48 49 44 36 36 33 32 36 37 36 37 39 36 34 32 34 44 55 60 61 64 67 59 53 49 48 80 82 66 63 62 59 54
90 87 86 98 100 100 66 71 68 56 55 55 52 51 48 46 45 48 50 48 46 40 30 30 25 30 31 33 35 36 34 35 37 39 41 42 51 58 63 64 62 60 60 63 64 62 62 60 61 63 63 64 63 61
88 95 89 92 92 67 66 64 61 63 66 66 65 68 63 59 54 50 41 31 21 20 24 21 24 28 31 34 35 37 37 37 37 38 43 52 60 64 64 64 63 64 64 63 61 65 65 63 64 67 68 69 68 64
93 97 97 100 95 76 72 72 71 70 70 71 72 70 69 74 72 54 35 26 19 17 19 22 24 26 32 35 38 40 40 40 40 40 38 41 43 47 50 53 53 56 60 62 64 71 78 84 85 79 75 72 71 71
97 97 96 94 91 84 80 75 76 75 77 75 67 66 71 71 61 38 24 19 20 23 27 30 33 35 37 38 41 43 43 42 42 40 44 47 51 53 56 62 64 66 68 68 69 74 83 87 88 86 84 86 89 90

GFSWCAN_850_rhum_048.txt.gz
RH
98 96 80 61 54 44 45 43 44 56 60 57 62 66 60 50 48 48 53 52 59 78 83 77 74 74 66 64 74 61 82 77 90 92 91 87 88 79 74 68 77 83 89 89 89 91 91 48 58 63 54 55 58 58
94 93 76 64 45 45 43 46 47 54 56 65 66 68 61 50 51 50 54 58 61 67 82 71 75 78 74 70 66 62 77 93 95 89 87 86 95 89 83 80 67 78 69 68 78 75 52 49 56 47 52 57 58 58
91 91 70 58 42 46 46 44 56 58 63 62 66 72 66 58 53 53 49 58 61 69 75 74 81 73 74 72 74 69 71 82 80 77 92 84 86 92 96 88 77 65 64 68 66 54 64 58 54 60 63 62 62 62
93 85 70 50 44 45 45 54 61 70 72 67 71 69 65 63 54 54 48 52 56 64 74 77 71 70 71 68 76 74 73 73 71 68 70 88 91 92 97 94 96 79 78 81 80 68 63 54 58 61 54 54 67 64
85 79 66 47 47 47 52 57 71 76 68 70 71 65 64 64 54 52 51 55 58 61 70 71 78 78 78 72 75 81 77 75 73 68 87 80 78 84 83 86 91 62 72 87 91 70 67 61 47 40 45 52 62 71
81 79 60 49 48 51 58 63 80 68 64 70 70 60 58 55 61 54 57 52 51 54 55 86 72 75 79 86 91 80 81 80 80 78 82 79 72 78 81 79 62 58 54 60 65 67 80 72 61 50 75 60 51 69
78 78 56 46 52 60 60 73 80 62 68 72 67 57 53 61 61 61 55 54 52 54 58 80 83 73 86 90 93 86 83 85 82 84 87 80 72 86 91 86 52 59 83 99 94 97 91 86 96 83 85 83 65 67
83 71 52 54 61 65 66 76 67 58 65 65 57 52 62 61 60 55 50 54 55 55 55 90 82 80 74 88 98 96 95 92 89 90 86 89 79 75 80 62 89 98 99 99 99 99 96 95 98 97 100 99 89 82
82 66 57 59 63 68 69 60 57 58 58 55 53 57 54 53 59 65 61 56 52 57 64 80 98 95 77 85 91 99 94 96 89 92 89 80 81 95 86 95 99 99 99 100 99 97 96 98 100 99 99 99 100 90
77 64 61 62 69 65 61 65 51 53 58 44 46 50 51 61 60 61 62 58 60 60 69 89 98 97 82 79 85 98 98 94 98 87 88 92 87 68 74 98 100 100 100 100 98 98 98 98 100 98 99 100 100 98
71 70 65 73 70 71 62 52 46 60 66 49 43 55 66 69 64 67 73 77 81 82 84 88 87 95 87 94 98 92 100 98 98 97 94 95 96 68 82 98 100 98 97 83 99 100 99 99 100 99 99 100 100 100
76 70 76 77 73 57 53 50 44 51 43 40 46 61 68 69 68 66 98 77 81 71 92 90 91 79 83 89 100 93 92 98 97 98 98 98 85 57 84 97 82 94 94 71 73 99 98 99 99 99 99 99 100 100
70 77 78 77 59 56 53 44 47 45 36 45 41 56 58 62 56 44 53 76 74 80 87 71 71 82 89 93 95 98 100 98 99 98 96 86 62 57 74 64 61 70 86 88 63 62 97 93 96 97 99 99 98 98
81 80 83 75 57 58 42 36 52 39 38 37 34 60 71 72 74 80 75 78 60 72 70 87 97 99 98 98 92 96 82 88 96 98 89 93 54 65 67 62 63 63 70 88 87 69 59 88 93 97 98 98 68 61
82 86 83 76 65 51 39 56 44 40 42 36 34 53 78 76 92 81 86 67 64 68 74 88 89 85 83 85 87 72 72 88 94 88 91 58 58 47 53 52 54 55 61 67 90 95 90 70 95 96 98 97 34 35
96 97 89 75 55 46 48 41 46 39 38 40 49 74 81 71 86 91 74 62 64 73 79 89 92 86 80 79 81 84 80 80 87 92 57 48 50 57 50 41 39 44 50 58 73 99 100 99 97 98 97 95 72 72
86 83 82 78 78 68 50 51 38 37 36 39 49 45 51 49 49 58 61 63 71 76 86 91 81 70 80 90 92 80 88 91 64 46 49 49 44 44 43 42 50 55 61 61 56 69 100 100 98 97 97 97 92 71
81 76 85 78 54 48 44 35 30 38 56 54 48 44 50 51 53 59 62 62 69 71 70 77 80 98 99 97 88 84 73 76 55 51 50 42 42 41 42 50 51 57 69 72 70 59 77 95 100 97 97 97 97 87
58 69 78 62 39 28 27 32 42 62 88 81 78 65 60 56 56 55 62 68 75 76 74 86 99 99 92 74 60 32 34 46 54 52 47 45 42 44 50 49 48 51 55 61 64 60 56 57 92 98 98 79 50 51
78 83 77 59 33 25 36 52 51 46 74 73 75 72 72 70 63 64 71 77 84 85 92 99 94 68 54 35 36 44 50 54 60 58 50 43 43 47 38 32 31 31 28 36 56 66 64 51 55 97 98 98 84 34
84 94 80 53 34 35 52 72 68 78 76 79 87 78 76 76 73 75 81 92 98 88 94 75 49 41 42 44 48 54 54 59 59 63 59 53 46 38 43 53 72 56 31 29 33 47 64 59 59 74 98 98 95 32
99 96 76 45 56 65 78 83 71 76 79 87 86 84 80 75 81 83 94 100 90 79 70 55 42 44 48 48 48 49 50 51 52 51 52 50 47 55 50 47 59 71 36 31 32 38 57 60 58 75 94 97 97 52
98 81 60 73 71 81 99 94 80 90 95 99 93 90 91 90 91 97 100 98 90 50 46 47 46 46 44 48 52 56 57 57 54 52 46 59 62 56 54 49 45 38 32 31 40 39 38 51 62 65 80 96 98 96
73 64 81 91 82 100 97 98 92 94 96 96 98 100 99 92 99 100 100 78 44 45 46 45 43 41 49 52 48 45 44 44 45 49 49 48 47 44 45 41 35 31 32 39 42 41 39 55 70 66 73 83 90 98
46 86 69 100 96 98 92 96 98 96 89 87 98 100 98 100 100 100 100 61 37 35 35 37 38 44 49 49 46 46 47 48 50 53 52 49 45 44 36 31 28 25 31 40 47 48 48 64 80 79 91 96 87 89
92 99 83 98 99 88 96 99 98 96 97 100 98 99 100 100 100 96 84 42 33 36 40 40 41 42 46 46 46 47 48 51 54 55 43 39 42 53 54 48 36 34 42 51 60 56 52 53 68 76 78 93 88 83
100 100 93 87 85 85 90 91 90 92 100 100 100 100 99 98 96 75 44 34 34 39 38 39 42 45 47 48 48 47 49 52 49 48 45 41 41 42 45 46 44 46 60 64 64 67 63 56 54 66 73 54 38 45
84 98 96 96 91 84 94 96 96 96 92 82 90 100 93 87 77 39 33 34 37 38 40 43 46 46 43 40 40 38 36 38 37 37 37 35 34 36 42 45 53 65 70 71 71 73 69 64 55 55 64 66 49 34
79 87 85 98 98 93 85 86 84 67 63 70 84 88 71 47 37 35 35 39 44 45 42 38 28 23 22 25 30 34 37 37 38 38 37 36 35 39 50 62 70 72 73 69 65 69 76 67 60 58 71 84 69 65
93 88 89 94 100 99 72 74 70 63 60 59 54 51 48 45 44 46 48 48 43 35 31 26 16 18 22 28 29 31 35 37 38 39 41 41 42 43 45 51 58 62 65 67 68 63 65 70 67 66 70 77 83 85
90 86 88 91 89 73 67 66 66 67 68 66 63 66 61 60 53 48 43 34 30 29 25 17 18 21 24 26 31 32 34 38 40 42 42 42 41 38 40 44 48 50 53 60 66 67 69 73 72 72 75 76 76 74
97 94 93 100 94 80 76 77 74 72 70 70 71 69 68 70 67 51 37 24 19 19 20 23 26 30 32 33 36 38 40 41 44 46 46 44 43 46 51 57 60 61 62 62 60 61 68 76 83 89 87 81 76 73
98 98 96 92 91 86 85 76 78 78 79 79 74 73 75 73 68 40 19 16 21 24 28 32 36 41 43 44 45 46 46 46 48 50 49 49 50 52 57 57 59 61 65 72 76 79 82 83 86 87 88 88 88 88

GFSWCAN_850_rhum_051.txt.gz
RH
99 99 100 94 83 70 50 40 50 48 39 42 49 59 48 45 44 45 44 48 53 75 86 76 77 73 66 64 81 63 80 81 88 95 89 92 88 82 77 69 78 82 90 93 90 88 88 52 57 69 71 66 69 75
99 99 100 96 85 67 41 41 63 44 43 44 61 63 46 48 48 44 46 51 50 60 80 77 78 78 75 73 69 72 88 92 95 92 86 84 94 88 90 78 67 79 70 71 76 71 56 62 64 73 58 58 62 67
99 100 96 85 75 57 41 49 55 37 43 48 64 54 48 49 49 42 44 50 54 72 78 74 76 72 71 73 70 62 74 81 81 78 91 82 85 87 95 89 87 72 74 78 72 68 73 52 65 48 49 51 48 52
99 100 81 80 67 50 43 59 42 38 42 56 70 54 49 51 49 45 45 49 53 61 73 77 79 78 75 73 74 70 68 70 68 63 70 89 90 91 92 90 94 86 74 83 77 76 56 57 57 71 66 62 69 53
100 93 88 77 64 45 48 52 41 40 48 60 64 58 54 54 53 50 46 47 50 53 73 79 79 80 81 86 78 81 71 63 66 67 87 83 80 80 82 86 83 70 67 75 78 65 66 67 73 77 80 90 86 87
100 92 79 77 53 46 52 42 41 42 56 60 66 61 62 57 55 50 46 52 51 53 61 90 76 81 89 91 81 75 72 71 72 74 88 80 78 83 83 73 62 61 87 78 82 96 100 97 91 86 99 100 99 99
98 90 80 63 49 48 49 45 48 47 55 64 69 60 62 62 59 58 55 47 46 50 56 88 83 82 83 91 88 85 82 81 76 85 91 85 74 80 90 77 58 78 96 100 100 100 97 98 98 96 100 98 98 96
100 81 69 50 49 50 57 47 45 72 56 72 64 67 73 67 58 57 53 52 46 45 42 86 81 76 74 86 96 96 91 88 88 89 88 91 88 88 82 58 78 97 99 97 100 98 99 99 99 99 99 99 99 100
92 81 62 51 51 61 55 53 49 70 56 70 68 71 63 60 62 57 49 47 47 47 50 73 87 77 75 78 94 99 92 96 90 92 88 86 94 95 74 74 88 100 100 99 99 98 98 97 100 100 100 98 100 99
90 81 57 49 56 68 47 52 57 65 60 58 61 58 59 65 61 60 57 56 58 45 54 87 99 97 78 82 87 95 97 96 99 93 93 95 94 66 67 87 95 94 92 99 100 98 98 98 100 99 100 99 100 100
88 78 60 55 65 57 64 43 62 82 60 60 51 64 69 63 61 55 52 66 65 70 77 84 84 94 83 92 97 95 98 98 98 94 99 99 98 74 67 57 59 60 72 76 84 73 71 98 100 99 98 100 100 100
84 72 59 62 64 67 47 56 52 70 46 50 48 59 60 61 50 61 94 75 75 70 97 87 90 84 83 90 90 90 86 95 99 98 99 100 90 50 49 61 56 53 57 64 80 84 74 69 82 95 96 98 98 99
82 77 68 69 75 55 49 40 67 45 46 52 46 49 47 51 53 41 58 77 78 90 95 82 72 82 92 92 99 88 90 96 97 98 95 91 58 43 55 73 67 52 49 47 52 67 78 84 80 78 93 96 97 98
81 74 76 81 63 50 48 62 50 50 42 33 35 65 68 67 65 74 74 80 71 82 71 76 94 97 100 98 91 75 79 94 98 97 95 94 58 44 43 45 46 39 40 43 44 52 64 83 95 96 97 96 95 95
80 82 86 81 55 63 56 53 53 52 34 31 28 56 78 80 88 76 77 72 72 71 69 86 90 87 91 81 80 78 68 87 91 91 91 59 43 43 44 43 41 39 41 51 58 59 54 60 86 99 100 100 98 94
89 94 96 80 85 79 62 66 66 39 30 36 45 74 92 74 100 93 66 64 61 70 74 79 94 96 82 72 76 81 94 91 86 90 48 44 42 43 42 42 40 47 55 58 64 65 65 64 66 98 99 99 99 94
100 99 98 98 89 59 95 66 45 36 30 37 53 52 44 41 52 57 53 60 68 69 87 87 76 69 78 86 89 77 89 88 66 51 48 46 46 49 48 44 46 53 53 52 52 55 59 58 59 75 94 100 97 99
99 96 89 77 72 99 60 48 36 36 57 56 54 50 45 39 47 55 59 61 67 65 64 74 75 100 98 99 90 84 68 54 54 56 58 51 47 44 48 48 53 50 36 31 31 32 41 58 61 57 62 96 98 98
84 94 69 84 58 36 27 34 36 66 89 82 78 60 52 52 50 48 54 66 69 65 64 83 100 100 89 73 53 43 47 52 57 55 50 43 46 50 50 51 39 47 63 71 70 44 32 33 49 64 64 83 98 98
92 85 82 50 34 23 31 47 41 43 75 78 76 70 68 61 60 65 70 77 85 76 91 99 91 63 51 39 45 51 53 51 55 56 49 44 48 51 48 44 48 50 52 57 64 64 32 31 33 62 65 74 99 98
97 97 88 45 30 27 45 62 66 71 77 81 89 81 78 82 76 81 85 95 96 92 92 73 56 42 44 47 50 50 43 50 52 58 58 54 52 52 51 58 56 54 53 50 40 34 31 35 38 44 62 67 88 98
96 84 53 36 37 53 70 74 68 78 78 93 85 82 84 84 85 83 96 100 96 87 72 54 45 42 48 48 42 47 49 48 50 51 51 51 50 53 54 51 50 46 43 38 40 39 31 34 42 41 46 66 73 97
82 46 32 45 54 70 98 94 76 88 94 96 88 89 97 92 91 95 100 99 88 50 46 47 45 49 48 42 46 50 46 47 47 48 50 50 51 52 52 50 48 46 45 41 41 37 39 42 47 49 61 72 74 93
46 37 66 74 73 100 99 99 91 94 95 95 99 100 100 95 99 100 100 77 45 38 38 41 45 39 38 42 47 46 46 47 48 50 52 56 54 45 46 43 40 38 47 48 38 40 42 50 56 61 77 82 78 89
40 78 64 100 98 94 91 96 100 94 92 94 95 100 100 100 100 100 100 62 35 33 35 35 38 39 39 40 42 44 45 47 50 51 53 58 49 38 35 36 32 32 42 42 43 45 48 57 61 61 62 83 86 96
96 96 78 96 98 86 95 98 97 98 93 98 100 100 100 100 100 98 85 44 32 32 36 37 39 39 40 42 45 46 46 50 55 58 46 44 40 41 40 39 34 31 45 53 58 60 62 67 66 64 61 68 81 87
99 100 94 87 83 82 91 93 90 92 100 100 100 100 99 98 97 74 44 34 30 30 33 36 38 40 43 43 45 46 46 43 43 40 36 35 35 36 38 39 40 45 53 62 70 77 77 75 75 72 68 59 69 78
92 98 98 95 88 80 94 99 96 96 94 88 89 100 95 88 76 36 30 31 33 36 39 42 44 44 42 42 38 29 25 31 34 34 32 33 33 36 38 38 41 45 52 62 70 75 75 72 69 70 73 63 59 72
86 92 78 100 97 88 80 86 84 68 66 72 86 91 74 48 34 33 34 37 41 43 42 32 31 35 35 25 24 26 29 32 34 34 34 36 37 40 43 43 39 39 41 44 52 65 70 71 67 66 72 75 70 72
96 87 90 98 100 99 76 74 70 65 65 61 59 56 50 43 40 43 46 47 45 34 33 36 33 31 25 25 26 27 31 33 34 36 40 42 44 45 48 45 42 45 47 50 51 53 63 69 71 76 84 93 90 85
91 79 83 89 86 81 74 72 75 74 71 67 64 65 59 60 54 46 42 30 32 33 25 21 21 24 28 31 34 36 37 38 40 43 44 45 48 50 49 48 51 55 56 55 55 59 61 61 70 80 81 80 80 82
96 88 90 100 92 86 80 77 73 74 75 73 71 69 70 72 67 50 39 31 25 21 20 23 26 30 33 40 43 45 46 47 47 48 49 51 52 51 53 56 58 60 61 63 63 67 76 82 82 88 96 98 93 89
98 96 95 91 95 93 90 82 81 80 80 80 81 81 78 77 70 47 38 29 26 25 29 32 34 41 45 47 53 54 53 52 51 53 54 53 53 56 59 61 62 70 77 80 82 84 84 86 89 93 96 97 98 97

GFSWCAN_850_rhum_054.txt.gz
RH
98 100 100 100 100 100 84 51 36 32 35 35 38 37 39 41 44 40 45 46 42 80 91 73 69 71 61 61 68 63 74 72 72 78 72 73 65 65 64 61 64 64 66 66 66 69 69 52 55 61 65 51 49 50
99 100 99 100 100 97 72 44 35 32 34 34 40 38 41 45 41 40 45 50 46 55 87 76 74 66 57 61 62 83 83 86 86 78 72 73 80 74 71 61 58 72 64 63 61 61 61 52 64 64 64 66 62 64
100 100 98 100 99 84 66 45 34 32 32 36 40 40 45 44 42 39 45 44 42 76 77 78 78 72 68 69 60 58 74 82 82 83 79 71 75 74 69 72 74 66 63 64 55 62 56 52 70 60 67 77 78 84
100 100 100 100 98 78 53 40 32 31 32 40 39 46 46 41 38 38 42 51 55 61 71 80 79 75 77 77 72 61 67 75 68 60 66 74 72 82 82 76 66 64 49 56 48 45 58 62 62 72 85 86 86 97
99 100 99 100 91 77 48 40 31 34 33 42 44 46 47 45 47 47 48 50 51 50 72 82 78 82 88 80 78 72 62 60 61 67 69 70 75 66 66 63 58 54 70 78 66 62 74 76 89 98 93 90 95 99
98 100 100 100 92 66 47 35 39 35 40 45 44 51 50 49 48 49 51 51 48 49 63 79 81 88 89 80 73 69 64 65 67 73 76 82 80 79 59 48 55 64 76 90 86 88 98 98 99 99 97 98 94 97
100 100 100 97 73 56 46 40 41 41 43 44 50 54 55 57 56 54 50 49 52 51 56 89 85 78 91 91 87 83 80 78 79 88 81 75 73 82 69 57 59 75 89 99 100 99 99 99 99 98 98 99 99 98
100 100 100 84 63 58 48 53 45 47 44 50 55 55 56 55 54 57 48 48 50 39 32 85 76 81 79 94 90 93 93 82 86 88 89 79 83 81 73 62 64 80 94 100 100 100 100 99 100 99 97 98 98 98
100 100 97 73 64 59 46 59 51 45 48 53 56 54 57 53 55 55 50 46 39 35 43 63 70 72 74 87 89 97 89 78 86 75 76 81 77 85 62 64 72 83 93 99 97 91 81 90 100 100 100 99 99 99
100 100 93 74 65 57 66 68 46 48 51 56 50 60 57 61 50 49 48 50 45 38 39 85 90 78 80 87 84 87 98 83 89 76 91 80 74 68 58 62 82 91 82 86 100 98 83 74 88 100 98 100 100 99
100 99 84 70 70 60 78 54 44 50 60 44 49 66 69 58 50 45 49 58 56 68 73 83 83 79 86 82 81 92 92 87 91 88 82 84 76 65 52 51 52 53 57 62 74 79 88 92 88 90 79 87 97 99
100 93 83 72 70 64 72 42 44 52 46 40 49 62 59 54 40 61 83 72 62 70 98 83 94 82 93 92 82 88 88 89 93 96 90 96 75 54 39 42 53 62 56 50 48 48 51 63 80 85 88 84 90 94
98 86 80 75 68 68 56 38 45 40 42 50 40 43 35 41 52 41 52 70 79 96 97 84 84 94 95 94 96 80 92 83 95 93 83 75 63 40 39 36 35 36 36 36 39 50 55 56 59 78 92 96 98 95
91 91 79 74 70 68 46 40 42 40 39 35 36 60 67 54 51 56 57 75 74 78 69 68 95 94 100 91 85 86 69 91 91 89 86 74 52 40 40 39 40 39 40 41 50 54 57 62 63 63 66 88 99 98
90 88 81 74 66 55 41 42 41 39 33 27 25 58 72 86 81 74 74 79 73 65 66 84 93 88 85 76 72 69 70 81 77 84 76 51 41 41 40 42 42 43 43 45 52 50 44 42 55 58 57 65 89 100
100 95 88 86 59 48 47 43 41 38 36 34 43 79 91 74 100 97 74 72 61 68 69 65 88 87 82 76 74 77 85 88 75 82 49 46 44 39 41 44 42 44 44 52 52 37 30 30 34 44 53 57 69 98
91 100 99 83 69 64 51 35 46 38 28 33 59 46 48 40 49 58 54 56 59 60 78 80 70 64 79 85 84 71 84 75 75 60 59 55 42 47 50 48 44 49 52 50 33 48 69 63 39 32 36 56 60 79
98 99 95 85 80 62 42 50 39 35 65 55 59 52 44 40 46 52 51 53 57 56 57 69 69 90 82 82 76 74 68 51 51 50 48 42 44 48 49 50 51 54 47 45 60 62 61 67 67 39 36 49 62 61
97 95 89 79 43 38 36 36 35 75 90 76 71 58 54 49 50 51 51 63 62 57 55 69 86 84 72 71 57 46 52 57 56 50 40 39 46 50 51 50 51 47 50 53 54 53 50 43 39 36 39 44 63 66
90 93 97 49 36 32 33 38 41 38 79 77 71 67 61 59 69 69 75 75 71 66 78 91 76 58 48 40 48 50 45 44 45 48 47 47 48 46 46 48 54 58 53 48 47 47 47 43 37 38 39 44 50 64
99 100 61 40 35 30 47 61 60 72 75 74 79 65 72 76 81 85 89 89 85 84 91 64 47 37 44 49 48 46 40 46 47 48 50 51 48 50 51 50 50 51 51 50 53 51 46 40 37 42 44 45 50 61
99 72 42 47 43 48 60 65 65 72 77 95 74 73 83 82 84 86 97 100 98 75 64 47 43 48 49 46 44 40 45 44 45 46 48 50 51 50 48 48 50 49 48 48 50 51 46 43 45 47 49 52 57 75
66 39 38 41 46 62 96 85 73 79 88 91 81 87 97 93 90 91 100 94 75 49 44 44 42 46 48 44 36 38 47 47 47 49 50 52 52 52 49 44 43 44 42 44 47 48 47 49 55 57 61 66 66 82
35 37 45 58 66 100 96 96 90 91 90 92 93 100 100 97 99 100 94 74 49 41 38 37 39 43 41 37 37 38 41 46 50 51 51 53 52 47 42 36 37 39 45 42 41 44 47 54 62 69 74 73 66 70
32 70 52 100 89 89 95 96 98 89 98 98 100 100 100 98 91 100 94 62 42 34 33 34 34 36 38 39 38 40 42 45 47 48 46 48 44 35 32 34 34 35 42 41 46 50 53 63 72 77 78 76 70 68
92 91 78 89 94 80 92 95 95 95 93 99 99 100 99 96 100 92 81 44 32 27 29 30 33 36 37 37 40 43 45 47 47 40 28 35 36 38 37 38 37 37 46 51 57 58 60 68 74 76 74 75 79 77
90 100 94 81 78 80 88 90 89 87 96 94 95 98 94 94 91 72 39 31 26 27 30 32 36 37 39 42 44 46 45 36 33 30 27 30 33 35 38 41 42 45 46 47 45 49 50 54 65 73 74 68 72 79
93 92 94 91 80 74 92 91 92 90 91 86 84 100 90 82 70 32 24 23 27 34 36 38 39 43 46 45 45 43 30 28 27 26 28 30 32 35 39 43 46 49 50 46 45 48 52 54 62 70 72 72 69 80
93 86 72 99 92 81 76 80 78 65 65 70 79 86 73 48 35 30 31 33 35 39 40 38 38 42 41 41 37 30 28 28 29 30 32 34 36 42 47 48 49 50 50 50 53 58 58 58 58 64 70 77 86 93
90 84 86 95 90 96 86 72 67 62 61 60 58 56 50 43 38 38 39 40 40 39 39 40 40 35 31 29 28 29 33 39 42 44 46 47 49 51 51 52 53 53 54 56 57 55 55 60 63 66 72 88 99 95
85 75 78 85 90 89 84 81 75 70 68 67 64 65 60 57 41 33 32 33 36 39 37 27 27 28 28 31 33 39 41 44 49 51 51 51 51 53 55 57 58 59 63 64 66 66 65 66 69 74 80 86 91 91
88 82 80 95 98 92 85 80 76 73 74 71 69 66 68 68 64 43 37 36 32 25 26 25 28 31 33 37 44 48 49 54 56 58 57 55 56 59 59 62 66 65 71 76 77 79 80 80 81 84 90 93 94 93
98 94 92 92 95 95 92 80 84 80 79 79 81 80 79 75 68 45 33 25 25 27 30 32 36 43 46 54 62 64 63 60 56 56 57 57 58 62 62 64 68 72 80 84 88 91 90 89 90 93 93 92 93 94

GFSWCAN_850_rhum_057.txt.gz
RH
98 86 98 100 100 100 100 100 95 54 35 35 33 35 37 35 36 38 37 42 53 69 86 83 72 59 61 55 54 59 63 65 61 70 70 64 56 51 53 52 55 60 62 61 54 67 65 46 51 58 57 55 58 58
94 86 100 100 100 100 100 100 69 38 36 35 32 36 39 40 42 41 41 42 44 63 89 72 64 56 63 64 62 74 71 71 72 67 60 64 66 60 51 57 50 62 52 54 53 57 51 47 49 56 58 61 64 68
87 83 100 100 100 100 100 93 66 37 39 34 35 40 42 39 40 41 42 46 38 74 77 71 82 64 64 58 60 60 73 80 75 84 62 60 65 62 54 52 58 58 50 57 51 52 50 45 51 58 63 75 77 75
86 94 100 100 100 100 100 80 55 40 35 37 39 41 39 38 40 40 38 40 52 64 60 82 77 77 79 73 62 51 62 70 72 72 61 63 62 70 60 61 58 54 44 48 40 33 49 50 53 68 85 87 82 80
95 100 100 94 100 100 98 77 56 47 38 41 42 41 37 40 41 39 44 49 49 66 61 77 84 86 79 78 72 62 66 72 62 61 59 58 60 56 50 46 42 42 48 51 47 64 65 62 72 88 92 90 96 98
97 100 100 100 100 100 84 81 64 55 45 47 46 39 36 40 42 48 46 48 47 38 66 73 87 97 83 88 83 68 62 75 71 60 63 67 76 71 55 42 46 53 65 73 75 95 97 91 91 93 99 100 100 100
94 98 99 100 100 99 89 73 77 46 46 51 42 42 38 45 46 46 57 47 52 52 63 84 80 81 87 88 95 88 82 86 75 76 68 61 65 74 61 52 42 59 71 77 91 98 88 87 89 92 100 100 100 99
95 99 99 100 99 91 95 78 71 51 54 48 45 46 48 47 52 53 49 53 49 34 37 92 86 77 83 85 84 96 80 81 84 76 80 68 74 72 73 54 56 61 70 74 85 85 86 84 81 80 94 99 98 99
95 100 99 98 100 99 89 91 72 64 55 46 49 54 51 48 49 54 50 48 33 26 62 76 81 75 78 91 94 92 87 71 82 67 65 74 66 82 56 50 52 64 72 76 81 84 84 78 79 83 83 96 100 100
100 100 99 100 100 95 90 85 82 62 52 48 50 41 44 47 46 42 36 43 34 35 39 77 90 78 80 78 76 78 90 71 84 68 80 71 65 58 59 59 63 68 72 75 83 86 81 79 86 82 77 84 99 100
100 100 100 100 100 97 92 90 65 64 50 44 39 61 61 48 44 41 53 70 58 71 74 81 80 74 88 76 72 81 83 80 87 81 80 75 65 52 57 59 65 66 66 68 71 75 79 79 80 82 79 80 77 87
100 98 100 99 100 94 88 68 64 52 43 32 36 54 59 50 42 66 77 74 69 68 84 69 78 77 92 95 70 85 79 84 86 87 85 88 71 60 52 40 42 51 56 49 51 48 57 71 77 78 72 65 63 68
99 100 99 99 100 86 82 59 53 37 36 33 24 38 42 44 63 61 60 70 77 85 94 83 84 82 92 93 85 74 84 75 86 85 74 72 56 50 48 32 31 32 33 34 34 36 45 53 52 49 52 55 59 63
99 100 100 99 94 82 71 61 41 37 27 27 37 59 79 65 57 64 62 81 86 92 88 82 85 81 88 81 78 83 62 79 82 78 72 60 54 43 37 40 44 52 42 39 38 41 49 50 34 24 24 25 32 47
100 100 100 94 86 82 68 55 36 26 22 28 40 61 73 88 93 97 89 87 91 86 72 86 83 74 77 79 64 69 70 75 67 67 76 64 42 42 44 47 47 45 43 43 44 49 52 33 35 58 62 54 33 29
100 100 97 91 89 86 60 51 30 24 30 35 56 81 85 81 95 91 96 99 70 74 63 74 78 75 80 72 74 77 76 78 69 84 73 48 50 53 49 43 40 42 46 48 50 55 44 42 69 65 59 61 53 34
100 100 97 95 88 79 56 48 34 29 35 49 82 55 60 56 76 79 71 69 57 77 78 73 64 70 73 80 76 60 77 71 78 64 49 45 44 47 45 43 44 46 46 49 50 43 50 54 53 51 46 39 38 35
99 98 93 93 89 67 53 34 33 39 80 71 86 66 58 48 58 56 54 53 60 55 57 74 70 78 73 73 68 68 77 63 46 44 42 44 45 46 47 50 52 53 51 47 50 55 55 52 50 49 51 43 36 34
97 94 92 87 62 43 27 34 41 88 96 87 80 64 56 57 61 54 51 55 51 46 45 66 74 75 66 62 70 67 57 47 53 51 43 45 44 44 45 46 46 48 54 55 52 50 49 47 44 43 44 42 44 44
90 93 95 67 42 22 38 49 53 55 93 80 67 65 72 72 74 76 64 60 56 55 71 83 66 58 48 44 42 47 47 47 45 55 54 45 42 43 44 45 46 48 46 40 39 44 47 50 52 58 55 51 53 51
99 99 86 46 32 36 54 62 71 77 76 73 72 70 79 82 92 88 81 73 69 75 84 54 42 36 39 44 49 49 45 40 40 44 43 42 47 49 49 52 52 54 51 42 42 42 47 48 50 54 54 52 52 53
100 82 42 36 41 48 61 66 71 75 74 88 68 74 88 90 98 88 85 90 93 64 50 41 36 40 45 49 49 46 42 39 41 42 44 47 49 51 54 56 55 43 36 37 38 43 44 44 49 55 62 62 63 64
77 37 31 37 44 66 94 87 77 75 82 84 77 84 93 92 88 77 96 87 68 48 40 41 42 45 48 49 46 40 37 39 42 45 47 48 51 53 50 44 40 32 32 35 43 42 45 49 54 60 68 77 79 76
32 45 52 68 76 99 91 93 84 87 85 81 78 86 93 98 89 94 84 74 48 38 36 35 39 41 42 42 36 35 37 39 40 42 44 46 44 41 44 36 29 30 34 38 41 42 43 46 48 53 67 82 83 83
50 71 59 94 90 86 90 90 88 78 87 86 84 91 93 92 88 91 82 64 45 39 38 36 33 34 37 36 36 35 39 42 45 46 43 43 41 32 24 23 26 31 36 40 45 48 50 49 46 50 59 73 83 80
87 90 81 80 84 77 82 85 85 87 85 90 92 97 94 90 90 83 77 43 36 28 26 25 27 30 32 32 34 35 39 44 47 45 34 34 32 32 28 30 30 32 42 46 50 52 52 50 49 53 60 70 76 80
87 93 89 75 74 74 81 82 78 76 83 85 90 94 90 87 80 68 36 28 25 22 26 29 31 34 35 38 39 42 46 47 46 42 31 26 28 30 33 36 38 41 46 51 54 56 55 54 54 56 62 64 76 84
92 87 88 88 79 74 87 83 83 81 82 79 80 88 83 72 66 30 24 25 26 29 31 32 35 38 42 46 48 46 41 41 36 30 28 28 31 36 40 43 46 50 54 56 57 58 59 63 62 60 61 62 67 85
92 80 69 92 85 76 74 76 74 65 64 66 76 77 68 42 32 27 28 30 31 31 33 34 38 43 44 43 38 34 32 32 32 33 38 41 44 48 51 53 56 56 57 57 61 68 68 68 67 66 65 71 78 90
82 80 80 82 82 87 92 73 71 63 61 57 53 48 45 38 34 35 38 38 37 38 40 43 45 45 39 31 28 30 33 37 43 48 50 52 56 59 59 59 59 60 62 64 70 67 66 69 67 65 68 74 83 89
79 74 77 83 96 95 89 76 69 68 63 60 56 56 53 48 35 30 29 31 35 37 37 36 32 29 30 32 34 37 40 46 54 63 66 65 62 61 62 63 66 69 72 76 81 79 75 77 80 80 80 80 85 91
83 82 79 90 98 95 92 83 78 73 71 70 66 63 63 60 53 37 35 37 36 32 27 26 28 31 35 43 47 50 56 61 69 72 70 64 60 61 64 68 73 75 77 84 90 90 90 93 91 90 89 90 90 90
92 86 87 88 91 90 82 75 80 80 78 78 78 76 75 72 65 42 34 26 26 27 29 32 34 39 45 49 57 60 62 69 75 73 62 59 62 66 78 73 74 79 86 92 93 94 95 96 96 95 95 95 94 94

GFSWCAN_850_rhum_063.txt.gz
RH
99 100 98 89 93 96 96 99 99 97 93 100 95 72 53 48 49 53 44 58 50 73 82 68 65 69 63 62 80 62 67 69 78 77 82 83 77 67 69 72 70 76 82 84 84 90 91 48 56 68 68 77 77 78
100 97 92 89 90 92 85 99 100 100 100 100 89 65 55 50 50 61 51 59 49 55 86 78 76 73 65 62 62 70 71 77 77 80 79 82 78 77 72 82 58 76 70 80 74 78 54 57 78 80 75 79 85 87
88 93 92 87 90 96 89 100 97 99 100 95 87 67 50 46 55 54 58 56 48 75 80 68 70 66 63 64 65 64 71 70 73 73 73 81 77 84 79 78 70 66 54 75 67 62 62 80 80 77 78 83 88 86
77 90 85 88 76 91 97 85 94 100 99 98 98 65 52 53 54 55 56 52 48 54 80 88 78 67 59 56 62 62 62 66 70 64 72 85 83 75 82 76 77 71 52 59 63 70 72 80 78 77 74 73 78 84
80 90 88 91 87 92 99 99 100 100 98 100 98 82 55 53 48 50 50 48 45 45 90 88 80 81 72 57 62 65 62 61 59 64 86 81 71 68 64 62 66 54 60 64 61 72 71 76 82 80 67 66 67 78
90 87 88 79 92 92 98 100 100 99 99 99 89 85 55 50 52 51 52 53 50 40 60 97 92 87 81 66 64 64 61 60 65 67 76 71 68 75 76 73 52 62 60 60 81 80 79 81 67 74 73 70 64 62
88 87 73 82 80 92 100 98 100 100 100 99 85 72 58 61 55 44 40 45 42 34 49 97 96 85 87 79 77 64 54 66 61 72 74 72 70 75 86 80 56 61 72 75 77 65 72 78 72 70 67 59 58 60
94 92 62 90 84 86 100 100 100 99 95 87 90 67 66 62 51 54 53 42 32 30 40 94 96 83 84 80 82 82 75 74 76 80 74 76 73 79 93 68 63 69 69 69 71 67 62 59 56 45 43 44 47 49
89 72 78 98 93 98 96 100 99 98 88 84 77 65 54 50 52 46 28 21 17 21 76 84 95 95 83 84 82 80 81 93 76 85 82 80 89 96 72 66 64 66 62 69 55 42 40 40 39 37 40 44 53 48
78 78 81 100 100 100 98 98 92 94 83 73 66 55 48 48 48 36 34 21 20 29 40 93 79 95 82 78 75 78 74 90 93 87 76 85 89 69 60 62 65 55 40 39 33 32 31 28 29 30 36 44 53 43
68 62 97 100 100 100 100 99 88 71 79 68 56 55 54 48 38 34 39 47 61 83 72 82 78 95 90 90 84 74 76 79 83 94 89 84 90 74 61 54 50 44 39 34 32 33 36 35 36 39 39 45 47 29
54 69 98 100 100 99 100 90 69 68 57 51 45 55 43 32 34 60 90 76 80 82 87 80 82 84 88 78 80 78 84 78 79 85 80 81 86 61 58 54 45 34 32 33 34 36 37 38 40 41 49 56 37 67
62 89 100 99 99 100 100 78 71 46 56 50 38 34 45 44 62 42 63 81 96 94 88 85 95 79 87 78 72 86 91 98 88 97 85 89 67 53 41 36 36 37 35 36 37 40 41 44 44 49 54 40 44 56
77 99 100 99 100 99 80 70 54 60 39 25 27 51 59 61 75 85 77 85 88 72 72 72 89 83 84 84 83 87 88 83 89 97 93 91 60 45 40 42 44 39 37 39 43 44 44 46 44 42 40 42 51 52
96 100 100 100 99 97 81 59 68 51 30 34 33 45 87 95 98 99 91 86 86 65 52 73 82 76 94 89 83 86 88 94 90 88 92 63 49 42 46 53 45 39 37 38 43 44 44 43 44 46 49 52 53 50
100 100 100 100 100 97 66 70 56 32 32 38 57 90 93 89 99 87 88 87 68 56 52 48 90 91 96 93 89 91 87 90 82 94 73 56 43 43 53 43 36 39 41 43 44 46 45 45 46 42 34 36 37 42
100 100 99 100 100 76 60 49 39 34 48 60 87 71 82 74 89 72 72 64 57 43 88 79 69 74 89 95 90 88 88 85 74 71 70 62 49 45 37 35 39 38 39 40 40 40 38 32 31 31 32 30 35 38
98 99 100 100 90 78 67 51 35 49 95 86 85 84 81 70 72 63 53 53 43 40 57 70 70 84 83 72 87 83 59 61 56 42 39 39 39 36 38 37 39 41 45 46 45 43 36 32 30 33 38 39 40 43
98 99 99 97 80 57 39 38 45 94 99 91 92 81 76 76 63 49 47 47 34 31 35 49 73 83 82 64 53 49 45 46 58 46 41 40 35 36 37 41 46 48 51 52 49 45 35 36 38 41 40 45 52 51
100 99 100 70 47 28 36 54 55 62 88 84 88 88 87 90 79 60 51 40 36 32 40 67 58 38 33 27 27 29 30 42 49 42 41 34 33 36 37 43 46 48 50 51 46 45 35 33 37 40 41 52 61 52
100 99 69 52 34 33 56 62 72 77 74 87 88 92 97 89 76 62 54 46 35 38 48 32 29 30 32 31 32 34 37 41 44 46 40 34 37 41 40 43 46 50 50 46 44 38 44 42 42 44 45 50 54 52
100 80 61 34 36 51 64 69 66 69 74 84 90 76 78 81 85 64 60 51 44 30 31 26 24 30 33 35 39 42 45 49 48 41 38 38 38 38 38 40 43 45 45 44 43 42 36 42 47 50 49 52 54 53
81 58 37 40 52 59 90 87 80 81 80 89 89 84 92 87 84 68 63 57 42 35 33 31 30 33 37 40 42 42 44 44 36 33 35 37 40 42 46 46 47 50 42 29 38 38 42 52 56 54 53 57 56 56
56 44 54 74 65 100 84 90 84 86 91 94 89 88 91 83 77 76 76 53 34 32 29 29 32 36 38 41 37 34 41 37 33 34 37 42 44 46 47 46 46 41 41 37 38 42 50 56 56 56 61 62 60 62
75 84 67 94 85 86 94 96 97 88 95 95 86 87 91 83 95 92 80 43 37 30 31 31 33 33 27 24 26 30 35 35 36 40 39 46 48 48 41 33 30 34 41 44 47 53 56 60 62 65 66 67 66 66
93 94 85 85 88 78 92 90 92 94 93 92 92 92 89 96 79 58 78 37 34 30 27 26 24 21 23 27 30 33 37 39 41 43 45 47 41 38 35 36 38 42 55 60 63 64 66 67 66 69 70 71 72 70
94 98 79 79 73 70 82 83 90 88 87 81 90 95 93 73 63 55 39 30 23 19 17 18 21 27 31 33 35 38 42 45 47 42 32 31 35 42 47 53 56 62 66 68 70 71 69 68 73 80 84 78 74 75
90 81 81 85 83 70 90 94 92 87 88 71 72 86 68 56 61 34 27 23 21 20 20 24 28 32 34 38 41 43 43 36 31 32 38 41 47 57 64 72 78 80 76 69 67 70 75 83 93 96 95 93 85 82
93 82 77 98 92 91 96 93 91 74 61 58 80 86 60 41 30 26 23 21 22 24 28 31 34 36 39 41 40 32 32 34 41 46 49 48 52 64 76 78 74 67 64 67 77 87 95 96 100 100 98 97 94 90
85 90 91 92 92 94 94 90 88 81 67 61 51 46 41 36 31 27 29 29 30 33 36 35 34 34 29 28 31 36 42 48 56 57 56 56 66 74 74 68 66 66 70 74 79 80 86 90 91 92 91 90 91 89
86 80 85 92 98 95 93 84 75 64 56 55 52 44 44 40 39 37 37 32 31 32 30 27 26 28 30 35 40 44 51 57 57 56 57 67 76 72 68 64 61 66 74 79 81 82 85 89 92 91 91 92 94 95
87 89 85 92 96 88 82 74 71 66 62 60 55 49 45 39 37 37 38 39 33 26 26 26 30 34 38 44 48 55 60 62 60 59 64 75 71 63 61 62 64 72 77 80 83 87 91 93 94 93 93 94 94 94
85 86 84 85 89 86 77 73 74 74 71 73 71 61 49 43 38 42 38 30 27 27 30 33 35 39 45 50 57 61 66 68 67 65 73 71 63 63 66 66 72 76 77 81 85 88 90 92 93 94 95 95 95 94

GFSWCAN_850_rhum_069.txt.gz
RH
100 98 95 91 97 91 91 90 87 81 98 99 96 88 97 100 100 100 86 61 56 80 89 78 73 70 67 64 82 71 70 69 84 81 83 86 80 78 79 74 75 80 86 86 86 89 85 54 57 68 69 75 72 73
94 97 90 92 93 87 91 88 87 78 98 95 99 95 98 100 100 99 88 63 58 64 88 82 77 72 65 62 65 74 70 78 75 87 87 88 84 82 82 88 71 77 71 78 79 78 74 68 66 69 68 67 75 75
94 94 93 92 88 71 93 87 66 76 100 97 98 100 100 99 98 95 77 57 57 75 80 71 70 71 70 67 65 64 72 71 71 68 79 85 75 82 84 82 74 70 68 77 74 75 84 79 76 71 68 67 70 70
91 88 90 92 83 81 86 91 55 88 99 100 98 100 98 88 82 69 54 57 57 61 77 85 71 67 68 66 61 56 55 62 66 67 74 87 78 83 85 76 78 75 66 76 82 88 85 78 78 73 67 61 56 52
89 88 91 89 80 86 85 70 58 79 100 100 98 97 88 87 83 69 58 55 52 49 85 82 70 70 69 67 62 59 62 64 60 61 86 83 84 75 74 73 79 65 72 76 78 66 71 72 73 73 58 51 46 40
91 89 87 82 83 82 89 100 86 85 98 100 99 89 87 90 82 71 62 56 50 50 56 94 80 76 72 69 64 62 62 58 56 62 82 77 76 70 74 70 53 60 61 58 62 71 67 72 77 74 55 50 44 43
93 80 86 81 82 72 99 100 83 96 99 100 98 89 85 83 72 62 53 53 50 45 47 94 93 80 68 62 60 58 56 54 53 73 77 70 70 74 82 72 59 71 71 71 74 73 78 80 65 64 50 42 42 43
91 81 84 84 78 93 99 100 99 100 99 100 95 89 75 77 73 62 53 54 47 37 47 98 97 84 76 71 70 63 59 60 69 77 78 77 75 82 90 70 67 79 78 68 61 53 47 59 52 42 38 38 36 38
87 83 82 84 76 85 100 100 98 99 99 94 90 79 84 79 67 60 61 54 41 26 59 87 97 100 80 82 80 76 75 90 81 88 88 83 90 93 62 67 76 77 67 60 51 40 39 38 36 33 33 32 33 31
82 84 82 83 76 77 99 100 100 99 98 86 80 65 68 58 60 61 49 30 24 33 60 97 96 93 83 83 87 80 82 94 94 91 83 86 89 72 65 64 63 68 66 56 42 43 37 33 33 32 32 34 38 40
80 79 82 86 76 70 100 100 99 99 79 78 68 69 62 62 50 45 46 44 56 79 78 90 92 99 84 91 95 77 94 94 95 88 90 95 94 79 66 64 68 68 48 40 36 33 34 33 33 34 34 36 43 45
83 77 83 81 79 73 99 100 98 75 62 65 67 62 49 41 44 56 78 82 72 77 91 90 90 90 83 73 81 80 92 91 89 83 81 93 84 67 67 68 62 46 45 40 35 35 35 34 36 39 41 45 45 43
88 76 80 82 77 88 99 99 88 57 64 63 53 41 46 52 43 46 45 78 98 100 93 95 98 77 78 71 82 87 95 96 77 85 94 90 68 65 64 56 53 50 38 38 37 35 32 33 40 46 45 47 49 46
83 76 80 83 83 97 100 98 76 67 62 55 40 51 61 60 70 70 74 83 82 83 82 71 99 83 79 87 88 88 86 77 94 100 94 89 59 60 63 58 45 38 40 44 40 33 36 42 43 42 39 32 32 32
81 77 100 89 98 97 100 89 74 67 52 46 35 48 80 68 100 100 92 90 84 70 54 79 81 72 95 95 86 82 88 100 92 80 86 55 56 60 62 51 39 41 49 48 36 35 39 41 38 32 28 28 31 32
81 93 98 100 100 100 97 82 79 68 38 46 58 90 99 94 100 95 90 84 67 50 43 40 86 83 97 91 87 91 79 76 70 89 52 60 58 62 60 47 40 49 51 38 36 37 38 42 43 40 34 32 34 33
89 94 98 100 100 99 96 83 76 50 51 67 90 84 80 79 85 84 75 59 54 35 75 69 54 62 90 91 81 85 77 74 38 43 58 59 56 54 46 41 46 48 38 37 35 42 48 50 52 51 45 40 36 36
95 79 98 100 99 100 83 91 60 54 89 91 91 89 85 88 78 71 53 52 45 33 37 63 72 82 69 57 75 78 55 46 50 58 59 56 52 47 47 44 38 37 37 38 45 50 51 52 53 52 50 46 39 39
89 74 100 99 98 88 97 88 52 88 99 96 94 88 86 81 72 64 57 48 38 34 29 33 62 73 68 51 36 32 35 36 43 56 63 59 43 41 41 35 36 38 40 44 47 48 49 49 52 56 57 57 56 55
93 80 99 100 87 65 68 59 60 77 90 89 84 86 81 69 71 65 50 41 36 32 30 55 46 28 21 20 21 23 25 30 38 46 47 46 43 35 33 36 40 43 44 45 46 48 50 51 52 59 60 64 66 63
99 100 100 98 64 45 52 70 80 82 87 90 86 77 79 73 63 52 46 43 37 30 41 24 22 22 21 21 24 25 27 30 34 40 40 41 33 32 36 39 40 44 48 50 53 49 50 50 50 51 56 64 75 72
100 99 98 93 67 53 63 69 71 81 85 84 71 70 62 60 54 48 46 44 36 28 29 23 23 21 22 24 25 29 33 37 40 42 41 34 33 36 38 43 48 49 46 41 38 39 42 50 55 61 65 69 71 72
99 98 95 68 54 66 92 84 80 81 86 89 80 81 88 82 64 51 48 47 32 28 25 24 25 27 28 27 29 34 40 43 40 39 34 33 36 39 43 49 51 42 34 36 44 50 56 66 72 73 74 73 70 69
99 97 82 71 68 100 88 90 88 86 84 91 90 92 92 80 63 59 62 35 31 27 24 21 25 28 31 31 34 36 29 30 36 34 34 37 41 43 47 40 35 37 43 50 58 66 74 78 80 72 69 70 74 80
92 97 81 97 88 90 98 99 98 88 98 96 88 95 93 75 86 77 65 29 29 25 26 27 28 31 30 28 20 18 23 27 31 33 38 43 44 38 31 33 38 47 54 62 68 72 72 65 66 72 77 82 84 89
94 96 74 85 93 76 90 89 89 91 92 92 94 90 85 91 65 49 66 22 20 19 18 18 21 28 24 18 20 24 27 30 34 38 42 38 32 36 41 45 44 57 67 74 73 66 66 67 68 72 74 76 85 92
95 93 80 77 71 76 86 75 72 87 89 88 93 95 88 57 46 50 28 27 24 19 20 24 27 19 17 21 27 30 33 36 38 34 31 34 41 48 52 50 61 68 70 66 65 68 69 71 74 77 75 79 92 96
90 79 81 81 76 73 82 87 80 78 86 79 76 78 73 69 67 36 31 27 28 25 26 26 19 21 26 29 31 34 37 35 29 31 38 47 52 53 54 62 72 70 63 61 67 70 73 77 78 78 83 90 91 94
88 82 71 94 88 89 98 91 94 86 62 58 74 74 66 40 38 31 26 23 20 19 17 18 22 27 30 33 37 36 26 29 34 40 45 46 50 55 60 70 71 60 58 63 70 72 74 78 82 87 89 89 91 94
88 89 83 89 91 95 96 95 95 85 54 49 47 44 42 40 34 29 24 19 19 20 21 25 28 32 35 34 26 25 28 33 40 47 51 56 59 58 66 68 60 59 67 69 68 70 74 78 83 88 90 91 90 90
83 81 87 92 98 98 100 94 88 76 58 52 44 34 41 38 33 32 26 25 26 27 28 32 35 34 26 24 25 28 34 40 45 55 62 62 61 67 68 61 61 70 71 71 70 72 76 82 87 88 89 89 89 89
94 94 91 95 97 98 96 93 90 77 58 48 49 40 40 40 38 31 29 28 30 33 35 35 27 22 24 24 27 32 36 44 55 62 62 62 66 68 61 62 73 73 73 73 74 77 82 86 87 88 88 88 89 90
94 94 94 93 96 96 96 94 94 77 67 65 59 50 42 38 40 37 33 33 34 32 29 25 25 24 24 28 32 37 44 54 59 61 61 65 68 62 60 73 75 74 74 76 79 83 87 89 89 88 86 87 89 90

GFSWCAN_850_rhum_072.txt.gz
RH
90 99 96 99 96 97 100 80 88 84 58 100 99 97 96 99 97 91 72 60 62 82 89 84 76 72 68 66 82 74 70 68 83 81 82 86 81 81 79 73 75 80 87 87 88 88 79 62 59 63 65 75 71 71
98 93 91 93 95 97 88 77 79 63 96 95 99 92 96 97 98 91 78 65 68 67 85 81 78 74 69 65 67 73 70 77 74 87 87 89 82 84 82 82 73 77 71 77 77 76 71 72 71 69 68 67 71 69
90 97 89 91 87 91 79 79 78 47 98 100 98 99 98 99 98 92 84 65 69 74 78 71 73 74 73 68 67 63 71 70 69 66 80 85 75 81 86 84 76 72 72 78 71 74 76 78 74 70 68 66 69 71
92 95 88 84 88 83 76 80 75 41 97 100 92 98 100 100 98 98 84 67 62 66 77 81 71 70 70 66 62 59 58 61 63 62 73 86 76 84 84 78 80 76 71 78 78 77 81 76 74 70 68 62 59 51
89 93 88 84 78 79 82 72 44 55 98 100 99 98 98 96 93 84 69 57 53 53 83 76 69 72 69 65 61 62 66 62 60 61 86 81 86 78 79 79 85 72 75 80 78 63 67 63 65 69 65 54 47 42
84 91 89 82 82 84 74 97 94 50 96 100 99 100 98 83 69 68 53 56 51 56 61 86 77 73 68 66 64 63 63 59 56 61 81 78 78 71 79 79 54 57 60 57 58 59 67 66 71 72 66 52 46 40
86 87 86 83 87 83 98 92 84 67 92 100 100 92 92 85 65 53 54 56 50 48 52 88 90 72 66 63 60 58 55 53 53 68 73 69 77 74 78 67 49 64 66 63 63 71 77 76 70 74 63 46 36 34
88 91 84 84 86 96 99 100 82 90 100 98 100 93 87 74 62 61 56 56 50 42 49 97 96 80 66 64 63 56 54 57 65 76 76 74 77 82 88 66 62 73 75 74 76 73 57 54 61 59 48 35 32 30
91 91 82 81 79 96 98 100 100 100 100 99 89 78 69 67 67 64 62 57 41 29 64 86 95 95 78 80 75 72 69 86 80 88 88 84 86 87 57 53 66 73 70 63 61 50 46 48 44 38 32 30 30 28
89 87 81 80 77 96 99 100 100 100 98 90 72 57 62 66 61 64 54 43 28 29 55 91 93 98 84 86 89 78 82 92 92 91 86 90 91 66 60 58 56 65 69 61 57 49 43 36 34 33 32 30 31 34
91 87 81 80 75 94 99 100 100 96 87 64 57 62 64 60 63 47 40 43 48 72 73 92 87 98 81 90 95 80 95 96 95 88 92 95 94 79 64 64 62 71 70 58 44 31 32 32 33 33 31 30 35 42
90 89 82 82 81 84 100 99 98 83 65 59 54 62 68 55 49 53 76 77 76 64 91 94 88 83 81 74 80 83 93 91 90 83 90 96 84 66 66 66 67 70 64 43 37 34 34 35 35 33 33 39 47 49
94 87 81 84 80 84 99 98 100 69 59 53 46 42 48 55 50 51 45 71 93 96 94 97 97 78 75 73 86 87 94 94 75 85 94 89 62 65 67 70 68 58 48 45 37 36 38 36 34 40 45 49 47 39
95 86 82 83 83 72 100 98 100 75 59 58 50 58 67 70 73 69 68 82 69 77 87 74 98 81 76 88 87 89 78 76 95 100 85 87 51 58 65 64 56 50 48 39 40 46 40 34 36 41 42 46 45 36
96 89 83 80 87 79 97 100 100 80 70 54 42 56 82 58 96 95 81 87 87 82 66 74 83 73 96 96 84 82 91 100 89 72 82 47 49 56 61 63 60 50 40 41 50 46 36 37 39 41 47 51 53 49
96 94 90 82 88 86 96 100 100 90 52 45 54 76 93 98 97 100 97 85 79 62 52 46 90 84 92 89 90 86 72 67 66 88 45 57 54 56 61 64 58 46 44 51 48 38 36 40 50 53 53 53 55 56
99 99 79 78 86 88 98 100 99 98 50 62 82 73 73 82 82 88 82 75 64 54 73 75 52 58 90 86 72 83 75 72 33 39 56 58 57 60 62 58 47 46 51 41 38 38 45 51 54 55 53 49 54 58
99 82 76 82 100 100 100 99 95 65 81 87 90 88 84 83 86 76 70 61 54 40 39 57 72 82 69 55 74 78 49 40 46 52 57 55 54 51 47 46 46 38 36 36 40 44 49 50 49 48 52 56 53 54
98 76 99 100 97 97 99 98 89 77 93 96 95 90 85 86 81 68 60 52 43 38 36 37 60 71 65 52 40 37 35 34 42 53 56 56 53 44 43 39 33 34 36 41 46 48 48 48 52 52 51 54 59 59
94 87 100 100 100 86 93 98 84 75 98 90 87 89 83 82 82 70 55 44 40 40 31 48 44 29 21 18 18 20 22 27 30 46 56 54 45 41 31 31 33 36 40 45 46 45 37 34 40 48 54 61 68 67
94 99 100 100 99 90 96 86 84 81 87 87 86 75 82 78 67 52 45 42 40 29 55 24 23 21 20 20 20 21 24 27 31 35 39 44 37 32 32 35 40 43 47 46 34 32 41 51 56 61 68 73 75 74
98 100 99 98 94 97 83 74 79 82 84 88 78 70 65 61 50 42 41 39 34 23 24 24 24 20 20 21 21 25 28 31 36 36 36 34 31 35 38 40 42 44 36 33 38 46 54 64 71 75 78 74 66 66
100 99 98 98 96 91 95 85 85 82 88 92 77 81 88 78 58 45 45 37 29 26 26 25 22 21 21 21 25 29 32 36 32 33 34 31 34 38 41 45 44 34 33 41 51 60 69 76 77 70 68 68 67 69
99 98 98 96 87 97 91 93 89 86 86 89 84 88 92 83 63 59 64 38 28 24 25 24 24 22 26 27 30 33 34 28 26 32 31 33 37 41 44 36 34 39 45 52 63 72 75 65 63 63 64 68 73 75
98 98 97 96 96 92 94 100 96 91 89 90 84 94 93 83 84 76 63 29 25 22 22 29 29 26 22 24 29 25 20 24 30 32 34 36 41 40 32 35 41 45 54 65 69 64 60 58 60 64 68 75 83 94
96 96 96 91 94 79 89 83 87 86 90 91 90 90 85 89 61 48 64 17 15 15 17 18 20 25 26 24 15 17 23 28 31 35 39 38 31 31 35 41 45 52 61 67 64 57 57 63 65 67 73 80 87 87
95 96 84 75 65 70 80 73 72 87 87 81 92 96 88 59 52 61 23 15 13 11 13 16 18 18 19 16 18 24 28 31 36 37 30 29 34 42 45 48 53 59 69 62 58 62 66 66 68 73 78 80 85 87
93 79 85 84 75 72 82 89 88 93 91 78 78 84 67 65 65 27 26 18 14 13 20 32 35 27 19 21 24 28 32 35 32 26 29 38 44 47 51 54 63 68 61 60 66 66 67 68 72 76 79 79 79 84
91 79 71 96 91 91 95 90 88 73 69 68 82 84 74 44 44 35 30 24 19 22 22 27 22 22 24 27 31 34 33 25 25 29 36 43 51 55 58 65 70 62 61 70 68 68 68 70 72 74 76 78 82 88
87 87 89 94 93 93 93 90 93 81 68 57 52 55 50 45 45 32 28 28 28 26 22 18 18 22 26 30 32 29 23 25 30 36 42 50 56 57 61 68 63 60 68 66 64 65 67 69 72 72 72 76 81 84
80 78 90 92 96 97 100 97 92 78 55 44 42 44 48 40 40 30 29 32 30 22 20 24 27 31 30 30 22 20 24 31 36 42 51 57 57 59 66 63 60 67 68 65 65 67 69 72 72 73 77 81 86 90
91 90 92 95 98 100 93 87 88 89 77 53 49 41 39 40 42 36 34 32 28 26 25 27 29 29 26 22 20 23 29 35 42 48 54 56 58 65 64 60 68 71 67 67 69 71 72 74 77 80 83 86 88 90
89 90 92 92 96 96 96 95 96 96 95 85 62 54 45 35 36 35 33 31 28 25 28 30 30 24 21 22 26 31 36 40 44 50 55 59 65 63 60 66 71 68 68 70 72 75 78 81 86 89 91 92 93 93

GFSWCAN_850_rhum_078.txt.gz
RH
84 14 43 68 81 90 71 76 66 64 95 94 93 90 89 87 70 65 63 62 62 81 88 84 80 76 72 72 60 71 64 59 60 61 59 65 58 62 61 62 63 62 61 61 63 64 50 54 57 52 49 63 62 65
81 17 59 75 82 87 70 68 63 67 89 99 91 93 88 75 70 65 63 68 64 62 80 79 78 74 73 73 74 66 66 70 66 58 62 61 59 64 61 52 63 62 54 49 52 44 51 60 59 60 58 60 68 68
75 20 63 79 96 75 70 65 56 78 94 94 96 91 85 84 77 64 66 65 63 68 74 71 74 74 74 72 69 65 65 63 62 60 61 61 61 57 56 57 61 60 63 56 56 52 55 61 59 60 62 64 62 64
69 21 58 83 91 72 69 62 49 80 90 93 93 85 91 90 80 68 58 61 63 66 69 74 70 69 68 65 61 59 58 58 57 58 63 60 56 71 58 58 58 56 64 58 57 53 62 61 62 60 62 64 64 64
57 21 64 76 76 69 68 49 36 70 89 87 90 96 90 84 86 81 61 51 52 58 71 73 68 68 67 65 62 62 64 59 58 64 65 61 70 66 66 66 62 61 53 53 43 53 54 57 57 60 65 67 66 61
47 22 62 77 62 68 67 51 40 42 90 90 83 89 88 86 88 78 64 53 54 62 61 75 73 68 68 67 68 66 62 58 57 66 71 78 74 69 63 55 45 60 58 58 50 55 59 60 57 61 72 72 66 58
39 24 62 79 62 66 89 80 76 31 79 96 80 85 86 86 86 68 51 54 51 49 56 82 78 68 66 63 60 58 56 54 54 66 69 68 79 81 62 55 41 45 62 61 60 60 64 64 68 68 73 72 66 54
29 24 65 73 60 85 91 68 59 48 72 92 82 88 82 74 71 62 50 53 49 44 47 92 85 70 68 64 66 56 54 55 60 76 70 62 75 76 67 50 55 50 54 61 63 67 61 58 62 66 70 71 52 38
24 23 68 73 64 90 94 82 61 65 92 91 88 83 78 74 62 53 51 54 46 38 48 76 85 82 69 70 64 61 57 60 72 66 68 73 60 68 47 44 53 53 60 60 68 72 67 52 51 51 43 37 36 37
20 26 68 76 62 91 92 99 98 92 88 97 87 77 71 70 61 53 53 51 46 39 39 73 74 83 73 81 77 72 78 68 77 70 88 76 64 60 49 46 40 45 60 60 69 63 54 42 35 33 35 37 38 37
18 22 64 83 68 88 94 100 100 86 84 80 67 65 66 64 61 53 49 51 46 51 54 80 82 84 75 76 71 80 82 83 79 77 79 74 67 61 59 59 53 51 63 62 60 48 32 31 32 35 38 39 36 37
18 29 62 81 70 87 98 98 99 98 82 64 64 69 68 65 58 59 70 59 67 56 78 86 85 76 74 70 74 84 80 84 78 83 85 74 63 55 63 65 63 59 69 68 64 45 35 34 37 42 41 36 35 34
18 35 60 84 71 78 96 100 99 100 72 59 64 66 69 60 63 68 61 68 76 78 88 96 90 73 76 74 82 75 82 79 81 87 74 60 55 55 64 65 66 70 75 73 58 43 37 39 47 43 36 36 41 48
19 35 64 84 76 74 91 99 98 94 71 61 67 65 75 78 76 73 65 70 49 60 81 79 94 80 78 76 75 79 73 72 96 87 64 61 44 50 62 66 67 69 71 60 48 41 39 48 46 37 36 46 52 53
20 37 70 85 79 79 99 99 100 97 71 70 60 77 80 66 70 67 53 63 62 64 74 70 77 74 84 87 72 80 91 96 74 61 60 38 40 49 62 66 66 62 56 53 45 42 48 46 36 32 42 49 52 50
21 50 77 82 80 85 99 100 100 94 80 71 61 72 66 80 80 83 71 75 71 78 57 50 82 82 81 82 91 89 72 64 63 76 37 40 43 50 57 62 62 60 58 49 45 48 41 35 36 42 46 48 41 38
24 67 54 82 84 92 95 100 100 99 95 96 74 59 55 57 64 63 69 60 68 68 76 71 67 59 82 84 79 69 74 64 44 38 43 43 43 49 58 62 63 61 50 47 43 35 34 40 46 47 36 33 41 48
26 36 56 85 93 100 100 100 98 100 98 98 86 65 68 52 53 63 67 69 85 70 48 61 54 83 76 62 63 69 49 36 39 41 48 48 52 56 60 61 52 44 41 33 33 36 40 43 34 32 39 46 51 59
25 27 71 92 95 99 99 99 99 98 95 90 86 73 71 68 64 51 61 67 76 67 40 60 68 73 60 55 54 37 34 34 49 55 53 53 55 51 45 40 39 31 30 33 37 40 36 31 36 46 55 60 61 61
31 44 85 100 97 98 98 99 95 88 99 84 77 77 72 66 64 68 66 72 81 57 56 73 51 30 21 14 15 16 18 25 34 50 54 52 49 44 40 33 28 31 36 38 40 31 31 38 50 59 62 62 60 59
88 76 93 100 100 99 96 98 98 94 71 73 78 81 80 84 84 88 85 88 80 58 75 25 18 15 15 15 16 16 18 21 24 23 32 50 46 43 32 28 32 37 40 38 30 33 40 50 57 58 54 54 59 63
97 95 99 100 99 99 97 98 94 93 85 91 88 72 85 90 84 83 84 86 68 53 34 19 14 16 16 16 16 18 18 26 28 26 34 36 35 29 29 32 37 40 37 29 32 40 50 56 56 54 56 60 62 66
98 100 99 98 98 98 97 96 94 96 98 100 95 87 88 81 72 72 73 62 57 41 31 20 18 20 19 19 21 22 24 25 22 21 25 26 23 27 33 37 40 35 28 32 39 49 57 56 54 58 59 63 65 68
99 98 98 98 97 96 97 96 96 96 96 95 93 92 96 91 82 84 84 51 33 36 26 18 22 25 26 24 22 24 26 28 21 22 21 19 24 32 36 39 32 27 32 39 47 55 58 55 58 59 60 63 67 70
98 97 98 96 97 96 96 96 95 95 94 92 92 97 96 94 90 90 84 48 26 25 22 23 26 23 19 20 24 28 28 27 20 18 21 27 30 33 36 30 25 30 37 45 52 58 55 58 58 59 62 63 66 74
98 97 93 94 96 94 93 95 95 94 92 96 90 93 90 91 84 76 74 30 22 20 19 18 22 24 20 19 21 25 25 26 23 20 22 27 32 34 23 22 30 34 42 46 56 54 57 56 57 58 60 63 69 74
96 96 97 95 90 95 85 76 73 81 86 88 94 98 90 74 72 64 25 20 20 18 18 15 17 18 19 20 21 25 25 22 21 22 25 31 28 22 27 30 33 38 42 52 53 56 57 56 57 58 63 69 72 76
96 95 92 95 79 69 79 81 82 76 77 75 74 80 76 70 58 24 17 19 21 23 19 17 20 22 19 19 22 25 23 24 28 32 34 26 20 24 29 36 38 41 52 54 56 58 57 58 59 63 66 70 74 78
96 93 80 99 100 90 88 81 78 64 53 64 68 78 71 43 38 26 22 24 29 27 25 28 27 23 23 24 27 22 20 22 24 30 24 17 20 24 34 39 41 51 55 54 59 58 59 61 64 68 72 74 78 80
91 81 91 95 94 91 85 94 86 86 56 52 53 57 53 46 38 37 37 30 31 32 31 31 26 25 23 26 27 25 26 26 28 20 12 13 17 25 34 38 48 55 54 60 60 62 64 68 71 76 79 81 84 84
83 83 91 93 95 91 96 96 92 83 72 64 61 58 57 57 48 44 42 35 32 35 46 46 33 29 28 27 21 25 32 31 24 16 15 19 25 32 35 45 54 53 59 61 62 66 70 75 80 84 86 88 87 86
80 85 93 100 99 100 100 94 87 84 77 72 65 64 61 54 49 50 45 36 36 46 51 43 34 30 27 21 20 21 20 17 13 16 20 26 32 35 45 52 52 57 62 63 66 71 76 80 84 87 89 90 88 87
95 92 94 97 98 99 98 97 95 97 94 93 88 80 66 48 60 42 44 43 39 41 42 38 31 26 23 25 29 24 17 17 19 21 27 34 38 46 51 52 57 62 63 67 72 76 80 82 84 86 89 89 89 88

GFSWCAN_850_rhum_081.txt.gz
RH
86 82 15 43 66 87 80 61 62 84 80 79 83 82 78 72 66 62 60 58 63 74 84 82 76 72 67 60 49 60 60 56 46 47 46 49 43 46 48 46 47 50 49 46 49 53 50 43 52 50 46 53 51 54
85 89 16 34 67 88 66 66 64 89 82 74 77 71 73 67 66 61 62 62 58 61 78 74 73 71 69 71 71 63 59 56 52 44 46 45 45 47 46 38 49 48 47 43 44 41 42 45 47 58 57 51 58 58
84 90 16 32 72 86 65 69 61 92 81 74 77 76 75 64 64 66 63 57 57 68 73 74 76 70 70 70 67 66 60 65 64 57 47 48 49 45 41 40 47 47 49 48 48 38 43 47 51 59 62 61 66 68
82 90 15 36 68 57 56 60 52 93 80 89 76 79 78 72 64 58 58 60 58 65 57 69 65 65 66 65 63 62 64 63 58 63 52 47 47 55 44 48 48 46 53 47 46 39 47 50 54 57 64 65 65 65
83 90 16 37 66 63 51 58 44 94 84 90 89 81 78 79 75 61 55 53 52 67 62 67 68 66 65 63 62 63 65 66 64 60 58 51 55 56 52 56 50 48 42 48 34 44 45 52 60 60 68 72 74 71
84 89 16 35 63 56 45 32 34 81 82 77 72 78 78 77 75 68 69 51 59 59 74 70 67 66 66 65 65 65 62 59 63 62 59 64 70 65 60 45 34 44 51 52 42 55 60 57 54 56 72 75 71 67
91 89 15 32 50 51 70 58 73 42 86 84 77 81 76 79 76 73 62 53 50 52 66 80 76 66 64 63 61 60 58 56 62 66 61 58 68 77 62 51 37 42 53 60 60 57 64 61 66 62 70 72 69 65
82 91 14 31 42 69 88 73 63 39 65 90 80 84 80 77 81 66 51 50 50 44 50 100 91 70 67 66 62 57 60 62 68 64 65 56 64 66 68 45 47 50 55 66 68 62 62 56 60 66 68 70 64 45
83 87 16 31 42 83 90 74 64 49 82 91 87 87 79 78 70 62 53 52 51 41 71 84 97 90 68 75 72 67 60 62 67 60 56 64 54 73 48 41 45 57 56 62 69 67 64 61 56 55 52 39 34 43
86 88 17 38 49 87 98 70 70 97 95 90 90 78 74 70 70 58 49 50 50 43 40 71 78 82 75 70 66 64 67 60 85 60 74 68 60 48 49 40 42 50 58 57 70 74 65 54 42 41 34 34 37 39
87 88 20 52 57 89 96 97 92 99 97 86 71 60 60 66 56 54 59 65 58 67 64 77 84 77 73 74 65 69 85 76 81 77 70 67 59 47 55 56 52 43 53 59 60 54 48 36 34 33 36 40 40 36
89 88 24 55 61 89 91 100 94 90 86 68 56 58 60 61 61 74 84 64 68 67 73 75 78 79 70 65 67 75 82 78 79 74 78 74 60 59 54 60 58 53 59 60 60 52 39 34 33 38 43 41 35 33
93 86 27 54 65 86 89 96 93 94 78 59 60 59 60 71 77 74 70 73 74 67 89 90 85 77 72 76 76 72 85 80 70 81 74 64 55 59 61 59 60 62 64 67 65 54 42 36 40 46 42 35 34 41
95 88 30 52 70 79 98 98 99 100 65 59 57 71 84 82 71 72 62 78 73 83 90 84 86 74 76 74 66 80 62 64 82 86 69 68 50 53 57 59 62 64 69 72 66 50 41 39 46 45 35 36 42 46
98 88 30 60 77 78 94 100 100 99 66 67 67 82 83 68 69 60 49 56 60 88 87 74 78 66 77 81 62 76 83 88 74 69 75 56 42 46 53 58 64 68 71 69 55 47 40 45 45 34 34 41 44 42
100 59 29 48 82 81 96 100 100 100 76 74 75 84 70 76 84 87 71 77 55 88 70 61 78 80 78 74 83 86 73 74 75 85 55 38 41 45 49 57 62 64 59 55 51 44 46 40 30 34 39 39 30 33
100 58 49 47 84 86 97 100 99 99 75 97 93 70 66 65 71 65 68 64 48 76 80 74 77 68 77 79 76 66 80 80 60 41 37 36 35 40 48 56 59 58 59 54 46 44 32 31 37 39 31 29 36 45
97 88 43 59 91 96 100 99 98 100 99 99 95 81 68 62 64 61 51 57 61 73 63 76 66 78 78 72 70 74 54 40 41 39 40 39 38 42 49 53 59 60 53 45 36 29 32 37 36 29 32 42 47 50
97 82 55 83 94 100 99 99 100 99 99 99 95 76 66 60 54 51 50 55 66 68 47 58 76 82 67 59 61 34 35 30 39 49 47 45 45 47 53 58 56 44 39 29 30 33 36 32 29 36 48 50 51 53
100 98 77 96 100 96 99 99 99 90 99 92 92 90 74 69 62 62 58 61 76 69 77 82 63 42 28 17 16 16 19 24 31 46 50 50 50 52 49 42 39 33 29 31 34 36 30 30 38 50 52 50 52 56
99 97 99 99 100 98 91 98 99 94 84 76 81 84 86 83 79 87 97 87 95 90 82 50 31 23 20 18 16 17 22 23 25 20 23 41 45 45 40 39 31 30 33 35 37 29 30 40 51 52 49 52 56 57
96 95 100 100 99 99 98 99 89 91 86 97 99 84 96 96 97 94 89 100 93 68 50 40 31 28 29 24 15 18 22 23 26 24 24 25 35 37 38 31 28 33 36 36 29 30 38 48 51 49 51 54 55 59
98 99 98 99 99 99 98 98 95 95 96 97 100 91 91 94 84 78 96 91 76 54 48 43 36 30 31 25 18 21 24 27 27 24 24 29 29 29 28 26 32 35 35 29 30 36 45 50 51 52 52 53 55 59
98 98 99 98 98 96 97 98 98 98 97 94 93 89 88 89 88 96 89 60 52 49 49 43 40 38 41 34 20 21 25 28 28 21 26 24 26 26 26 31 35 36 28 28 34 41 48 50 52 52 52 54 57 60
98 98 99 97 98 95 95 95 92 93 92 92 91 87 93 94 92 91 82 64 50 43 42 41 40 39 37 30 21 23 28 26 23 19 21 20 16 21 29 34 36 28 26 32 38 45 52 52 54 52 53 56 58 62
98 98 94 90 93 89 88 94 94 91 88 94 90 86 88 90 94 87 71 45 49 41 40 37 33 34 33 30 20 22 25 25 25 19 18 16 17 20 23 28 22 20 29 35 40 51 53 54 53 54 55 58 61 64
98 97 98 85 86 90 84 77 76 80 90 87 90 95 93 91 84 70 38 38 40 38 39 40 31 30 25 24 22 23 24 28 24 19 17 17 22 30 32 21 20 26 33 38 46 53 54 54 54 56 57 59 61 63
96 94 93 96 94 83 87 82 88 85 76 68 77 94 88 77 64 38 34 34 35 36 32 36 38 31 32 25 20 22 30 31 27 24 23 24 26 32 23 18 23 32 36 44 51 53 55 55 56 58 60 63 65 67
95 93 81 96 90 85 83 78 76 60 50 68 69 60 67 40 39 37 34 31 26 25 28 30 38 39 39 35 30 26 27 25 24 26 26 26 28 26 17 19 26 35 42 51 53 56 55 57 60 62 64 68 72 73
98 87 88 89 91 87 73 54 61 52 53 49 48 46 46 44 42 41 40 30 24 24 24 33 44 42 35 37 32 33 33 28 21 19 19 18 18 15 16 19 29 39 50 52 56 56 57 60 63 66 70 76 79 82
94 88 88 82 87 80 70 64 67 75 72 60 59 66 57 52 47 44 42 39 40 46 45 38 47 48 41 38 31 28 37 30 23 23 22 17 14 13 16 26 36 50 51 55 58 58 61 64 67 71 77 82 86 88
86 84 88 92 94 93 86 87 91 90 85 81 75 77 68 66 70 48 43 46 53 49 50 50 46 40 42 37 33 32 26 23 24 26 21 13 13 16 25 34 48 51 54 59 58 61 65 66 68 73 79 84 88 89
95 91 93 95 100 100 100 93 97 95 94 91 80 78 76 71 73 51 51 54 53 46 51 51 47 48 45 42 34 28 23 24 25 22 16 16 21 27 34 46 49 54 59 58 61 65 65 63 67 72 76 82 85 85

GFSWCAN_850_rhum_084.txt.gz
RH
84 100 91 69 27 68 61 37 80 78 84 84 88 77 67 64 63 58 64 68 64 71 77 76 68 68 64 63 63 61 63 62 62 58 60 57 57 55 57 46 51 59 68 61 59 62 67 47 50 52 54 51 51 53
80 99 92 73 24 63 57 39 80 82 67 83 74 69 68 63 62 58 57 64 63 61 71 68 67 65 64 65 65 59 61 57 65 66 58 55 57 54 51 54 50 61 57 63 53 60 46 45 52 55 51 52 56 56
74 98 98 77 24 63 55 40 73 82 68 70 74 71 67 67 64 61 60 58 59 62 68 69 72 68 68 68 66 68 61 62 64 58 62 63 63 57 57 53 47 48 48 64 56 45 48 45 47 52 53 56 57 59
76 94 97 79 22 64 58 32 62 76 78 65 70 72 74 76 66 56 56 58 60 64 66 69 64 63 65 64 62 60 61 62 58 57 60 66 62 54 62 60 60 56 56 56 56 47 47 46 49 52 56 58 60 63
83 89 98 84 24 57 52 42 46 85 80 72 63 67 71 74 71 58 54 55 52 69 70 69 64 64 64 65 64 62 62 62 66 67 81 75 59 66 60 68 75 54 61 68 58 47 48 55 54 54 61 64 67 71
80 86 100 82 24 53 45 46 28 83 82 76 69 64 67 67 72 67 68 52 60 61 77 90 67 61 62 65 66 64 62 60 60 65 66 64 65 68 85 72 41 39 41 45 48 49 52 54 51 52 64 70 70 70
83 86 99 76 26 50 38 41 30 54 84 76 70 66 64 66 70 70 58 52 52 52 69 86 86 68 65 64 63 63 60 59 60 66 67 62 70 66 85 85 41 42 46 50 52 51 58 58 62 59 63 68 70 68
85 81 93 74 25 52 41 72 75 44 65 87 75 76 76 73 70 71 56 45 51 45 50 98 98 72 67 68 66 58 61 60 63 65 64 65 67 72 91 65 40 39 48 55 57 59 59 58 62 62 64 67 66 48
90 85 94 67 24 49 65 66 62 60 42 89 90 88 79 78 75 68 59 50 49 46 64 91 99 98 69 72 68 61 59 86 69 80 68 67 80 88 68 52 47 46 42 47 64 59 60 59 62 56 56 49 33 37
92 82 95 63 32 70 80 69 74 64 64 92 97 82 83 74 70 63 53 46 50 47 44 86 78 94 75 72 71 70 66 90 91 82 72 88 87 53 46 45 41 42 46 54 61 72 66 62 55 47 38 35 35 39
99 89 93 67 32 84 86 72 78 98 94 93 80 70 60 66 64 53 52 66 62 72 61 74 84 87 75 92 90 68 97 94 95 92 87 93 89 64 45 49 37 38 45 50 54 52 54 52 44 39 35 36 41 40
99 93 93 74 34 82 99 100 97 93 91 82 66 60 62 63 59 69 88 76 79 85 71 79 75 78 66 69 74 74 94 91 93 79 94 96 85 56 50 51 49 44 49 58 58 52 45 38 34 34 37 41 41 35
96 98 97 76 32 76 97 99 97 92 79 62 60 61 69 67 88 82 79 87 90 69 76 80 89 72 67 70 78 84 96 94 70 95 94 81 63 58 55 56 59 61 57 60 58 54 47 41 36 38 42 41 34 33
99 98 100 80 34 67 89 92 96 88 65 59 59 74 82 91 89 88 88 91 71 74 75 85 80 78 75 84 78 93 76 71 92 98 82 88 52 48 55 58 57 60 60 63 63 60 52 41 37 43 43 32 33 38
100 100 100 72 36 63 89 93 100 99 80 64 70 86 90 68 73 69 59 49 45 63 83 78 77 70 90 90 79 87 86 97 90 81 84 62 50 43 51 56 57 56 61 67 68 62 49 40 42 44 31 33 38 34
100 100 99 74 45 72 92 100 100 100 97 72 77 93 77 79 90 70 56 68 57 82 72 63 87 92 93 93 90 91 88 82 74 88 51 44 48 46 45 50 52 56 64 67 64 52 46 45 43 31 34 36 27 28
100 98 97 76 75 85 94 100 100 99 98 90 98 78 78 70 77 59 55 57 54 77 95 86 86 72 88 95 94 84 87 81 64 36 37 38 40 41 44 48 54 60 62 55 53 49 45 38 29 33 34 26 28 38
100 97 100 93 94 97 100 100 99 100 99 100 99 79 75 63 57 54 51 53 62 70 71 80 64 82 85 85 83 81 46 33 33 28 30 37 39 42 45 47 54 55 55 56 50 44 30 28 32 31 25 29 36 38
97 98 100 98 95 99 98 99 100 99 99 99 97 84 82 68 62 57 49 45 58 68 58 54 88 90 84 67 59 37 22 23 27 29 34 37 38 42 46 53 55 55 56 47 38 27 28 32 30 27 33 40 38 42
100 100 100 99 99 98 99 100 99 96 99 90 95 93 81 70 63 58 60 60 68 72 74 89 79 58 38 20 18 16 19 19 22 32 42 42 41 46 50 51 54 53 43 33 26 29 32 30 25 32 42 40 42 50
100 100 100 99 99 99 89 99 100 100 95 86 76 89 85 87 80 79 85 85 88 87 96 55 36 26 22 21 19 19 19 23 21 22 28 34 39 46 54 57 51 39 31 25 28 32 32 25 31 43 43 41 49 50
99 99 99 99 98 99 100 97 86 92 93 99 100 91 98 99 98 91 90 100 96 65 57 52 44 40 36 32 29 28 27 27 24 26 37 34 38 44 49 43 38 32 24 26 29 32 25 27 38 45 41 46 50 50
99 99 98 98 99 99 99 99 92 97 99 99 100 100 98 96 87 85 99 98 84 64 53 52 48 48 47 44 40 36 32 30 22 25 34 31 30 31 34 34 35 27 25 28 32 27 25 33 42 43 44 49 49 49
99 98 99 99 98 97 98 98 98 100 97 99 98 98 94 93 98 100 99 89 56 51 50 42 51 58 56 52 48 44 37 33 28 26 33 32 30 33 33 31 30 27 30 32 30 24 29 37 43 43 47 49 50 49
98 98 98 98 100 95 96 97 98 98 96 96 95 92 99 95 96 96 97 74 44 45 43 41 43 47 50 45 42 42 40 37 31 24 30 30 31 34 32 31 29 28 31 30 23 25 34 42 45 47 49 51 52 51
97 98 96 90 96 90 93 97 96 93 95 99 94 92 83 94 98 86 91 42 39 40 41 41 38 48 50 42 46 44 39 38 36 32 28 25 24 24 20 18 20 25 27 23 22 30 37 43 46 49 50 53 55 54
97 98 100 88 83 82 86 78 78 92 93 94 97 96 93 90 89 81 37 33 37 34 34 36 39 40 38 38 38 42 42 40 36 30 28 26 24 23 18 15 17 21 17 18 26 34 39 44 48 51 53 57 58 58
95 96 94 97 93 80 92 94 92 87 88 73 81 93 86 82 75 34 32 30 32 31 31 36 40 45 45 49 48 46 46 42 42 38 33 28 26 22 23 25 25 19 17 23 31 38 46 48 51 53 57 60 63 64
97 90 86 98 96 85 88 87 86 64 55 70 78 79 82 41 33 33 34 34 34 33 33 34 38 46 51 53 54 48 48 41 41 40 29 24 25 24 25 28 24 15 18 27 36 48 50 52 54 58 62 65 68 70
98 80 91 92 93 92 78 58 59 49 52 49 47 46 42 40 39 39 38 38 38 38 37 37 38 35 41 44 58 90 76 48 39 30 25 21 19 21 22 27 19 14 23 32 45 49 52 54 57 62 66 70 74 75
86 87 89 86 92 80 70 60 58 64 64 59 56 58 54 52 48 47 45 43 43 43 44 42 40 34 40 52 74 82 66 50 45 39 31 22 21 21 22 18 14 18 28 41 49 51 54 57 62 66 68 73 76 77
94 85 89 93 95 89 76 76 70 71 81 82 72 70 63 60 60 49 46 44 43 44 43 45 42 39 46 79 94 69 48 41 44 40 30 24 20 21 15 11 15 26 38 48 50 55 57 62 66 67 72 76 73 76
95 88 91 97 100 100 100 90 96 98 95 94 82 72 68 63 74 47 44 43 42 42 43 47 50 50 86 99 96 63 58 47 41 36 30 26 18 13 10 15 27 38 45 50 55 57 63 65 64 66 70 69 71 77

GFSWCAN_850_rhum_087.txt.gz
RH
68 82 94 99 84 26 48 41 86 84 88 78 73 70 72 67 62 61 60 62 60 61 67 68 68 67 66 68 76 63 65 65 74 70 70 68 68 62 62 50 52 66 74 73 68 68 54 50 53 55 52 52 51 54
54 90 89 98 89 23 35 32 80 89 80 76 64 66 73 66 60 57 58 62 61 59 64 66 65 64 64 66 68 63 65 68 70 79 74 71 65 66 59 59 55 55 59 64 59 61 47 47 51 51 49 49 54 55
63 82 93 97 91 21 36 32 72 91 83 71 60 62 69 68 61 62 63 59 58 60 64 64 64 64 64 64 66 69 66 63 67 62 73 74 69 70 67 68 53 53 55 60 54 46 49 44 50 51 51 54 59 60
78 81 96 93 90 22 39 39 58 77 80 75 63 58 60 65 60 56 58 61 61 63 70 64 60 62 65 65 63 61 60 63 59 60 69 79 74 61 71 64 68 57 59 63 66 54 48 47 47 48 52 56 59 63
87 91 97 87 92 23 43 33 39 73 81 79 70 66 61 62 60 54 55 55 54 69 71 62 61 62 62 64 64 65 65 63 67 68 85 80 72 71 76 76 87 61 68 69 63 47 49 52 52 54 56 59 62 64
82 90 99 88 91 27 44 27 34 62 80 78 72 69 67 64 63 58 57 51 55 57 72 90 69 66 62 64 63 64 64 63 62 67 72 69 67 67 89 89 57 47 43 40 46 47 48 51 53 52 56 62 67 68
76 86 99 97 83 27 42 31 29 37 80 81 68 66 65 65 64 61 52 47 47 49 58 83 92 73 67 67 65 63 62 61 60 67 69 71 70 67 90 92 51 38 44 44 46 47 54 54 53 55 60 65 66 66
76 75 93 99 82 28 38 33 32 34 62 78 78 72 72 71 70 70 61 43 42 48 47 98 94 72 68 69 66 62 61 61 62 64 70 68 70 76 92 72 55 45 48 50 49 51 52 53 59 60 60 62 64 59
69 81 94 97 90 31 40 40 53 71 57 74 91 79 77 74 70 68 64 52 49 49 48 96 91 90 70 74 71 64 63 86 74 81 79 72 84 90 67 54 50 43 42 42 55 56 59 60 57 60 61 61 49 34
71 76 94 87 92 28 35 66 58 64 75 88 97 83 79 75 72 69 62 52 48 50 49 77 81 87 71 72 75 75 73 93 90 82 76 87 87 56 40 44 40 44 46 42 56 65 61 62 60 58 53 40 33 34
75 76 99 82 86 28 52 71 78 75 93 100 86 77 72 64 72 59 56 60 67 66 59 63 82 84 75 89 91 73 97 96 90 86 83 90 91 76 46 44 46 44 45 42 42 40 44 48 52 51 42 35 36 39
82 80 95 85 86 35 69 72 82 89 95 86 74 64 63 65 63 66 83 78 79 78 72 72 73 76 69 78 79 78 90 92 87 84 96 96 82 59 54 53 47 41 41 45 47 46 50 51 47 41 36 37 40 40
88 89 94 94 88 38 74 98 95 94 88 77 60 62 71 69 81 76 75 84 92 73 75 81 82 68 68 72 82 87 92 94 74 97 92 84 56 52 53 52 49 49 48 51 54 51 46 42 39 36 37 40 40 30
85 95 95 100 95 43 94 100 92 96 81 58 60 73 82 87 89 86 86 82 61 58 63 71 78 76 78 82 85 82 80 76 92 100 80 84 46 52 51 50 55 58 60 58 54 52 49 46 41 38 41 40 29 32
89 97 100 100 98 51 97 95 99 91 71 63 69 82 90 63 79 74 69 48 51 56 68 77 77 72 92 91 85 86 89 93 88 72 81 51 42 46 52 51 53 58 60 60 59 59 57 47 39 41 40 29 32 31
100 100 100 100 99 68 97 100 100 98 93 74 78 94 85 82 83 67 65 47 45 64 73 69 90 96 92 92 93 89 83 77 67 88 34 34 34 42 48 51 54 56 57 61 65 65 56 46 43 40 28 32 27 24
100 99 97 100 100 93 99 100 100 99 99 99 98 76 70 67 68 62 52 46 53 78 91 88 85 70 84 98 98 88 86 78 45 33 29 28 26 34 46 51 55 60 65 68 68 60 50 46 40 27 31 27 23 32
99 98 99 100 99 98 100 100 99 99 100 100 99 86 78 70 56 64 62 53 64 74 78 79 60 80 82 77 83 80 50 28 24 18 17 19 26 36 43 47 53 59 65 66 57 53 48 40 26 29 27 21 29 35
99 99 100 100 98 99 99 100 100 99 98 99 98 84 77 70 65 49 42 47 51 59 59 68 84 81 71 70 61 26 30 27 18 19 18 18 20 28 36 46 57 60 60 56 55 49 38 28 29 27 21 27 34 35
100 100 100 100 99 98 99 100 99 99 99 96 99 93 82 71 61 62 61 54 62 71 72 91 77 48 38 22 19 18 18 19 18 20 20 24 22 28 30 38 48 57 58 60 53 39 26 28 28 23 26 34 34 38
100 100 100 99 99 99 98 99 100 99 94 90 92 90 90 89 78 72 73 72 88 84 91 46 41 37 34 31 28 25 22 22 21 22 23 26 27 29 39 43 57 61 60 56 43 27 27 29 25 24 33 36 38 44
99 99 99 99 98 99 99 98 90 99 99 99 100 91 99 100 95 86 77 98 95 70 58 54 46 42 43 40 38 35 32 28 27 30 31 32 32 30 40 47 52 59 60 46 32 24 28 28 22 28 35 36 42 45
99 99 98 97 99 99 99 99 87 99 99 100 100 99 100 95 80 81 96 95 80 69 66 60 50 49 54 51 54 50 48 46 44 41 40 39 35 33 39 42 48 51 51 38 28 28 28 26 24 32 35 37 44 45
99 98 99 99 98 98 99 99 98 97 97 97 99 100 98 97 100 100 99 91 55 44 43 40 56 65 63 61 61 52 49 54 53 51 48 42 35 35 39 40 47 48 40 31 25 28 28 23 29 35 37 43 45 45
99 98 98 98 99 95 97 97 97 97 96 96 97 99 100 100 100 100 96 80 42 41 39 38 47 49 51 43 45 40 41 47 50 49 46 47 40 40 44 46 48 44 38 29 29 28 23 23 32 38 41 46 45 46
97 98 96 92 97 89 93 97 96 96 96 98 89 89 90 95 99 86 90 45 40 37 36 36 35 39 42 38 40 39 36 42 50 52 44 46 44 40 38 39 43 40 35 28 27 26 18 24 34 39 44 47 47 48
97 97 100 93 82 84 87 84 86 91 95 94 98 98 93 90 86 79 41 35 37 29 29 30 32 34 34 36 38 39 44 49 54 51 48 49 48 42 37 35 30 24 21 22 21 18 17 28 36 42 47 48 49 51
97 99 97 97 91 78 94 95 94 90 89 83 83 100 86 78 75 42 31 28 28 29 31 32 32 33 35 40 46 51 53 56 58 57 54 55 51 51 44 40 38 25 23 20 15 16 25 34 41 46 49 50 52 56
99 94 86 98 97 88 90 89 86 70 65 78 74 82 81 51 37 33 34 35 34 34 34 34 34 34 35 38 41 42 51 58 58 57 57 51 50 47 43 42 32 23 24 16 18 22 34 42 46 50 52 52 55 61
99 85 92 91 93 90 80 60 60 50 52 51 48 51 46 40 36 35 36 37 37 38 38 39 40 40 40 41 41 43 48 54 54 55 52 52 42 38 34 34 27 25 20 20 24 28 40 44 48 51 54 56 60 66
89 89 91 91 91 82 73 63 56 60 59 56 52 53 48 44 42 43 44 44 45 45 44 43 42 42 43 42 43 43 43 43 70 94 97 72 50 39 31 27 26 23 20 30 24 35 40 47 52 54 56 58 62 74
91 88 92 95 96 92 84 75 71 72 75 75 68 64 60 61 60 51 47 46 45 44 42 42 42 39 40 45 47 43 39 62 99 96 92 62 48 36 33 26 26 23 42 25 33 42 48 53 54 56 57 59 66 75
95 88 91 94 100 99 94 83 93 96 96 97 81 70 67 62 71 47 44 43 42 41 41 42 41 41 46 49 48 50 80 98 88 62 72 57 44 32 26 25 23 46 25 30 40 45 51 54 57 56 56 61 69 76

GFSWCAN_850_rhum_090.txt.gz
RH
81 91 93 99 84 54 34 29 73 84 84 78 66 66 61 59 54 48 61 60 61 55 66 65 67 70 69 72 74 65 68 64 74 71 72 71 74 65 61 56 51 56 73 76 74 71 54 52 57 52 43 54 50 55
57 94 96 99 83 70 32 26 62 77 83 69 68 68 64 57 54 52 51 56 58 59 59 63 62 61 60 64 68 67 72 73 75 82 79 80 70 74 64 56 55 67 59 62 61 58 42 50 45 45 44 46 52 52
68 92 87 100 87 78 24 26 45 75 79 75 70 70 67 60 53 46 47 57 57 60 62 63 63 62 60 59 61 66 68 64 72 66 77 82 74 75 71 73 56 54 59 67 55 40 54 44 47 49 48 49 52 53
95 100 89 98 96 79 24 32 35 67 77 78 69 71 71 69 60 56 54 55 54 59 70 62 58 61 65 68 65 59 57 62 62 65 72 83 80 65 75 66 73 57 62 65 68 57 51 48 46 47 51 51 55 59
100 100 100 100 97 80 26 35 29 48 73 81 77 71 70 69 66 58 53 53 52 51 63 55 56 61 62 62 66 68 68 68 68 71 88 82 75 78 79 82 90 65 70 65 59 42 45 46 48 50 52 55 58 61
91 91 95 100 98 90 39 35 26 34 64 77 78 74 73 70 66 62 57 52 49 53 55 85 68 70 67 65 66 66 67 66 65 70 72 73 71 67 87 90 60 48 45 42 42 38 44 48 53 54 56 58 62 65
96 73 76 100 100 95 66 31 28 31 43 73 82 82 76 75 71 66 54 46 40 47 53 68 80 73 66 66 66 65 64 63 63 67 79 74 72 73 90 91 48 35 39 43 45 47 55 53 50 51 54 60 66 68
98 81 67 98 100 93 85 26 33 26 31 72 75 71 75 76 77 75 68 56 39 47 45 94 91 70 68 67 68 67 64 66 67 66 78 75 73 83 94 72 55 48 46 48 49 50 48 48 54 57 62 63 63 63
100 85 64 88 100 100 86 23 38 33 39 57 79 75 76 76 73 75 72 64 51 45 47 88 82 77 69 74 74 71 68 86 77 84 82 77 84 89 68 58 47 44 46 48 55 55 55 55 57 60 60 62 60 52
100 93 62 71 98 99 93 30 46 58 72 64 80 83 79 75 76 72 66 59 52 50 52 77 67 92 68 76 76 78 79 94 91 81 80 94 90 61 51 52 53 46 47 49 57 67 65 65 61 58 56 55 44 32
98 97 72 73 94 100 91 44 68 98 93 84 86 78 74 64 73 64 59 65 60 70 58 60 75 86 76 88 91 80 94 96 92 82 87 90 89 75 50 48 44 44 49 46 46 39 40 42 48 55 55 44 35 35
100 98 72 80 93 99 77 75 100 99 86 76 74 70 58 67 66 67 85 77 86 79 78 76 80 73 74 79 79 84 88 91 90 84 96 95 79 41 45 48 50 55 53 48 46 42 39 45 50 52 46 37 36 40
100 99 85 80 96 99 72 88 100 92 86 82 64 58 63 73 81 81 74 86 94 72 78 82 91 69 72 75 85 87 90 94 79 95 91 81 45 34 44 51 49 51 54 52 50 47 48 50 50 45 38 37 40 40
100 100 96 86 94 100 77 95 100 99 84 63 59 74 81 91 92 85 81 80 53 59 72 68 81 76 79 85 86 81 76 79 93 100 73 82 28 37 37 55 53 51 54 57 53 50 47 45 42 39 38 40 38 28
100 100 100 97 100 100 97 96 98 96 79 61 68 84 90 66 66 66 59 68 69 58 62 70 80 71 94 91 88 87 91 93 86 72 78 24 31 30 34 49 48 50 56 58 57 52 49 48 45 39 40 39 28 30
100 100 100 100 100 100 98 100 100 100 89 75 76 93 85 85 87 83 81 49 54 64 61 63 93 93 90 92 93 92 84 76 66 86 24 23 21 22 27 39 44 49 54 58 57 56 56 54 47 42 42 29 30 25
100 100 98 100 100 100 99 100 100 99 99 100 97 79 72 70 66 64 62 59 52 66 89 86 83 70 89 98 98 85 84 76 32 22 18 19 17 17 22 36 43 46 52 58 60 62 63 56 47 45 31 28 27 22
100 100 100 100 100 100 100 100 98 100 100 100 99 88 80 76 62 59 59 52 61 72 63 78 61 87 85 82 84 80 52 31 26 19 16 18 20 20 21 30 42 46 50 56 61 67 67 55 48 38 29 29 23 28
100 100 100 100 100 99 99 99 100 99 98 99 91 80 78 79 74 57 50 52 50 60 56 62 83 84 72 73 65 26 24 22 20 19 19 18 22 25 26 24 37 49 53 61 68 69 59 52 44 30 30 24 24 32
100 100 100 100 100 98 100 100 99 99 100 98 95 94 79 68 64 70 67 56 67 68 72 90 74 54 42 26 24 21 20 21 23 24 20 17 22 26 29 30 28 40 57 66 70 64 57 52 33 28 28 24 29 32
100 100 100 100 99 100 98 99 100 100 96 94 99 95 88 88 77 73 71 63 82 83 94 45 32 27 33 36 37 38 37 35 32 30 27 23 25 27 31 33 34 41 57 64 65 60 58 46 29 28 23 25 30 33
100 100 100 99 99 99 99 99 94 99 99 98 100 91 100 100 96 84 77 92 90 69 56 53 48 43 46 47 45 46 44 45 43 39 37 36 35 36 36 38 39 39 46 60 63 59 54 34 29 28 22 31 32 36
100 99 98 98 98 99 99 99 94 100 97 98 100 98 100 97 87 83 90 88 73 62 59 60 56 54 54 48 50 49 52 59 60 56 54 52 50 49 48 45 43 38 43 53 62 63 49 31 30 27 26 36 34 39
99 99 98 98 98 98 98 98 98 97 97 98 96 96 97 97 100 99 99 92 63 55 54 56 61 62 63 63 59 47 42 49 55 58 51 54 58 56 54 51 46 39 38 46 60 61 41 31 31 26 31 37 35 42
98 98 98 98 98 96 97 97 97 97 96 97 98 100 100 100 100 100 100 86 48 42 41 42 48 47 54 47 46 39 35 44 48 48 44 48 53 56 56 55 49 43 46 54 65 57 36 30 31 26 36 36 37 44
98 98 96 94 97 90 94 97 96 96 95 97 94 94 97 95 98 87 85 47 40 42 41 37 36 41 43 38 37 34 33 38 47 54 41 46 49 52 49 51 50 46 46 52 61 49 32 28 28 26 36 36 39 45
97 97 98 95 83 85 87 86 82 92 95 95 97 97 89 85 85 78 44 38 36 33 32 30 32 32 30 29 30 34 40 45 48 50 49 48 50 50 50 50 46 44 45 46 53 42 27 25 25 31 36 37 43 47
97 98 94 96 88 78 94 96 95 89 90 83 81 95 88 80 77 45 34 29 30 32 31 31 29 29 30 32 33 36 38 43 49 54 53 52 49 49 50 51 53 51 48 41 41 33 26 27 58 34 35 39 46 50
100 98 87 99 95 89 88 89 87 75 69 81 79 85 84 54 40 36 34 29 29 30 31 31 32 34 35 35 36 37 39 41 46 50 53 50 51 52 55 49 52 52 47 40 34 29 25 58 43 34 40 47 50 54
98 92 93 92 93 90 80 60 66 58 62 58 52 52 47 42 40 38 36 35 36 36 37 39 39 39 39 39 39 41 41 43 46 47 46 50 55 56 56 50 51 46 36 28 20 31 82 58 36 39 45 49 52 58
93 91 91 91 92 81 73 67 58 60 62 59 55 53 49 43 41 41 39 38 37 41 42 44 44 43 42 41 41 41 42 44 46 44 46 63 68 63 68 59 57 42 26 21 38 84 54 30 36 42 48 52 57 62
96 91 93 96 96 94 83 77 74 70 70 70 62 64 59 57 56 46 43 42 42 44 44 43 43 38 38 40 42 43 45 46 45 43 60 80 89 94 70 55 52 35 27 24 50 42 30 33 38 46 51 56 59 62
96 92 93 94 99 98 96 83 90 95 93 94 84 69 64 59 72 48 47 48 50 45 38 37 38 39 40 42 43 44 45 48 45 57 90 98 100 74 48 50 43 34 26 43 39 29 32 39 45 51 55 56 58 62

GFSWCAN_850_rhum_093.txt.gz
RH
100 99 99 98 100 84 40 33 30 70 70 79 72 71 65 64 59 50 48 51 53 53 55 61 63 66 72 74 77 63 69 67 75 74 74 75 77 70 71 57 52 51 69 77 77 74 53 54 58 48 38 51 49 54
97 99 96 94 99 97 73 29 28 64 72 73 70 71 67 63 63 59 51 46 50 51 53 56 58 56 56 60 66 67 68 72 74 84 84 85 74 79 68 63 51 68 59 56 64 57 40 51 42 41 43 43 48 50
93 97 91 85 89 99 91 31 37 40 72 70 67 72 72 62 59 58 55 51 55 54 57 61 58 58 59 59 58 61 69 66 72 66 77 86 84 79 77 77 59 57 60 70 57 39 56 44 44 46 46 44 44 47
90 95 99 98 86 99 95 56 35 32 65 73 72 67 71 69 59 57 58 59 59 59 69 59 58 60 59 61 62 62 61 62 66 67 73 87 83 65 80 66 74 55 65 68 72 60 50 42 44 42 48 50 51 53
91 96 98 99 98 100 93 77 32 34 43 71 73 70 68 68 64 58 55 55 54 57 63 54 53 57 62 65 68 68 67 66 69 78 92 88 74 82 85 87 94 68 69 64 59 41 43 36 37 44 48 49 51 54
92 93 93 97 95 100 99 84 34 38 35 55 76 79 75 72 68 64 59 57 49 54 58 86 65 66 68 70 72 70 73 74 70 73 75 74 75 68 88 90 60 50 44 41 41 38 39 42 43 47 50 52 56 58
100 92 92 88 86 92 100 94 43 40 34 41 80 88 83 76 73 71 63 52 41 48 56 66 77 76 72 71 71 71 71 69 70 69 82 79 73 74 92 89 48 37 39 42 45 50 52 48 47 50 52 55 60 64
100 97 95 93 89 84 99 99 69 42 35 39 82 89 81 75 71 73 70 61 51 44 48 90 86 70 74 69 71 72 70 70 70 68 79 84 79 88 97 76 57 54 49 44 42 51 50 47 50 52 56 59 64 66
100 100 98 98 96 86 95 99 82 41 41 41 70 90 88 80 74 71 72 72 68 49 49 77 83 77 73 75 76 75 72 89 78 88 85 81 89 94 74 62 52 49 49 49 54 59 57 54 51 55 59 64 62 61
100 100 100 100 98 94 94 94 83 45 62 81 70 88 82 78 75 74 72 69 66 60 56 78 66 92 70 79 80 83 84 93 93 84 83 97 93 64 51 49 49 50 51 52 60 65 61 59 57 58 57 57 57 56
100 100 100 100 100 92 99 100 80 51 94 98 84 86 77 72 74 69 65 71 64 73 60 62 65 86 70 88 90 82 94 96 93 84 90 93 90 72 41 38 41 46 51 53 49 47 44 42 48 57 60 60 56 38
100 100 100 100 100 100 100 100 81 75 98 94 80 79 72 62 73 74 88 77 90 78 79 82 82 70 77 77 80 88 90 92 89 88 96 99 80 34 35 35 42 49 54 57 56 51 42 37 41 53 56 54 41 35
99 99 100 100 100 100 100 100 78 89 100 91 75 60 68 75 83 92 88 87 99 81 87 90 97 66 78 77 86 87 93 95 83 96 93 84 44 28 32 35 46 49 52 55 56 53 44 42 46 51 52 43 37 37
100 98 100 100 100 100 100 100 97 100 95 77 72 80 85 94 94 86 85 84 56 64 74 71 86 73 77 88 86 84 77 81 96 100 76 80 22 25 30 36 49 48 49 52 52 48 45 46 48 50 43 38 37 38
100 100 100 100 100 100 100 100 100 100 92 68 65 85 90 67 70 70 62 66 68 66 66 70 82 70 97 92 90 87 92 96 89 77 79 21 20 23 22 30 44 48 52 52 52 50 48 46 46 43 40 39 39 34
96 100 100 100 100 100 100 100 100 100 99 83 77 94 80 85 81 83 66 66 64 67 56 58 95 91 88 90 96 90 85 83 72 86 26 19 18 17 17 21 32 41 48 55 56 55 50 47 48 47 42 41 39 28
98 99 98 98 100 100 100 100 100 99 99 100 99 78 69 73 75 74 63 56 58 62 86 87 83 70 89 97 95 85 85 77 41 20 20 17 17 20 22 19 22 34 42 49 59 59 54 52 52 50 45 43 32 28
99 98 98 100 100 100 100 100 99 100 99 99 99 84 85 70 69 79 66 55 59 66 64 70 61 87 85 79 84 82 55 33 25 19 15 17 18 22 27 28 25 26 35 47 57 61 61 60 60 57 48 42 29 27
94 98 99 100 100 99 98 99 100 99 98 99 97 77 78 76 72 66 62 60 50 50 44 64 86 83 70 76 74 33 29 26 23 21 20 20 20 20 22 26 30 31 30 32 43 53 62 64 64 60 51 37 27 22
93 95 99 100 100 99 99 99 99 99 99 98 96 94 81 71 70 77 78 68 67 72 77 94 74 46 46 34 29 26 25 22 24 24 24 27 29 29 23 24 28 32 35 36 40 55 69 75 73 59 50 31 28 20
91 92 99 100 99 99 99 99 100 97 86 97 98 92 90 89 80 86 90 85 92 81 94 48 41 36 37 38 41 36 31 27 31 37 41 43 41 40 34 30 31 34 37 38 40 46 64 68 66 56 46 27 25 25
97 97 100 99 99 99 99 99 98 99 96 100 100 94 98 100 96 88 91 98 91 77 64 57 49 44 44 45 40 37 34 35 37 41 44 49 50 51 51 48 45 44 43 43 42 43 50 61 62 58 39 31 26 28
100 100 99 99 98 98 98 100 98 100 98 99 100 98 97 100 92 86 95 88 73 72 70 66 57 52 51 54 55 52 52 51 52 51 51 53 54 55 57 59 59 57 54 51 46 46 50 62 64 57 36 32 27 30
100 99 98 98 98 98 98 98 98 97 97 98 97 97 97 97 100 100 98 85 59 62 65 62 61 63 67 69 63 56 52 57 53 52 48 52 57 47 45 50 55 58 58 54 50 48 53 68 67 51 33 31 27 29
99 98 98 98 98 97 97 98 98 98 96 96 97 96 96 98 99 100 99 91 54 53 50 48 52 52 70 71 61 53 45 47 49 46 41 47 46 47 45 44 47 51 58 59 54 49 56 70 68 46 32 30 27 28
97 98 96 94 97 92 95 99 98 96 95 97 94 92 97 96 97 93 89 47 47 43 42 41 49 59 60 51 52 45 34 36 42 45 36 40 42 45 46 50 50 49 52 54 55 52 58 69 65 40 31 31 29 34
97 97 98 98 86 87 91 85 82 93 95 93 97 97 94 95 88 80 44 37 36 35 34 34 40 42 40 38 35 32 33 36 40 41 41 42 45 46 50 50 45 45 52 52 52 50 56 65 57 33 29 29 30 34
89 98 96 96 88 82 95 98 96 91 90 83 81 96 88 81 78 43 34 34 37 35 36 38 38 36 33 32 31 33 35 35 36 37 39 40 41 44 46 45 47 48 52 53 53 57 61 64 41 27 32 49 39 37
100 100 93 96 96 93 91 89 88 72 65 81 80 87 83 55 41 36 36 44 41 30 32 34 32 30 30 29 32 33 34 36 38 40 40 40 40 38 43 48 51 51 51 53 55 59 59 50 34 31 66 56 38 43
99 97 93 94 95 94 80 66 67 54 58 58 54 54 52 48 43 40 37 37 39 36 28 29 31 32 33 33 35 36 37 38 38 39 41 39 38 42 54 58 58 54 53 51 50 63 61 43 37 53 52 42 44 48
96 96 92 90 94 79 68 69 65 64 66 63 57 56 53 47 44 42 40 39 40 44 33 33 35 36 39 41 41 41 38 36 37 39 41 43 47 49 61 66 59 58 54 50 51 50 36 30 50 60 44 41 47 50
100 96 94 100 96 85 79 83 72 70 73 74 67 67 63 59 58 48 44 42 41 43 41 39 38 38 38 39 42 43 42 40 43 44 42 45 48 50 61 76 71 63 55 48 42 29 28 59 71 45 41 46 50 54
96 95 93 91 98 99 97 87 91 97 92 94 82 66 61 59 72 47 47 46 45 44 42 40 40 41 45 46 43 41 42 43 46 47 50 51 49 55 81 95 85 66 49 37 25 30 66 61 36 40 47 51 54 55

GFSWCAN_850_rhum_096.txt.gz
RH
100 92 96 91 50 67 73 53 32 41 79 78 70 67 66 65 59 58 57 56 52 50 48 46 53 58 68 74 75 59 64 67 73 70 73 75 80 73 75 61 51 52 64 76 79 76 55 53 57 45 36 47 48 52
100 94 91 87 64 75 78 73 30 30 72 79 72 70 66 64 64 60 56 54 55 58 52 50 51 54 57 57 59 63 63 66 67 84 86 86 79 83 71 64 56 68 56 48 63 58 38 49 41 39 42 42 44 47
99 98 91 95 88 84 80 84 57 31 37 79 73 67 69 63 60 59 59 59 59 58 55 57 50 51 54 58 62 64 69 66 68 64 74 86 84 82 80 84 64 58 61 68 58 42 58 41 40 42 43 42 40 41
98 100 94 94 96 98 93 90 71 33 30 58 79 71 67 68 63 58 58 59 63 64 71 54 54 60 57 61 64 67 69 69 70 71 75 88 85 65 77 67 70 52 66 68 76 60 50 41 39 37 42 46 47 48
97 99 100 96 98 99 98 92 85 38 33 30 68 80 71 68 68 66 60 57 60 63 70 54 54 56 61 64 68 72 72 71 75 80 92 89 76 81 86 90 96 69 66 64 56 39 39 34 34 36 42 43 47 49
100 97 96 100 99 95 91 92 86 68 32 33 37 76 83 77 71 69 64 64 53 54 58 86 63 66 67 72 72 76 78 80 77 77 77 76 78 69 90 92 61 52 48 44 43 42 43 39 39 39 45 50 52 53
99 100 99 100 100 100 87 88 96 83 33 38 36 68 91 88 78 75 66 60 49 46 53 68 73 78 77 76 75 74 77 77 76 72 87 81 77 80 92 92 52 40 39 41 45 50 54 44 42 45 49 52 54 56
86 98 100 100 100 100 100 86 99 98 48 37 37 70 89 89 80 74 69 70 63 51 50 86 83 70 78 73 74 77 76 77 75 75 83 87 82 91 98 75 57 52 49 49 50 49 53 50 49 49 52 56 58 60
78 90 99 100 100 100 100 95 99 100 64 40 40 68 94 90 83 74 71 74 76 64 51 77 85 77 78 77 78 82 75 92 80 91 88 84 91 96 75 66 54 48 48 48 49 49 56 60 55 54 55 57 59 58
75 82 100 100 100 100 100 100 99 100 64 51 52 80 90 82 77 76 72 74 77 71 64 80 66 91 74 87 88 85 86 93 94 87 87 99 94 67 53 47 48 48 51 52 63 61 63 63 56 53 50 52 56 59
88 92 100 100 100 100 100 100 100 100 71 92 70 72 81 78 77 74 70 78 71 76 62 69 64 90 68 90 91 80 94 96 97 87 94 95 94 77 38 31 36 36 40 45 49 53 51 48 48 50 53 57 61 60
86 89 93 98 100 100 100 100 100 100 77 91 70 78 80 73 76 80 91 78 90 81 73 78 70 73 74 73 82 96 94 94 95 89 98 99 83 39 35 31 32 35 44 51 54 53 55 48 40 41 50 57 58 57
74 82 84 100 100 100 100 100 100 100 98 93 82 72 70 74 90 99 99 92 98 75 80 90 95 71 79 79 87 91 96 97 85 99 94 84 48 32 30 28 29 40 49 51 50 59 58 49 43 42 52 57 54 46
84 85 99 100 100 100 100 100 100 100 100 100 88 86 88 95 94 87 88 84 60 62 78 76 81 79 80 90 88 88 81 83 98 100 83 84 36 21 22 23 34 38 47 53 54 56 55 50 44 44 51 56 49 39
52 76 90 100 98 100 100 100 100 100 100 100 87 89 91 69 69 68 63 57 61 67 75 72 79 73 96 92 90 86 92 98 91 80 81 33 21 19 18 19 28 35 41 46 51 54 52 47 47 50 54 48 40 38
48 83 91 95 99 99 100 100 100 100 100 100 94 92 84 82 84 76 74 74 69 75 59 55 93 89 86 90 96 90 86 83 75 88 36 20 18 18 20 19 20 29 38 43 46 47 50 50 48 48 46 42 41 39
68 97 91 95 98 100 100 100 99 99 99 100 99 92 70 71 68 67 64 61 68 63 85 84 80 69 90 97 95 84 85 78 42 31 26 18 17 19 23 25 24 24 28 35 40 46 50 52 49 46 46 47 44 41
80 76 79 96 98 100 100 99 99 100 99 99 99 98 86 70 67 81 72 59 69 64 59 74 62 85 84 78 81 81 54 34 31 22 18 16 17 18 21 24 24 24 26 29 31 41 53 55 53 50 51 51 47 45
63 80 90 91 99 100 99 99 99 98 97 100 100 91 83 77 71 63 68 61 59 61 46 59 83 84 70 71 74 41 29 27 23 24 18 18 19 20 22 23 26 26 25 28 32 34 40 48 50 53 56 58 53 48
87 91 95 98 100 100 100 99 99 99 99 97 100 99 84 73 66 68 73 76 72 75 82 96 76 49 42 27 27 33 32 28 25 24 21 22 23 27 34 40 41 37 29 30 32 35 39 47 56 62 64 64 58 51
87 83 80 91 100 100 100 99 99 96 87 97 98 98 95 88 85 90 95 95 96 97 95 65 50 40 35 30 30 32 35 36 36 34 32 32 31 30 30 33 41 47 42 37 35 38 40 41 44 57 67 69 62 50
89 83 91 93 98 100 99 98 99 98 100 100 100 96 98 98 97 92 97 99 92 80 73 70 63 58 52 46 43 40 38 38 38 40 42 42 40 39 41 47 54 55 56 54 53 51 47 44 47 56 73 74 64 47
100 100 98 100 100 98 97 99 99 99 98 99 100 98 97 98 94 91 97 88 76 71 72 74 71 66 62 55 57 57 55 54 52 50 51 52 54 56 58 54 51 53 52 51 58 60 58 53 52 56 72 77 64 44
99 99 95 97 98 97 98 98 98 98 97 98 97 97 97 97 100 98 97 73 62 63 66 68 67 65 68 72 70 59 64 67 64 62 61 63 63 54 47 44 45 44 48 52 57 62 62 59 55 58 71 73 62 42
99 98 98 98 98 97 99 98 98 97 96 97 97 97 96 98 96 96 98 91 61 60 57 56 58 58 72 70 71 67 58 62 68 64 54 56 52 45 40 38 38 39 44 49 49 52 58 60 58 61 70 70 63 41
98 95 95 91 98 94 94 98 98 98 97 99 95 93 98 96 96 92 92 52 55 52 47 46 52 63 70 62 57 57 48 49 61 64 49 42 36 38 37 37 36 36 42 46 49 53 58 61 59 58 69 70 60 40
97 97 98 91 85 92 92 86 85 94 98 94 98 97 95 96 95 84 49 39 40 40 38 38 41 44 43 40 42 44 47 53 56 43 36 34 36 38 39 38 39 44 47 47 49 50 52 58 58 58 69 71 55 34
90 97 98 98 95 89 93 98 96 98 91 83 88 100 95 89 80 44 34 33 34 35 37 37 36 40 41 38 38 42 44 40 38 37 36 34 33 35 36 37 41 45 47 49 50 52 54 58 59 61 68 69 46 33
100 96 94 98 96 93 92 91 90 75 66 85 88 90 85 60 44 42 37 34 37 37 38 36 32 33 36 39 40 36 35 34 34 35 34 32 33 33 38 40 42 45 49 52 52 55 56 60 61 67 71 62 37 36
96 100 96 98 95 95 82 78 70 59 56 57 56 54 52 46 44 43 41 39 37 36 36 38 38 37 34 37 36 32 31 32 34 35 35 33 34 38 41 42 44 53 57 58 54 57 60 66 73 73 68 44 42 77
77 100 96 95 95 75 69 68 69 67 66 66 61 61 58 55 51 47 44 42 41 39 39 39 40 42 36 33 33 32 33 36 38 38 38 39 40 41 43 47 49 62 63 59 56 57 58 62 66 57 42 42 86 83
100 94 96 100 98 83 76 77 78 77 70 76 70 66 67 67 63 54 48 47 45 44 42 41 41 41 40 37 33 35 36 37 39 41 44 41 43 45 47 50 52 68 70 62 55 56 61 60 47 35 41 92 78 43
98 96 97 92 96 99 93 82 95 91 95 95 81 68 68 64 65 54 50 48 46 44 43 42 41 42 42 42 38 35 37 40 43 46 47 47 47 46 47 50 55 78 83 66 52 54 58 47 33 51 76 62 42 44

GFSWCAN_850_rhum_099.txt.gz
RH
98 98 99 94 95 75 50 70 70 33 33 71 68 64 64 65 64 60 56 61 62 56 50 48 52 56 65 70 72 56 60 63 72 65 70 73 80 72 76 65 53 51 69 80 82 80 54 51 59 44 34 39 46 52
95 95 98 100 92 93 83 73 71 47 31 55 74 67 62 65 62 62 60 60 58 60 55 52 48 51 58 59 60 65 62 66 67 76 81 85 81 86 70 58 60 63 51 45 58 51 36 48 39 35 36 36 38 39
82 98 99 98 99 90 96 98 81 77 31 28 69 72 63 62 66 62 61 63 62 63 56 57 51 49 52 57 63 62 70 68 73 71 74 85 83 83 81 86 66 60 61 66 55 41 56 38 36 40 42 40 39 39
84 93 99 99 99 100 93 95 98 92 52 32 34 66 68 65 64 65 64 60 63 69 77 54 49 54 53 57 63 65 66 68 70 73 73 87 84 66 77 67 72 50 66 68 74 59 44 34 36 34 35 43 47 46
84 90 93 98 99 100 100 99 90 86 88 35 31 48 65 67 64 64 63 64 61 67 78 62 55 54 57 63 66 68 71 72 72 78 92 89 79 82 84 91 97 67 66 60 54 38 37 33 34 38 34 37 41 48
77 83 93 99 99 99 100 97 95 95 87 44 37 30 62 70 68 66 67 66 69 53 58 87 62 67 69 74 75 74 75 78 76 78 81 78 78 70 91 94 65 54 48 41 41 40 41 40 41 40 37 37 44 51
53 81 98 98 100 100 100 100 95 89 100 81 36 35 50 78 75 74 66 63 57 46 53 68 69 80 81 80 81 81 81 83 83 76 90 81 78 80 95 86 53 39 38 42 43 48 56 47 44 41 43 45 50 54
53 52 82 100 100 100 100 99 100 92 99 99 45 38 53 87 86 78 71 71 73 73 51 89 82 61 84 80 80 84 83 84 80 79 89 91 87 92 97 73 56 52 50 48 48 52 53 54 50 48 49 50 54 57
66 60 58 70 100 100 100 100 100 99 99 99 54 48 60 93 88 77 73 72 74 70 51 78 86 76 82 82 82 86 82 95 85 94 92 88 92 98 79 66 56 47 49 46 49 50 51 52 54 58 55 56 58 58
70 71 75 75 82 98 100 100 100 100 100 99 54 60 87 87 82 80 76 77 82 80 75 84 67 85 74 88 92 87 89 95 96 88 92 98 91 70 55 52 50 46 49 52 56 50 44 54 52 57 55 56 57 59
76 76 82 84 83 95 99 100 100 100 100 96 72 64 78 82 81 79 76 83 80 84 72 76 65 86 68 89 92 83 95 96 99 89 97 95 95 80 50 42 42 45 44 42 38 42 50 56 57 57 56 56 58 61
55 71 76 82 86 92 97 100 100 100 98 98 81 81 84 80 79 85 94 84 93 86 77 81 74 71 73 74 81 97 94 97 99 92 100 98 86 48 42 37 35 33 31 37 49 53 54 54 56 52 48 54 58 60
54 54 63 78 82 86 94 100 100 100 100 100 99 99 78 80 95 100 98 97 97 80 81 89 96 68 79 83 89 93 98 97 88 99 96 85 50 34 31 25 24 32 39 50 46 45 51 55 53 46 40 46 58 58
56 53 51 75 88 98 99 100 100 100 100 99 99 98 94 96 95 90 89 87 67 63 76 76 84 82 81 92 89 92 84 86 100 100 89 86 40 27 18 17 21 27 29 36 47 50 56 56 52 45 41 47 54 54
55 56 50 51 56 75 98 99 100 100 98 99 100 95 96 74 70 67 70 57 60 63 72 72 79 76 95 95 91 87 95 99 91 81 83 38 24 17 16 16 17 21 26 31 36 46 52 54 49 45 44 48 53 54
56 60 53 47 48 77 91 100 100 100 99 100 99 98 88 86 84 74 73 66 64 71 65 61 92 93 86 91 98 92 85 82 74 88 38 26 18 17 18 18 18 20 21 23 26 31 37 41 43 45 47 50 50 45
60 82 61 53 58 88 98 100 100 98 99 99 99 99 73 73 64 63 61 60 77 80 88 86 89 74 90 97 95 85 84 79 45 30 30 22 16 18 21 23 24 23 24 26 26 26 27 30 37 43 44 44 46 44
78 74 65 68 84 93 100 100 100 100 99 98 99 98 97 77 63 67 68 70 85 81 70 84 65 86 85 82 82 79 53 36 35 30 24 17 16 18 20 22 22 24 28 28 28 29 31 32 35 37 43 46 46 46
66 69 64 64 92 100 97 99 99 98 97 100 99 99 92 82 74 65 64 73 78 74 59 72 85 87 76 72 72 33 35 37 24 22 20 15 14 16 17 20 21 26 33 36 32 32 33 33 34 40 46 51 50 49
64 70 70 83 99 100 100 100 97 99 99 92 100 99 91 82 73 72 71 81 93 97 97 97 84 54 38 26 26 28 33 33 31 29 29 26 20 19 23 23 24 30 37 38 40 39 37 34 34 37 43 54 59 55
74 76 76 94 99 100 99 99 96 96 99 100 100 98 95 94 86 82 86 91 99 98 97 77 71 61 51 40 34 32 33 32 34 35 33 29 30 32 33 36 37 35 37 38 41 50 50 41 38 37 41 48 58 63
82 84 83 85 94 98 100 97 98 99 98 99 99 100 99 100 99 94 95 98 96 84 76 68 66 70 66 59 53 51 51 49 45 41 41 42 43 43 46 46 45 45 47 53 58 58 58 57 53 49 50 50 58 68
92 99 99 99 97 99 91 91 100 99 99 99 100 99 98 98 96 96 97 94 77 70 71 74 75 70 68 60 60 61 59 58 57 57 58 58 58 58 57 56 56 57 59 53 50 50 51 55 59 60 57 56 59 72
97 98 98 98 99 97 100 99 100 99 98 98 98 98 97 99 100 98 96 82 67 66 68 68 69 73 71 68 72 66 69 75 71 69 69 69 67 61 61 60 59 54 49 46 44 45 48 55 60 64 63 62 62 72
99 98 99 98 99 97 99 97 97 98 98 100 97 96 97 98 96 96 96 80 60 62 62 62 62 63 73 69 68 72 72 71 67 68 62 62 62 65 62 60 49 42 45 42 39 42 46 55 60 64 64 62 61 70
98 92 96 92 97 94 95 99 99 98 98 100 96 93 97 96 96 93 91 53 56 51 51 53 56 68 71 70 69 65 49 57 67 73 62 63 61 61 58 52 37 33 39 40 43 45 48 53 56 60 63 62 65 74
98 98 99 99 95 96 96 88 88 95 100 97 99 99 96 96 94 85 48 40 42 40 43 46 49 53 49 46 47 46 48 55 62 61 62 59 57 51 42 38 35 38 42 43 45 47 46 50 52 57 63 65 68 70
92 90 96 98 99 96 94 99 96 100 92 84 91 100 96 90 82 42 38 36 36 37 37 37 40 50 45 44 47 48 50 52 52 57 65 49 34 33 35 36 37 40 41 44 46 48 48 50 53 58 62 64 65 72
98 95 89 99 97 97 95 92 92 78 72 84 89 90 87 54 44 44 44 43 42 40 38 37 39 43 42 38 39 41 44 47 46 44 43 31 30 30 32 34 38 39 41 43 47 50 52 53 56 60 64 65 70 74
95 98 94 95 95 95 81 81 72 61 62 61 59 56 52 50 48 48 47 46 46 45 44 43 41 42 42 42 39 41 41 42 40 35 30 30 32 34 35 36 38 41 43 47 54 56 57 57 58 60 66 73 77 69
70 96 93 94 97 71 67 65 70 70 66 66 63 67 61 61 55 50 49 46 48 50 50 47 46 45 43 42 42 41 38 37 36 31 32 34 37 38 40 41 41 43 46 55 60 61 60 59 58 62 68 73 69 50
99 97 100 100 98 79 79 82 79 78 71 74 72 69 71 72 73 57 47 53 55 56 50 48 49 47 44 43 43 43 42 40 33 32 33 38 42 44 44 44 44 46 49 62 67 65 62 58 60 68 70 60 44 46
97 98 100 95 99 100 89 83 94 98 97 95 75 71 70 73 76 57 51 54 53 52 50 48 46 46 46 45 44 45 45 44 41 36 39 41 42 45 46 46 46 49 53 64 70 69 59 60 69 66 53 39 61 91

GFSWCAN_850_rhum_102.txt.gz
RH
85 85 93 95 86 89 90 86 80 69 40 29 56 67 64 61 59 56 50 54 60 59 51 49 50 54 61 67 51 56 57 59 59 49 48 45 52 46 56 45 39 36 44 50 54 58 52 43 56 37 26 29 43 54
81 85 92 99 92 87 88 91 96 91 70 31 37 67 69 65 63 58 56 56 55 58 54 50 51 49 53 54 56 62 59 62 59 48 56 56 53 59 46 32 47 44 32 28 37 29 32 47 39 39 32 39 39 43
69 76 92 100 95 93 89 90 96 96 81 50 32 52 68 66 66 64 59 58 58 58 57 57 52 53 54 56 61 64 66 59 67 63 59 59 59 53 49 51 50 42 46 41 40 26 37 35 31 33 36 38 38 38
71 79 95 98 95 96 96 95 96 96 84 77 37 34 58 69 65 66 66 62 58 60 75 58 49 52 53 55 63 68 65 66 68 71 69 61 58 56 48 45 46 30 48 40 42 34 34 36 40 36 39 37 40 46
56 64 80 91 94 93 100 97 96 96 79 71 60 38 36 63 74 70 66 63 63 57 69 63 53 53 57 60 62 69 74 76 75 79 77 70 67 66 62 69 63 46 40 41 34 28 28 29 33 36 36 38 40 46
48 47 56 77 97 96 98 100 100 99 96 73 70 40 39 43 80 83 70 66 68 62 56 72 58 66 69 69 74 77 78 81 76 81 75 78 75 68 69 64 47 53 45 38 32 34 35 36 39 39 40 40 40 41
40 43 42 50 71 97 98 99 99 100 100 93 90 58 38 40 80 86 75 62 54 50 51 67 71 77 80 81 84 84 84 85 83 83 86 79 79 80 76 61 40 43 42 42 41 46 52 44 48 46 46 45 44 49
45 47 50 55 56 72 100 99 99 100 100 100 95 88 43 40 65 83 79 80 80 77 61 89 84 63 86 87 84 85 91 90 87 84 90 84 86 85 86 58 55 53 53 50 46 46 47 49 51 54 52 51 53 57
59 62 66 65 66 67 69 97 99 100 100 100 100 95 46 48 70 82 79 80 78 74 63 81 83 78 83 86 86 90 87 84 88 81 80 85 75 95 69 59 60 54 52 52 48 51 51 49 44 48 53 55 57 58
56 65 66 69 69 71 76 82 98 100 100 100 100 71 54 86 83 82 82 83 87 82 81 87 68 78 79 91 88 86 93 78 91 73 93 89 80 67 59 50 52 48 50 52 57 55 51 45 37 46 51 56 57 57
57 56 65 74 74 82 87 90 100 100 100 100 98 86 73 84 86 84 83 87 86 91 81 86 75 79 67 82 78 85 88 86 93 81 87 83 81 69 52 50 40 42 50 45 46 42 39 37 42 53 52 54 56 56
52 57 56 60 70 74 82 89 98 100 99 99 99 99 94 81 85 90 91 86 92 87 79 84 80 70 72 70 76 92 85 90 96 85 94 94 75 52 45 41 36 30 28 26 26 34 44 48 44 52 51 51 54 56
51 51 56 56 56 62 79 81 91 100 100 100 99 100 100 92 97 100 98 96 94 83 84 88 88 71 77 80 87 82 99 94 83 92 86 70 54 37 32 31 28 26 31 40 45 40 41 48 49 53 49 43 45 52
51 52 50 54 54 53 65 76 97 100 100 98 99 98 95 97 92 88 82 82 70 68 77 74 87 84 82 87 80 91 75 80 96 99 84 74 41 31 29 23 23 27 30 36 43 42 43 46 52 50 47 43 42 44
50 48 50 50 53 52 51 68 98 100 98 100 99 96 97 81 72 68 69 67 62 67 72 74 78 77 86 89 84 83 92 97 82 77 72 44 35 23 16 16 19 23 24 23 23 26 31 37 42 46 46 42 41 46
59 49 45 48 46 52 49 62 99 100 99 100 99 99 98 90 88 77 70 71 61 65 66 63 81 85 83 82 93 93 81 81 73 84 42 34 21 16 16 18 18 20 22 24 24 25 25 25 26 30 36 38 41 46
64 74 55 49 57 67 78 98 100 99 99 99 99 94 92 78 64 59 64 62 64 79 84 84 90 78 85 86 89 77 84 75 46 34 30 30 20 16 18 20 21 23 24 27 28 28 29 30 32 32 32 32 41 50
73 68 59 51 70 97 99 99 98 99 98 97 99 96 100 84 68 58 57 61 79 79 77 88 78 85 83 82 77 74 57 38 37 37 36 30 25 17 18 19 22 22 24 28 29 30 30 30 32 34 35 36 43 48
64 61 59 53 76 94 86 99 99 98 93 97 98 100 97 88 84 75 63 58 64 73 69 96 94 92 63 63 66 35 32 43 40 36 30 27 22 18 17 18 18 20 20 22 27 34 37 36 35 36 36 37 41 46
61 60 54 56 88 96 90 99 100 97 100 80 93 99 98 90 85 86 80 73 77 92 98 97 89 67 52 40 34 29 28 29 37 39 40 48 56 54 29 30 24 20 29 41 40 31 35 38 39 41 46 41 40 42
76 66 55 57 82 99 98 92 99 98 94 100 99 99 97 100 100 98 98 94 99 98 96 78 66 62 57 52 46 39 33 31 33 34 38 47 55 59 56 49 41 30 36 46 42 40 36 38 42 51 57 56 43 42
80 65 67 61 90 98 97 83 99 97 100 98 100 99 100 100 100 97 98 98 97 87 81 70 66 67 70 67 57 54 54 54 51 51 52 53 53 53 49 45 40 41 45 47 52 53 54 52 55 60 60 59 53 48
85 84 98 94 93 94 88 96 100 97 99 96 99 99 98 100 94 94 98 90 76 69 63 71 65 64 67 63 68 68 70 70 68 68 66 65 63 62 62 62 62 62 62 61 60 60 60 60 56 52 53 60 60 58
89 97 93 85 98 97 100 100 98 99 100 99 97 96 97 98 100 100 96 90 65 54 67 62 66 75 75 77 80 79 74 78 77 75 72 78 77 76 71 69 66 68 66 65 65 63 59 51 51 52 52 57 61 63
97 91 96 96 100 100 97 97 97 98 96 97 99 94 96 100 96 96 94 77 57 59 58 55 71 72 75 73 71 71 72 75 74 77 69 72 70 72 72 70 68 66 66 70 62 54 44 47 48 50 53 58 62 66
97 78 94 93 97 93 93 95 96 96 96 97 95 90 98 96 96 93 89 53 50 49 46 45 51 57 66 67 72 69 59 66 70 75 71 67 69 71 70 73 73 60 60 51 44 40 42 44 47 50 53 57 64 70
97 85 94 84 84 93 95 91 90 94 99 96 98 99 95 96 94 79 43 40 39 38 41 42 44 46 48 55 68 67 68 66 68 68 68 67 66 70 72 73 61 55 52 43 42 42 43 45 47 48 51 58 65 66
84 76 96 94 99 97 93 96 96 100 91 84 90 99 95 92 80 47 39 37 39 40 39 38 43 46 46 43 51 47 56 58 54 56 59 59 59 60 62 52 43 39 40 43 43 43 44 47 48 49 51 56 62 64
92 64 87 99 98 97 95 93 91 79 70 81 89 88 86 55 50 48 44 43 42 42 43 38 30 33 39 44 45 45 44 47 46 51 50 51 45 37 34 34 34 36 38 41 42 45 47 51 53 55 57 61 65 68
89 72 82 97 96 95 84 79 68 58 58 59 58 57 53 48 47 49 48 45 40 34 27 28 24 28 32 46 48 48 46 46 48 48 47 41 38 31 33 34 34 35 37 41 43 45 50 54 55 55 57 63 67 70
66 88 93 83 78 66 67 60 63 66 74 74 71 73 64 59 50 47 45 35 31 32 36 33 34 32 36 35 40 45 47 45 44 44 47 47 43 38 36 37 39 40 40 42 44 48 55 58 59 60 62 64 68 74
90 98 94 100 92 75 81 80 76 76 72 77 76 70 75 73 72 60 46 46 42 40 34 35 36 28 30 38 42 45 42 46 46 44 47 54 52 43 39 39 42 45 45 45 48 53 61 64 64 64 66 69 75 75
99 99 98 94 98 98 80 89 98 100 100 99 84 76 76 72 69 54 48 46 38 29 27 29 33 36 42 48 49 49 50 51 51 50 48 46 50 46 42 55 63 48 49 50 52 58 67 70 65 65 70 76 76 57

GFSWCAN_850_rhum_105.txt.gz
RH
83 83 82 79 84 86 95 94 91 90 67 57 27 50 70 63 61 57 56 56 60 65 56 43 42 54 57 54 37 48 49 56 49 46 37 32 38 32 40 28 29 32 40 47 43 47 58 36 45 32 25 30 36 40
74 65 65 76 81 88 93 98 95 97 84 67 44 26 54 67 68 68 59 58 58 61 65 48 46 44 44 46 52 57 53 47 45 40 38 37 38 36 31 25 31 38 23 22 28 30 28 38 26 32 35 34 39 39
64 58 59 70 82 91 86 91 93 94 95 71 69 32 26 52 66 66 71 65 60 66 64 65 55 44 46 51 49 50 59 57 65 66 48 42 50 36 36 34 29 29 27 35 28 20 23 25 28 33 42 41 39 44
58 54 52 63 81 94 86 88 94 98 98 89 67 60 32 27 52 70 67 68 73 64 76 57 49 48 47 51 58 60 62 61 63 66 57 52 48 40 37 31 38 26 35 33 30 26 26 26 28 30 33 35 37 39
58 52 48 49 58 81 96 86 91 93 100 98 83 72 50 31 29 54 68 69 71 74 76 67 61 55 58 61 59 64 71 78 73 73 70 64 49 56 44 48 53 33 34 37 30 24 23 24 32 32 37 38 38 38
54 52 50 44 44 52 91 99 98 100 99 98 97 79 74 40 29 54 82 67 69 77 69 73 70 68 68 69 78 81 88 86 79 72 65 62 69 55 57 47 31 36 34 31 27 33 34 35 34 36 40 40 41 40
42 40 40 43 47 49 50 87 100 97 100 100 98 96 89 59 37 51 79 63 52 60 60 78 72 70 80 82 93 94 88 90 84 77 73 63 70 74 67 53 27 36 39 41 40 42 47 44 45 42 43 46 45 44
41 42 50 54 54 61 62 58 90 100 100 100 100 98 95 82 49 44 48 75 76 75 73 98 88 65 83 82 78 91 87 92 86 76 80 76 74 77 78 49 42 37 43 46 46 45 42 44 45 44 46 49 50 50
52 55 58 69 75 72 69 66 71 94 100 100 100 100 98 75 60 73 72 78 84 79 89 88 91 91 78 86 88 90 89 81 81 80 72 76 68 92 66 58 51 49 55 54 49 54 55 54 48 47 48 48 54 56
56 56 56 62 68 72 74 75 75 99 99 100 100 98 68 71 80 83 86 90 94 89 87 90 79 83 75 81 78 76 83 77 88 71 82 82 78 58 55 58 56 55 55 56 56 55 50 52 48 50 42 41 55 57
48 56 57 57 60 69 73 80 88 98 100 100 98 98 90 79 84 87 94 94 89 94 88 89 87 73 64 80 72 76 89 81 92 82 83 78 76 58 54 58 58 57 55 53 62 59 53 52 54 50 45 54 57 58
41 44 51 58 58 57 67 79 95 92 100 98 99 99 98 98 99 98 94 88 92 86 78 81 79 78 81 67 72 86 86 85 94 81 87 91 70 53 52 44 45 37 28 30 43 46 41 34 41 41 44 53 53 54
36 42 45 46 52 57 58 71 90 97 99 100 99 100 98 97 100 96 96 93 90 81 92 87 85 77 74 75 76 78 94 91 73 85 79 71 53 44 35 35 32 26 24 26 31 34 32 34 42 44 46 50 46 44
45 47 46 47 48 50 55 57 99 100 100 98 100 100 99 97 92 84 76 82 79 80 92 85 86 78 78 82 70 92 68 71 87 97 78 67 49 42 35 30 25 23 25 29 32 30 30 34 37 43 47 48 45 41
56 60 56 49 47 47 52 57 86 100 99 100 100 98 97 86 83 74 75 72 65 76 80 78 80 73 83 86 73 82 83 93 76 73 74 55 36 35 30 19 19 22 23 24 24 25 28 32 34 36 39 43 46 46
53 58 62 57 45 45 50 64 76 99 100 100 100 99 99 97 93 90 71 78 65 67 72 70 85 86 84 82 86 88 76 79 78 88 42 32 30 25 19 18 19 20 22 23 24 27 29 29 29 30 31 33 35 38
60 96 79 59 53 61 70 94 99 98 100 99 98 75 90 75 71 73 76 72 66 80 86 89 96 86 82 83 81 69 80 81 50 40 34 35 37 29 20 19 22 22 24 24 26 29 30 30 30 32 33 33 42 38
83 74 66 60 64 76 89 96 92 99 99 88 99 80 100 89 78 73 67 67 69 80 79 98 98 96 92 82 70 71 57 36 33 34 43 33 26 25 21 17 18 20 22 25 28 29 29 30 31 32 33 39 38 37
78 67 66 64 67 74 79 96 92 99 91 79 83 94 100 94 84 80 76 72 65 69 77 99 98 95 83 65 59 53 47 37 37 38 36 33 38 37 36 40 55 56 52 22 22 25 26 27 32 49 48 51 39 40
74 77 72 60 76 89 96 88 100 96 92 67 72 84 93 80 72 81 86 81 82 92 98 97 85 65 64 51 51 51 46 41 46 52 42 33 31 33 37 46 47 44 48 53 58 68 60 32 40 59 70 80 48 42
85 84 83 77 80 88 90 99 100 97 88 84 76 98 94 100 99 95 99 98 100 98 95 82 72 63 55 56 56 56 57 54 53 48 45 42 43 42 42 43 45 48 50 52 56 61 52 43 45 49 54 85 84 48
95 91 92 91 97 90 86 71 96 90 90 97 94 91 99 99 96 97 98 100 98 82 75 65 61 61 62 62 56 62 64 65 69 69 66 65 63 64 63 62 62 60 60 59 58 56 51 50 56 60 65 65 75 62
97 98 99 97 98 97 84 78 98 84 92 79 93 98 96 96 98 98 98 97 86 75 59 55 48 41 64 64 67 67 66 70 75 75 74 73 72 72 73 72 70 70 69 66 66 68 67 65 68 68 66 65 59 57
97 98 98 97 96 89 94 99 98 83 97 94 92 81 77 87 97 99 94 70 66 56 55 51 54 73 73 75 75 66 57 73 82 80 72 80 82 80 78 78 78 77 75 75 75 73 72 71 70 70 70 63 57 56
98 97 98 97 99 92 96 90 95 97 93 91 82 81 90 100 96 94 84 60 59 62 59 58 67 74 77 70 63 61 62 72 76 79 76 82 84 85 85 80 78 77 80 82 75 74 72 71 72 73 66 57 55 58
98 77 92 88 91 91 86 91 92 89 72 84 90 80 97 94 96 92 67 50 51 52 56 60 57 62 56 54 59 47 49 62 77 79 77 74 77 80 81 83 84 78 81 76 75 70 66 67 67 61 53 53 56 65
84 83 94 71 69 89 89 87 83 87 95 96 88 94 94 96 93 78 47 47 45 44 39 41 46 50 48 45 45 42 43 46 58 70 71 87 76 72 75 79 77 68 76 76 70 57 48 46 48 50 50 54 59 59
80 80 95 81 100 89 83 80 88 88 94 91 88 95 96 94 71 43 39 38 41 44 45 45 44 43 43 38 40 38 36 39 45 47 54 63 56 52 52 54 61 65 70 75 58 50 48 48 48 49 51 52 54 55
89 73 73 82 89 99 92 89 89 80 62 67 84 80 80 54 48 44 46 40 31 37 43 40 40 38 31 33 36 31 28 33 39 46 47 49 56 58 64 52 40 40 52 51 44 45 51 53 54 54 53 55 56 60
86 74 72 74 81 82 65 63 61 51 56 63 65 65 61 56 48 44 43 42 46 48 47 47 44 40 39 40 35 28 20 22 32 46 46 44 45 52 67 60 41 35 37 39 41 45 51 54 54 52 55 57 58 61
58 71 76 69 71 64 62 59 59 61 65 76 72 79 70 58 56 53 52 48 50 52 52 48 41 33 38 36 33 37 27 31 39 43 46 45 46 53 63 62 44 37 37 38 40 44 49 50 53 58 59 60 60 64
70 76 74 81 78 66 68 73 72 73 72 78 81 74 77 79 76 66 57 58 55 53 48 46 45 30 22 25 25 30 37 44 48 53 54 53 53 49 48 58 53 42 44 51 48 47 47 50 58 63 64 64 66 66
95 87 83 83 77 76 71 77 91 87 82 85 80 77 76 76 76 64 58 56 53 49 44 38 35 34 35 37 38 40 44 47 50 51 54 56 56 54 50 56 65 52 52 77 88 66 50 54 62 67 69 69 68 71

GFSWCAN_850_rhum_108.txt.gz
RH
88 84 81 75 65 69 87 91 90 93 88 69 60 28 36 59 52 49 55 58 59 71 57 50 42 42 47 45 47 51 58 62 60 62 48 46 51 44 45 34 48 61 73 78 70 69 73 38 45 37 30 31 33 32
88 89 75 62 59 63 76 86 91 92 90 84 69 56 28 32 60 58 51 53 59 60 51 50 45 45 46 48 52 49 57 46 47 58 54 48 54 45 42 45 31 43 34 39 50 56 35 36 28 29 27 32 34 33
96 94 69 62 64 68 79 84 89 88 97 94 83 66 53 30 28 58 64 63 60 68 67 70 55 52 48 46 48 52 52 54 57 59 62 60 67 51 55 51 34 33 27 45 34 26 24 23 25 24 34 37 34 38
96 85 64 57 56 58 74 86 87 86 93 99 97 88 68 50 30 28 52 66 73 71 87 62 56 50 46 45 49 59 60 66 65 62 65 74 67 40 54 47 44 37 35 42 44 32 27 25 23 24 26 29 34 34
93 75 63 56 53 49 49 70 90 92 90 89 92 94 87 71 45 29 43 67 77 76 89 73 61 60 61 61 56 60 63 69 73 73 85 86 57 57 59 64 57 37 34 43 34 27 27 27 25 24 28 28 30 32
80 70 62 54 52 50 46 44 60 97 100 99 96 96 93 85 66 37 77 64 65 73 76 96 72 70 62 64 70 71 69 78 78 77 74 65 61 58 82 76 44 34 33 29 31 27 27 29 33 31 31 33 38 44
72 66 58 50 43 41 45 47 49 84 100 95 98 99 96 93 85 49 69 67 58 72 72 85 85 80 74 82 85 90 89 88 84 79 77 70 70 64 91 68 37 30 30 29 32 31 36 38 37 36 39 42 45 45
47 42 38 36 37 39 49 56 60 62 97 99 100 100 98 97 92 79 63 52 79 82 78 98 97 71 77 85 86 92 91 93 90 85 79 80 75 80 97 64 53 46 40 37 39 39 40 42 42 44 46 46 46 41
47 47 46 47 53 63 63 60 57 66 93 99 100 100 99 95 79 78 72 73 75 79 97 99 99 96 75 84 86 84 86 86 80 91 82 82 90 97 78 67 63 57 51 48 48 47 49 49 48 47 49 49 46 40
52 55 55 54 56 61 66 68 69 68 89 99 100 99 98 67 70 78 88 90 95 95 91 100 86 96 72 82 83 79 86 86 84 83 78 91 88 68 56 55 53 55 57 54 55 56 49 48 45 43 44 48 50 41
40 47 55 57 56 56 63 77 77 83 91 99 99 97 91 86 90 89 95 95 95 98 94 95 88 89 65 92 92 74 97 85 91 93 94 93 92 73 55 49 43 47 57 57 56 58 61 58 54 52 52 47 44 52
34 41 45 50 55 58 58 74 94 98 95 97 96 92 97 94 100 99 98 94 94 89 83 87 82 83 79 70 81 83 96 91 94 85 90 94 83 50 45 40 40 39 34 32 34 45 52 55 53 50 42 40 51 57
29 32 38 44 46 47 59 62 97 98 100 98 99 100 100 99 100 98 96 93 92 80 83 80 88 79 74 69 82 89 99 92 73 95 93 87 59 44 38 44 29 27 24 26 31 39 40 38 38 41 43 43 49 48
40 38 38 43 46 47 50 62 61 95 95 99 100 98 98 98 96 91 90 93 77 81 85 82 88 80 76 87 81 100 82 77 95 94 90 88 52 35 34 37 35 24 26 28 33 38 36 36 38 39 41 44 45 45
34 35 48 55 50 43 49 59 76 83 99 99 100 98 95 87 87 83 79 78 64 74 76 82 83 76 93 98 88 92 90 96 92 88 88 50 34 34 24 18 18 20 22 26 28 28 30 31 31 33 35 40 36 39
41 52 55 49 52 52 48 56 68 97 95 99 100 99 96 98 96 94 73 70 71 66 75 77 88 96 96 95 98 96 92 90 80 88 37 34 34 29 25 23 16 18 20 22 24 25 28 32 33 34 33 34 36 41
52 89 68 53 65 57 52 71 98 96 98 99 99 97 96 86 81 79 74 73 73 73 96 94 99 91 97 98 97 87 90 82 51 36 30 27 34 33 33 34 30 18 18 21 22 23 25 30 32 31 32 38 52 67
76 69 51 57 69 69 66 80 85 91 99 97 98 84 92 88 80 76 75 72 74 75 84 97 96 98 96 96 90 84 49 35 32 30 29 30 38 38 39 38 35 33 24 37 48 50 47 32 24 27 31 34 54 75
75 70 68 67 78 83 75 88 84 99 98 96 73 83 75 77 77 79 78 76 73 79 96 99 99 98 92 83 65 59 59 57 52 51 52 50 48 45 43 42 38 36 37 37 48 53 50 49 49 47 54 67 40 49
73 69 69 75 89 97 96 92 100 93 97 70 61 67 77 82 75 75 75 81 80 92 99 97 88 71 70 54 50 52 53 55 60 60 58 56 52 51 50 48 46 45 45 46 48 47 49 50 50 50 53 61 74 72
70 63 74 82 99 98 93 96 99 99 100 84 66 70 78 76 91 94 96 94 98 96 84 74 71 66 58 54 52 58 61 60 62 65 64 63 60 61 61 61 60 59 59 59 60 60 60 58 54 56 60 63 56 50
82 78 91 91 99 98 97 82 98 88 85 88 98 84 99 97 94 93 92 100 96 88 82 76 71 66 70 68 50 55 64 63 64 68 68 67 72 74 76 73 73 73 72 72 73 72 70 68 68 69 69 63 60 62
83 96 99 97 98 98 91 89 89 75 96 81 75 96 91 89 85 84 99 98 81 77 80 81 73 66 73 58 59 60 54 54 65 64 62 70 76 78 80 80 80 81 80 76 72 74 74 69 74 75 75 75 75 73
88 97 98 98 98 97 98 98 97 83 70 80 88 72 79 61 59 81 82 70 64 55 61 62 75 72 61 64 66 57 47 59 72 70 71 75 79 80 83 86 83 82 80 78 81 82 81 81 81 80 79 80 79 76
92 95 97 96 98 98 97 99 96 99 95 88 83 86 92 88 90 94 92 64 56 58 60 56 53 60 72 70 65 61 48 69 74 75 66 76 75 80 77 79 88 83 73 81 84 85 83 84 82 80 81 83 79 93
96 69 91 92 97 97 93 96 91 90 77 82 90 73 74 93 89 91 84 53 51 51 48 48 54 57 63 63 61 55 49 54 49 44 39 46 52 63 74 84 80 62 60 70 78 82 78 80 83 79 80 79 78 79
96 89 74 62 70 71 88 82 67 87 94 94 92 96 98 96 88 68 43 43 47 45 44 40 46 50 54 55 57 50 45 45 47 40 36 39 36 35 54 69 75 63 62 61 75 85 85 81 77 65 70 68 68 71
78 64 84 72 88 78 85 85 95 96 94 77 97 99 94 91 84 60 46 43 52 48 48 40 39 46 47 43 42 46 46 47 46 44 46 43 36 28 24 30 42 55 65 46 58 70 78 72 55 53 56 54 56 61
78 63 64 81 80 82 83 87 75 60 55 57 75 68 59 46 41 51 42 41 43 46 48 47 45 46 44 40 42 45 48 53 56 50 50 54 39 18 24 35 38 50 65 48 41 47 51 56 55 53 55 57 59 60
88 69 66 72 80 86 65 60 54 49 55 56 56 59 61 58 56 49 46 47 55 56 54 57 53 50 46 47 48 47 43 37 40 46 48 44 38 42 46 53 52 58 69 60 43 40 43 46 48 49 54 57 58 59
58 65 77 73 74 67 64 57 58 59 61 62 60 69 66 59 57 61 65 61 58 66 69 64 52 44 46 44 45 42 30 29 38 39 41 41 46 50 52 53 56 62 71 60 44 50 45 47 48 52 56 59 66 65
63 66 71 76 73 62 64 65 67 73 74 76 78 75 80 80 80 71 60 64 64 63 51 48 50 38 32 39 40 42 41 46 48 45 44 46 49 53 56 60 60 55 60 66 48 55 77 87 66 55 62 69 66 67
81 74 71 76 75 70 70 76 80 86 75 76 74 72 72 73 79 69 60 55 54 52 51 47 38 31 30 34 37 40 44 45 45 46 48 50 51 52 56 61 64 62 56 59 52 50 85 99 98 64 63 70 71 72

GFSWCAN_850_rhum_111.txt.gz
RH
79 81 86 87 71 62 62 84 94 86 87 86 59 52 31 25 42 50 52 50 48 52 40 54 48 44 46 50 53 48 48 60 70 65 62 58 56 49 48 45 70 75 89 94 89 93 81 39 43 32 23 31 25 25
81 84 86 86 68 58 60 82 95 91 87 87 87 63 55 33 25 37 52 55 55 55 46 46 52 50 45 50 50 51 49 54 54 70 65 64 55 58 54 44 37 49 53 66 69 66 39 35 30 24 26 25 24 29
98 89 91 88 66 54 53 69 98 95 90 84 92 89 68 58 40 28 38 52 57 62 60 62 58 56 56 53 54 53 49 43 56 55 65 71 71 66 62 64 42 34 32 41 33 29 32 29 28 28 28 31 29 31
100 100 96 85 64 55 49 48 69 94 90 94 88 83 89 80 62 44 32 45 69 70 86 57 61 57 52 53 52 56 58 62 66 66 63 82 76 54 66 51 54 42 37 43 46 33 29 23 24 25 24 24 24 28
99 100 96 82 63 56 53 49 45 66 89 83 89 81 86 91 85 62 55 62 67 75 82 62 62 65 66 58 61 61 66 72 69 69 82 90 73 66 68 75 59 44 39 46 39 25 26 26 27 26 24 25 27 33
100 100 91 78 65 59 56 51 48 49 59 87 85 86 91 92 87 82 75 65 55 62 67 94 70 77 65 64 66 71 72 75 74 76 82 72 64 61 89 91 59 35 35 34 33 28 29 28 31 31 32 32 31 33
99 91 76 71 65 58 54 41 42 49 56 82 92 91 94 96 90 85 66 70 67 70 78 85 80 82 71 76 80 84 86 88 84 80 85 78 73 68 92 94 43 39 38 39 39 40 40 35 35 35 36 37 39 41
88 80 70 59 49 39 35 34 46 52 57 72 96 94 99 99 94 91 86 81 63 67 78 99 96 81 75 84 86 89 89 89 89 86 86 84 76 82 97 72 57 53 50 48 40 46 45 42 42 42 43 45 47 47
75 55 46 41 39 42 43 46 52 49 51 67 94 100 99 95 88 79 73 74 74 73 96 99 100 91 73 84 86 86 86 92 83 96 88 86 92 98 82 71 66 62 64 62 60 58 55 50 46 48 50 50 51 49
57 50 47 47 50 53 58 58 56 58 72 99 98 97 93 81 72 81 94 92 94 94 93 100 97 95 70 81 87 89 86 84 96 86 81 92 90 70 51 51 51 45 50 51 63 66 58 55 56 55 52 51 52 52
47 50 52 52 55 57 58 67 74 85 84 99 85 83 88 89 90 93 96 93 95 99 94 96 90 90 72 88 91 81 97 87 89 84 94 91 95 77 50 45 41 43 45 39 53 61 62 61 63 64 63 60 58 43
35 37 39 41 49 56 59 67 94 97 89 96 93 95 80 91 99 99 98 96 97 85 84 93 84 85 83 75 80 83 94 86 95 87 92 94 84 42 47 36 39 31 31 28 30 30 36 44 51 52 47 44 40 49
29 31 34 38 44 48 56 62 91 94 98 97 92 94 98 100 99 99 98 95 96 85 85 86 82 78 79 72 83 92 96 94 80 97 95 88 50 39 32 31 24 22 21 27 30 35 36 38 40 41 43 44 50 50
36 36 35 36 38 48 50 58 61 87 87 99 98 89 98 97 94 93 92 91 76 84 81 78 82 80 82 90 87 100 85 83 98 99 88 87 35 34 34 27 20 18 19 19 21 23 28 34 41 41 40 42 41 41
34 35 40 39 40 48 51 53 63 92 99 88 100 94 92 88 90 85 82 79 69 75 72 83 81 82 93 99 97 96 96 99 94 86 85 38 32 36 35 36 35 31 23 19 19 20 22 27 30 33 35 36 37 42
42 57 47 31 49 62 58 59 74 99 91 98 100 96 94 94 92 95 82 74 74 67 72 78 90 96 97 97 98 100 97 95 77 88 37 31 33 34 34 41 40 41 40 37 22 22 22 22 25 29 32 33 36 37
70 80 37 51 56 56 62 58 74 95 82 98 98 99 91 93 82 77 78 71 71 70 89 91 99 92 93 99 99 92 92 77 46 37 38 48 49 47 41 44 43 44 44 42 40 33 29 37 39 37 32 33 30 34
81 60 43 68 75 75 84 88 91 94 98 98 98 94 97 97 86 79 77 72 75 76 76 93 85 99 98 97 91 86 57 44 43 40 40 47 47 49 51 49 46 47 49 47 45 41 42 36 37 48 52 48 41 35
52 54 47 66 86 89 84 90 80 99 95 92 94 95 84 77 72 70 73 72 70 72 73 99 99 95 82 75 69 57 51 49 56 50 53 53 54 56 56 53 48 50 52 54 54 54 53 53 51 49 52 52 54 55
68 75 71 70 86 99 95 88 97 88 98 73 75 75 64 57 54 58 65 71 78 93 97 95 80 71 80 66 61 58 50 53 59 64 64 59 60 56 54 55 56 59 62 63 62 64 65 62 59 57 54 53 50 53
82 65 72 79 92 99 98 95 99 94 95 86 64 65 66 60 66 69 78 80 95 88 85 76 72 69 64 61 59 59 62 65 67 68 68 68 57 51 66 64 70 70 71 72 74 68 70 71 67 68 72 73 72 70
86 78 73 71 88 95 98 97 92 94 100 99 97 94 100 98 84 77 65 88 87 83 82 79 74 75 77 76 74 66 64 65 68 72 73 72 74 70 72 70 71 73 76 76 76 81 77 72 70 75 79 79 78 77
84 89 97 92 94 98 92 95 99 94 98 97 92 98 99 93 63 56 95 78 71 68 67 68 67 70 80 72 64 62 57 69 75 80 75 61 62 69 72 74 74 78 78 69 79 85 84 80 83 81 80 83 83 82
90 97 96 98 98 97 98 99 97 97 93 94 98 90 82 66 50 86 92 60 56 58 60 60 68 69 66 69 78 66 52 60 79 72 66 68 72 80 69 61 58 66 70 72 85 91 83 77 78 85 89 90 90 90
98 98 96 97 99 100 97 97 97 100 100 96 91 94 90 64 100 100 91 56 53 59 61 62 61 60 72 69 67 64 48 65 74 73 68 79 69 60 53 44 39 34 37 60 69 80 83 72 74 84 88 90 90 93
96 84 93 90 94 98 94 97 99 98 96 97 91 64 64 95 93 82 81 46 47 49 56 60 63 63 65 57 55 47 49 60 77 94 71 65 63 61 55 50 48 28 36 39 47 51 59 68 74 87 91 87 92 98
96 96 79 69 71 84 94 89 75 88 91 94 90 88 97 96 90 67 44 42 43 39 37 42 49 55 57 55 53 54 48 58 64 53 50 63 62 57 54 54 47 20 30 41 46 49 53 59 65 80 92 92 78 79
89 77 92 75 90 75 85 93 96 90 69 54 82 100 92 79 57 40 38 33 39 41 44 41 33 41 44 49 49 46 48 50 53 47 47 52 52 48 42 31 21 25 40 43 44 49 61 63 55 70 80 60 54 59
84 62 61 83 79 91 88 84 71 55 49 50 64 60 56 48 46 46 42 40 42 48 48 41 40 47 49 48 47 36 41 49 53 48 42 43 38 31 24 23 26 38 48 53 50 62 72 64 60 56 56 55 53 55
70 66 67 68 83 82 58 54 51 46 53 58 58 59 59 58 54 52 53 52 53 53 52 54 56 58 58 60 54 30 25 38 50 55 60 50 38 33 36 32 37 45 52 58 55 62 76 64 61 60 52 55 57 55
58 63 72 70 70 62 62 56 59 60 60 63 63 68 66 61 57 57 59 61 65 66 68 68 62 57 59 56 64 67 47 20 30 35 40 41 49 52 48 46 47 52 57 61 62 61 74 63 64 60 67 83 80 67
67 65 72 82 72 65 67 68 69 72 72 78 78 75 75 76 78 72 55 67 71 72 67 70 75 67 32 29 28 32 34 37 44 44 44 48 52 50 48 49 50 54 58 60 62 63 72 68 64 78 98 98 84 67
76 69 68 71 73 68 63 69 69 81 68 70 71 70 69 70 73 63 56 58 59 59 58 54 48 44 42 47 50 47 48 46 41 45 45 44 45 50 52 52 53 58 64 70 70 69 72 75 66 93 100 96 74 92

GFSWCAN_850_rhum_114.txt.gz
RH
84 84 86 87 82 71 60 55 58 69 76 84 88 66 52 33 28 42 47 47 46 42 38 52 49 49 55 53 51 45 51 58 74 67 65 60 61 52 51 48 72 80 92 97 92 97 80 46 43 31 25 24 25 22
92 85 91 88 85 74 59 55 57 62 69 76 84 88 72 58 41 32 36 41 46 48 47 51 54 54 53 53 53 53 45 56 51 71 74 70 61 66 59 42 53 55 52 69 73 68 42 38 30 24 27 29 28 26
100 98 91 92 88 76 60 52 55 68 68 69 72 78 87 81 68 54 42 38 42 54 54 52 64 61 58 55 52 57 55 53 57 58 63 74 70 67 64 68 45 39 42 51 42 36 40 36 31 28 26 27 27 29
100 99 99 96 91 78 62 55 51 53 59 69 71 71 78 88 85 75 63 54 53 60 79 57 63 63 58 56 58 57 57 57 63 66 63 78 75 56 65 53 55 41 40 46 50 35 28 24 24 24 23 25 26 26
99 98 99 99 94 79 65 57 56 52 48 54 65 78 79 85 92 87 70 58 57 62 65 57 61 64 65 61 59 64 62 69 68 70 84 87 77 77 76 82 90 51 50 54 43 28 30 29 29 29 29 28 28 29
98 95 97 98 98 82 71 63 59 54 48 46 67 80 81 91 95 91 73 62 59 64 62 84 65 70 66 63 65 70 74 79 75 72 78 72 70 66 90 93 60 48 41 39 40 37 42 43 42 40 37 33 34 36
100 99 100 100 92 76 68 64 56 45 38 41 53 92 91 95 96 91 83 80 84 72 69 77 78 82 76 71 78 83 84 86 82 79 90 85 77 74 92 97 52 45 47 46 44 50 52 48 54 51 44 40 40 42
100 100 100 91 78 72 56 49 42 37 40 48 56 90 97 94 97 89 87 89 84 70 71 97 91 83 75 81 83 86 88 90 89 88 88 90 75 86 98 75 61 54 50 45 46 55 58 53 55 56 52 51 51 52
100 94 84 73 64 53 46 40 42 49 49 53 71 93 100 94 99 89 78 78 75 75 93 99 100 91 73 84 86 86 86 90 86 97 93 88 92 98 81 71 56 50 61 59 49 46 57 64 62 60 58 56 54 50
100 99 89 64 50 45 42 41 49 57 54 82 95 91 90 87 87 80 92 93 93 92 92 99 97 98 71 82 88 90 89 86 86 90 84 96 94 69 54 47 53 49 46 51 53 39 32 36 49 57 62 62 61 57
96 93 88 72 52 47 47 52 66 78 78 98 83 87 96 94 90 95 95 94 94 99 94 94 95 92 79 86 90 86 96 90 96 91 94 90 94 74 45 49 36 38 34 35 35 33 35 40 46 49 50 54 58 56
55 50 51 53 53 52 52 56 82 83 92 90 88 90 88 92 94 99 98 97 99 90 84 93 89 88 86 78 82 87 91 88 95 90 93 95 84 34 39 29 19 19 21 23 29 31 36 35 37 39 39 39 39 44
38 37 38 40 41 44 51 62 84 91 93 87 96 91 93 94 100 100 100 94 95 87 89 91 84 82 85 79 83 94 98 95 84 99 98 86 46 34 39 36 36 36 37 35 31 24 25 32 35 32 35 37 38 38
34 32 31 32 34 38 44 53 66 87 88 91 100 97 95 95 83 92 93 90 74 86 83 82 80 81 84 90 88 98 89 87 100 98 85 85 35 42 39 38 42 41 42 41 40 40 39 26 27 33 33 36 37 40
40 40 35 33 34 38 44 49 57 70 88 98 99 93 82 76 87 91 85 81 74 82 76 86 82 84 95 98 97 97 99 97 98 89 86 42 45 40 41 44 46 44 45 47 43 43 44 41 39 28 31 37 38 34
38 34 28 36 51 55 51 52 80 99 93 98 96 98 83 97 85 94 91 87 76 70 74 76 93 97 97 98 98 95 97 99 84 89 44 45 47 44 44 47 51 51 52 51 48 45 48 47 46 43 33 31 34 38
60 35 45 41 42 59 66 58 75 87 84 98 95 91 80 92 85 96 87 77 75 73 86 89 99 91 94 98 96 94 94 87 50 42 32 33 48 45 48 54 46 47 44 42 43 47 49 52 53 51 49 46 42 38
50 46 52 63 68 71 78 72 67 90 99 98 96 83 90 87 84 84 74 68 74 77 73 90 76 100 99 97 79 79 54 45 41 41 45 53 44 34 46 50 52 53 38 36 41 52 53 51 54 52 50 50 53 52
42 48 62 66 75 87 81 88 95 99 96 93 90 86 89 92 79 75 67 61 62 67 74 96 99 93 84 62 59 58 58 60 65 66 62 55 50 50 56 58 59 58 47 46 49 55 56 60 62 62 61 61 61 58
66 55 66 75 88 93 89 94 96 89 99 77 91 90 83 70 60 62 61 61 66 92 94 98 70 63 63 60 59 59 62 66 66 64 56 55 58 63 67 69 66 59 65 61 55 59 65 71 66 71 72 73 76 74
77 78 80 90 100 96 95 96 100 91 82 88 80 89 78 71 70 67 60 55 98 88 83 72 70 68 60 56 58 63 66 66 68 66 69 74 74 77 77 73 61 75 72 68 67 70 75 73 75 82 89 86 82 82
92 92 86 92 100 97 95 81 94 97 96 88 88 84 98 97 91 70 56 82 86 66 62 65 69 70 70 73 71 58 58 68 69 78 80 82 87 82 79 75 81 79 70 70 74 75 71 61 67 82 87 78 80 84
92 96 98 93 90 92 84 83 98 89 99 94 94 98 96 96 67 58 72 61 54 46 50 56 52 52 62 59 66 69 65 71 74 78 82 77 74 83 79 74 70 79 74 59 55 53 46 34 40 64 80 80 71 79
99 97 97 97 97 94 99 99 100 99 99 98 100 100 89 74 55 75 89 56 52 51 51 46 46 57 57 65 68 56 50 57 76 77 71 82 95 83 76 83 85 78 69 68 53 36 36 33 36 46 65 81 76 80
98 98 97 97 99 98 99 99 98 100 96 98 98 94 89 67 89 100 93 54 46 48 43 41 45 51 63 58 56 55 49 64 75 83 64 83 95 85 74 74 69 62 61 68 49 42 33 36 46 57 60 65 77 85
97 94 95 89 96 94 95 100 100 96 99 100 97 70 66 94 99 87 84 49 50 47 42 40 46 49 56 54 56 47 49 44 55 82 76 58 61 82 66 52 56 49 48 59 60 55 41 45 55 56 57 60 79 92
96 96 88 85 81 88 91 90 74 87 93 96 90 97 98 94 93 73 45 41 43 38 36 37 38 42 43 44 48 51 47 42 45 48 53 55 50 72 77 51 45 36 38 46 48 48 46 52 59 62 69 71 74 80
87 77 98 85 95 75 88 99 96 94 88 61 84 99 93 86 59 40 36 34 35 36 38 40 41 42 45 44 40 46 46 36 35 48 44 33 31 33 38 33 28 31 36 37 40 46 52 59 63 63 77 73 70 75
98 80 81 95 93 98 90 83 74 49 44 45 68 55 50 40 39 41 41 42 44 48 49 49 46 45 49 50 51 47 40 40 54 62 60 55 33 22 33 28 34 37 38 40 45 52 56 60 63 63 75 71 70 90
98 78 74 82 89 92 62 50 44 40 47 52 54 57 58 57 52 46 56 59 63 64 61 60 60 62 65 65 62 57 51 52 61 66 68 53 21 22 34 42 46 45 45 50 53 54 56 60 62 64 74 72 72 83
50 57 66 64 72 56 53 48 52 54 56 60 60 67 68 64 61 59 64 64 65 66 69 70 71 73 76 75 77 78 76 50 73 69 64 47 39 44 44 44 46 49 53 56 56 58 59 60 63 66 74 72 71 85
61 61 71 86 66 56 59 61 66 68 65 69 74 74 76 80 82 68 62 66 69 72 71 75 78 77 74 76 71 72 71 66 58 64 64 62 56 50 51 47 45 48 53 56 58 60 60 60 65 68 75 75 72 91
87 75 68 70 76 70 65 68 66 79 66 68 68 68 70 71 74 47 33 57 63 68 73 74 72 70 67 71 77 74 74 70 62 59 60 59 54 49 51 49 46 50 56 58 58 61 62 61 68 71 74 78 74 94

GFSWCAN_850_rhum_117.txt.gz
RH
100 92 86 87 82 80 69 59 54 62 74 75 80 75 64 57 47 37 37 36 43 43 39 54 51 52 60 56 50 47 51 56 74 64 63 61 60 54 52 47 72 83 94 98 92 98 71 46 45 29 23 20 26 26
100 99 93 85 84 80 74 60 54 53 62 72 77 78 76 73 66 58 49 46 40 45 45 48 55 57 53 52 49 50 44 57 53 70 76 70 62 73 60 41 59 55 56 69 76 67 42 40 36 27 30 35 31 28
99 100 100 88 87 85 78 64 56 54 55 63 70 76 74 76 76 71 66 60 52 53 52 53 58 57 54 57 58 54 58 54 58 57 60 74 63 67 61 67 46 45 46 54 44 30 46 28 26 29 28 27 26 27
98 99 99 98 90 90 81 68 58 56 54 53 55 69 75 80 80 79 74 59 51 54 75 56 64 66 62 58 59 64 62 63 66 66 64 77 70 56 64 55 55 42 44 47 54 38 28 23 28 34 39 37 33 35
96 95 98 99 99 94 83 72 61 60 60 57 51 54 82 84 88 85 77 58 60 62 69 61 65 66 67 63 61 63 63 64 67 69 83 87 75 82 81 84 89 53 49 50 49 40 44 44 46 44 47 49 45 42
98 97 97 97 98 99 94 76 67 63 60 54 47 44 69 97 93 88 72 61 64 82 67 84 64 71 69 67 66 68 71 78 74 70 76 72 71 71 90 92 59 51 45 47 50 53 52 42 41 49 57 53 51 46
100 98 99 94 91 97 97 78 67 64 56 46 41 47 65 96 93 93 87 84 89 91 72 78 76 80 77 72 77 82 84 83 80 76 90 88 80 80 92 96 56 48 52 53 49 56 49 44 57 60 63 57 55 50
100 99 99 98 92 94 93 78 66 56 47 41 39 55 96 98 96 89 91 95 88 81 76 96 90 82 78 80 82 85 89 90 90 88 90 93 80 87 98 74 59 55 53 42 47 52 55 46 36 44 61 63 60 58
100 100 100 99 99 95 88 74 57 46 46 41 45 66 94 96 99 98 86 80 80 75 87 98 100 92 77 85 86 88 87 93 89 93 93 90 92 98 80 67 55 53 62 50 32 32 34 38 37 40 46 52 62 60
100 100 100 100 93 79 60 50 44 46 51 56 64 70 96 91 93 83 88 86 92 93 90 99 100 97 75 84 89 90 89 94 97 88 87 98 93 69 58 50 52 37 36 36 33 28 29 29 39 42 46 48 54 56
100 99 94 81 73 63 61 61 53 66 88 80 82 85 95 95 94 93 88 94 91 93 94 97 97 94 82 86 91 89 96 93 91 92 95 94 93 71 50 40 27 27 32 33 35 35 33 32 32 34 33 37 40 40
100 100 97 96 94 83 68 63 86 84 85 80 78 90 87 94 94 98 99 98 99 93 88 97 94 91 88 81 83 92 93 86 94 93 96 93 85 48 43 40 41 43 43 43 45 46 44 43 42 35 28 32 36 38
94 88 85 71 64 61 59 60 87 88 88 85 83 85 86 90 99 99 97 96 97 86 90 95 89 86 87 84 87 94 97 94 86 96 97 88 56 44 41 40 37 40 43 44 46 47 47 44 39 45 43 34 31 37
74 57 51 50 49 51 57 90 96 93 82 88 93 100 91 94 90 91 94 89 77 85 89 86 83 85 86 89 89 98 93 91 94 99 88 85 46 45 46 44 44 39 37 34 37 41 46 51 42 42 45 46 46 33
42 39 38 39 39 44 48 57 73 88 86 92 90 94 96 70 75 84 93 89 82 88 82 85 84 86 96 97 93 97 99 94 96 92 87 48 40 38 43 47 44 40 42 38 37 44 38 35 40 42 44 42 43 49
41 39 42 44 42 44 47 55 63 76 75 93 92 94 77 84 83 82 89 94 84 77 78 77 95 95 98 99 99 94 95 91 85 90 50 50 54 54 59 61 57 52 43 44 46 48 50 48 40 41 41 40 40 47
40 42 39 40 50 54 56 67 84 82 82 97 88 88 90 93 88 86 97 92 86 80 88 89 98 95 93 100 97 93 95 88 55 56 49 46 47 46 49 60 59 49 47 51 54 54 50 46 43 41 42 38 55 58
48 51 55 57 53 67 68 60 56 73 98 97 93 85 82 82 81 78 72 72 77 76 72 81 71 100 98 95 90 84 60 51 52 52 51 52 53 51 55 54 48 50 58 56 52 46 44 47 48 48 61 69 73 67
52 58 69 78 68 68 74 77 76 98 94 97 95 89 81 77 68 63 58 59 68 79 74 84 94 98 82 70 60 57 55 57 59 53 53 56 62 62 61 62 64 60 51 54 50 46 50 55 54 65 71 72 76 73
67 67 68 75 81 73 72 91 88 97 98 80 92 87 84 79 56 54 56 62 78 96 96 100 79 64 65 58 53 54 54 56 62 71 67 63 64 64 67 69 69 62 65 64 59 59 58 55 62 63 63 66 68 74
76 73 79 79 92 86 91 94 100 93 87 89 94 91 86 85 88 82 72 65 100 89 89 71 64 59 50 45 41 51 60 58 67 69 67 69 70 72 78 80 70 72 80 83 79 66 61 64 66 51 46 39 40 55
85 86 100 98 93 85 86 96 98 98 91 84 94 88 90 97 90 72 63 87 84 68 65 57 56 56 55 56 50 46 46 51 49 62 74 80 83 84 83 82 85 86 88 88 85 90 81 66 54 53 42 36 40 46
92 89 98 96 96 94 85 97 100 98 100 94 96 98 96 100 63 60 79 64 60 52 50 52 49 46 50 47 50 54 50 51 67 70 70 77 77 86 82 82 86 99 99 82 83 90 77 61 54 54 53 48 47 48
97 96 96 96 90 94 98 97 96 100 100 100 100 100 100 78 64 80 92 57 53 50 53 46 44 50 48 57 58 47 39 42 55 61 58 64 76 77 79 77 65 72 82 81 76 64 60 58 52 55 60 59 52 54
98 98 97 97 94 94 90 98 98 97 99 100 100 97 88 73 91 100 93 54 48 48 48 45 49 51 59 56 52 47 38 46 51 62 53 55 60 58 42 44 63 48 52 71 68 44 40 47 50 55 62 62 56 58
97 96 94 90 98 93 91 100 100 98 98 100 98 73 84 98 96 92 85 47 47 47 47 48 51 54 56 52 50 40 32 34 38 53 49 43 43 51 53 39 47 35 30 51 71 42 35 40 55 67 64 51 57 62
96 96 96 86 80 92 94 89 80 92 100 97 94 99 100 95 93 76 41 38 40 37 36 37 40 43 43 40 41 38 36 36 38 39 39 42 48 54 56 59 56 30 25 37 47 41 44 43 53 63 55 54 56 60
84 82 93 84 100 88 90 100 99 94 87 64 80 92 90 84 56 37 36 34 35 36 38 38 39 40 40 40 42 43 44 44 45 52 58 55 47 44 45 54 52 30 26 29 31 43 50 55 56 60 62 60 59 61
99 80 80 100 100 100 89 84 80 50 46 49 69 57 52 42 39 39 38 39 39 42 46 47 46 44 54 54 56 55 56 56 68 73 71 64 46 36 45 48 41 32 34 39 44 52 57 62 67 70 67 63 59 63
98 91 83 91 95 94 60 51 46 41 47 51 52 53 54 53 46 45 51 53 58 60 57 62 66 70 74 76 76 75 74 75 75 78 81 77 62 46 61 64 59 48 53 56 56 56 62 65 68 67 64 62 65 68
72 82 80 77 81 60 56 52 58 58 59 58 57 64 62 54 50 56 61 62 66 71 74 77 76 75 81 81 83 84 84 78 84 82 81 78 71 70 71 65 63 61 56 56 58 61 62 63 67 67 61 61 64 72
70 71 85 92 67 54 57 61 61 60 58 62 65 65 68 74 77 66 50 52 54 58 58 57 64 63 59 63 70 76 79 82 82 82 84 83 79 76 70 61 64 66 65 63 63 62 59 62 64 64 67 69 69 76
90 78 69 69 68 65 58 58 62 72 65 68 66 66 68 72 72 53 36 41 48 52 54 54 55 56 56 57 59 62 66 71 72 70 76 76 76 70 67 65 63 64 63 60 60 55 56 61 63 63 70 74 77 84

GFSWCAN_850_rhum_120.txt.gz
RH
98 99 99 82 86 86 80 68 60 58 62 69 70 74 72 69 62 56 48 44 42 38 39 50 50 53 60 53 48 49 53 56 73 61 60 62 61 58 55 49 80 86 96 96 89 97 61 47 45 30 23 30 34 31
97 98 100 89 83 86 84 74 61 57 57 60 68 68 68 72 71 66 63 59 58 51 47 48 56 58 51 50 48 51 44 55 55 66 75 70 64 77 60 39 63 59 60 73 78 67 42 41 37 30 35 38 34 40
96 93 99 100 84 87 86 78 64 59 60 57 53 60 62 62 66 68 67 62 51 52 54 57 59 58 60 60 60 54 58 55 58 58 62 74 61 64 59 64 47 47 51 57 46 33 44 30 30 33 40 38 45 46
92 91 94 99 96 90 88 82 68 60 59 58 56 50 46 56 66 66 66 63 55 61 66 58 66 71 66 62 59 62 62 60 65 67 66 75 65 55 63 56 56 43 51 50 54 39 36 29 42 48 44 52 57 57
94 91 90 94 99 98 93 85 72 62 60 60 58 57 51 46 68 78 80 60 64 66 70 65 69 68 68 67 66 64 68 69 68 64 80 82 73 78 85 84 89 56 50 53 54 45 58 58 49 44 42 55 63 68
96 89 92 92 95 100 99 92 76 66 64 62 58 51 49 60 74 84 75 61 58 76 74 89 70 76 70 66 68 70 73 75 69 66 74 72 72 72 90 88 60 53 50 51 55 55 46 43 39 42 38 40 57 63
98 94 92 95 94 93 95 97 92 74 66 63 54 47 41 60 85 72 86 84 88 84 77 78 80 81 79 73 74 82 84 83 80 75 87 88 82 85 91 94 57 54 61 58 48 42 34 42 44 37 42 43 45 50
95 94 93 94 96 94 90 94 95 79 66 54 50 45 50 90 66 75 80 90 88 81 79 95 90 82 78 80 84 87 88 88 89 88 91 94 84 91 98 74 64 58 49 39 39 37 35 33 31 33 37 40 39 39
92 94 94 99 98 95 92 93 91 83 72 57 52 60 88 88 94 95 86 86 80 80 82 98 98 89 83 86 88 89 88 92 91 93 93 92 92 98 79 67 61 56 48 33 37 39 40 41 41 38 32 32 38 37
95 97 98 99 99 100 89 95 88 74 57 56 63 73 90 96 94 91 87 86 90 92 92 98 98 99 79 87 92 89 91 96 98 90 91 99 96 70 61 57 42 28 36 40 44 47 47 46 44 40 41 41 36 37
90 97 93 96 98 99 100 94 74 59 65 83 69 84 94 94 93 92 90 93 92 94 95 98 99 96 85 89 92 91 95 93 87 90 94 92 96 75 51 29 37 42 46 49 50 50 50 48 50 47 40 40 44 42
99 100 100 100 100 99 80 63 56 62 67 67 82 96 95 95 95 96 97 97 99 83 88 99 98 96 90 83 86 96 96 88 97 91 89 93 86 56 43 43 45 46 42 38 35 36 42 47 46 45 38 33 36 39
100 100 100 99 98 94 96 94 84 79 78 86 85 86 87 95 96 97 95 92 98 82 90 97 94 91 90 86 91 94 96 91 88 94 94 90 63 47 48 49 47 41 37 37 35 31 31 38 44 39 35 31 32 33
99 99 99 99 98 96 94 99 98 99 92 86 89 100 92 96 96 93 93 92 80 84 92 92 89 88 88 90 90 98 92 92 95 99 94 89 53 48 54 55 47 55 57 57 54 48 45 38 40 42 40 36 31 28
97 97 96 94 88 86 92 98 98 97 80 85 99 96 98 80 76 79 87 91 89 94 90 88 87 90 98 97 89 92 99 94 92 94 90 55 52 52 54 52 62 64 60 52 47 42 39 40 43 43 41 39 32 30
93 93 82 64 53 54 65 86 96 97 77 85 87 89 84 83 84 83 80 85 95 87 85 81 95 94 100 95 97 87 87 88 86 90 56 58 57 55 51 46 47 48 49 51 48 44 47 48 47 45 44 41 35 43
91 56 45 47 48 55 63 76 84 67 75 93 88 90 92 89 86 89 88 90 98 98 94 93 97 91 94 97 98 94 93 86 59 60 53 53 51 42 32 29 29 30 40 48 56 58 56 47 46 51 47 36 39 65
46 38 44 66 59 64 85 69 56 73 97 96 93 83 87 83 81 76 68 77 82 96 86 91 75 100 99 95 95 86 67 54 43 46 43 42 36 24 24 27 26 37 52 52 58 62 56 47 55 56 51 42 57 70
48 60 64 69 66 63 61 60 61 75 89 95 96 81 82 82 71 52 52 61 80 87 79 89 96 99 87 71 59 48 46 48 52 46 38 30 38 35 34 47 56 61 59 59 64 67 59 58 69 63 53 58 70 66
69 72 78 76 72 60 73 89 80 99 100 88 99 92 87 77 56 51 46 56 76 97 100 99 96 64 65 58 54 48 41 41 52 62 59 54 56 59 63 65 66 65 70 71 72 68 62 78 69 57 66 74 75 61
81 84 89 93 89 71 76 85 98 88 85 92 100 92 83 86 86 73 62 66 96 90 91 65 60 46 35 34 33 39 43 51 61 64 63 65 66 71 72 71 71 76 80 79 77 76 91 87 77 82 88 82 75 70
86 86 98 99 76 75 79 97 94 97 91 90 98 88 96 100 97 80 72 95 87 69 60 58 54 53 53 49 41 42 46 50 54 60 61 68 78 79 77 65 74 78 74 73 74 73 79 76 65 70 68 63 67 64
100 100 93 91 90 88 91 99 98 99 98 92 98 99 100 100 77 67 76 74 51 40 42 47 42 39 47 45 52 55 52 56 59 54 54 58 57 55 58 56 62 59 58 57 56 66 72 72 72 65 61 64 68 67
95 97 94 95 84 98 99 95 95 98 99 97 98 100 100 87 78 92 96 51 44 42 45 44 47 52 53 59 62 52 41 42 52 52 47 53 56 44 46 50 54 52 44 44 46 45 37 47 56 52 54 60 60 65
96 98 97 97 95 97 92 97 98 93 98 93 100 100 93 81 96 100 100 50 42 43 45 46 48 52 62 59 52 48 35 46 47 45 32 35 35 43 44 35 45 52 43 50 53 50 43 38 39 42 52 67 63 58
96 97 94 91 98 93 94 99 96 98 98 100 100 78 90 100 99 88 83 40 41 38 35 35 38 47 51 45 50 43 34 32 36 41 34 34 41 53 55 53 43 40 36 52 66 60 46 39 53 72 77 65 66 66
96 96 97 87 80 86 94 94 90 95 100 96 93 100 100 95 94 78 36 35 36 34 33 34 36 38 40 41 40 44 45 47 52 51 50 52 52 54 57 62 64 52 42 45 60 60 60 52 57 65 63 65 69 62
96 93 96 100 94 89 96 100 96 93 88 68 82 91 90 86 63 36 34 33 35 37 39 38 38 40 43 46 48 49 52 54 56 58 61 60 58 55 57 58 47 41 40 37 43 45 47 50 52 57 68 72 69 60
92 79 77 100 100 100 93 85 84 57 41 48 81 61 58 40 38 40 40 41 44 49 51 52 48 54 61 62 63 64 66 68 74 79 81 82 77 66 69 75 68 53 44 47 48 57 58 59 63 68 71 68 64 62
93 83 80 99 100 98 61 60 48 38 42 47 51 52 52 48 42 45 51 52 54 52 49 58 62 67 71 75 75 73 71 76 81 86 91 92 84 74 77 80 81 74 73 76 74 73 71 66 66 69 64 64 67 66
78 90 84 86 85 52 47 45 49 52 54 55 54 65 63 56 48 46 53 45 55 51 53 48 42 47 57 60 64 70 69 59 69 74 79 82 86 89 87 84 80 80 79 76 78 74 75 74 70 64 60 62 62 68
85 88 88 94 83 52 54 60 60 60 56 58 63 62 63 69 71 60 30 38 40 36 35 41 46 47 50 57 61 65 69 74 74 75 80 83 88 92 89 85 85 86 86 84 82 74 78 80 71 64 66 65 66 67
100 96 87 77 68 64 54 55 55 67 60 58 56 55 60 67 70 48 36 36 32 30 36 45 48 53 57 63 74 85 91 91 88 81 75 77 80 79 80 80 82 84 86 85 81 79 81 78 72 71 69 68 65 70

GFSWCAN_850_rhum_123.txt.gz
RH
100 98 94 98 100 94 90 83 70 61 56 59 64 68 75 74 68 63 55 58 53 42 41 47 49 50 54 51 47 52 58 60 72 58 56 60 59 59 54 55 83 90 95 96 88 95 57 46 44 31 26 37 37 36
99 98 95 95 100 96 91 86 74 63 58 58 62 64 66 67 66 66 67 60 55 54 50 48 56 57 54 51 46 57 41 52 54 63 72 67 64 77 59 37 65 58 61 69 74 64 42 44 34 36 41 48 45 45
98 97 93 93 99 98 91 91 82 67 61 62 62 58 58 58 63 60 59 60 50 50 56 58 58 59 61 61 58 53 57 54 56 55 61 72 59 64 60 62 46 50 54 58 50 48 44 32 35 48 51 48 42 44
95 97 92 93 96 100 96 93 86 70 64 62 62 59 54 49 52 63 59 62 56 61 64 61 67 71 67 63 58 60 59 59 64 66 64 73 62 54 58 55 56 44 55 54 54 39 40 38 48 44 43 33 34 38
95 92 94 94 98 98 100 99 92 74 64 62 62 61 58 52 41 62 68 64 64 63 68 67 72 72 72 69 67 65 67 70 70 67 78 78 72 74 85 84 88 55 50 49 52 45 56 51 39 38 36 36 38 44
97 94 90 95 100 93 99 100 97 79 66 62 63 61 56 50 41 63 78 61 58 78 62 89 72 75 73 71 68 70 73 74 70 65 71 74 74 74 87 83 60 57 53 53 55 58 49 34 34 37 40 42 43 45
96 94 88 93 100 98 92 99 99 82 70 66 64 60 53 48 61 66 73 73 77 77 69 78 82 83 79 79 79 83 82 82 76 71 83 85 83 86 91 93 63 63 59 49 44 35 31 33 39 40 39 36 33 36
96 97 86 93 100 100 96 92 95 96 82 68 63 56 52 62 82 68 68 79 79 72 76 95 90 82 81 80 83 88 89 87 86 85 91 93 88 94 99 78 68 61 41 36 35 35 40 42 42 42 40 39 37 36
100 98 85 93 98 100 99 93 95 95 87 71 59 55 53 73 72 76 78 86 82 69 75 98 98 88 89 90 89 90 89 92 94 94 94 93 93 98 83 69 62 50 38 40 45 46 48 46 44 44 42 39 37 37
98 94 87 96 99 97 100 97 98 98 84 78 72 55 73 89 78 85 88 86 90 91 93 95 99 97 85 90 93 90 91 97 99 91 95 97 95 76 66 61 50 37 42 47 49 48 50 48 49 44 42 37 34 30
94 87 89 93 89 90 94 99 100 92 81 71 63 62 75 86 86 92 92 96 94 93 96 99 95 96 88 90 94 92 96 95 92 90 94 87 95 76 60 38 40 47 46 44 40 42 45 45 45 46 38 36 36 33
97 92 96 91 95 89 97 99 99 93 80 68 60 84 93 89 94 95 98 96 97 92 93 100 99 98 91 84 88 97 96 92 93 92 94 90 85 64 47 48 48 41 41 44 51 52 49 43 38 38 40 40 40 40
99 99 99 100 99 100 97 100 100 94 91 89 96 91 86 99 99 98 89 89 88 84 91 99 99 95 95 88 92 94 97 94 90 96 90 91 66 59 51 49 53 56 56 58 47 34 33 33 31 33 34 32 39 40
100 100 100 98 100 99 100 99 100 100 97 96 86 99 90 98 96 93 91 90 81 85 91 95 94 92 91 93 92 97 90 88 96 96 95 89 60 56 52 50 47 48 44 46 46 47 45 46 50 52 42 39 41 38
100 100 100 100 99 99 100 100 100 99 97 93 94 93 99 79 81 80 89 90 93 96 95 94 92 91 99 98 87 91 98 96 88 93 91 58 57 56 52 50 45 40 36 33 34 40 38 39 50 51 42 33 29 32
99 99 98 98 99 99 99 100 100 98 92 89 91 93 92 86 88 93 85 81 95 92 94 90 94 94 99 94 96 88 88 86 86 91 58 56 46 45 44 34 32 33 37 39 38 42 41 45 50 48 44 36 30 38
96 96 97 98 99 99 99 98 97 96 81 92 93 90 85 89 88 89 81 86 98 97 98 98 97 92 94 97 98 95 89 88 60 58 50 40 40 37 31 27 31 33 32 34 35 37 39 36 36 40 38 35 35 45
95 97 94 96 95 92 92 90 73 76 100 98 95 94 92 89 79 84 84 90 95 97 89 93 84 100 98 95 94 86 69 56 48 45 37 29 28 27 32 32 29 34 37 37 38 41 38 35 37 42 45 42 58 61
53 84 88 87 89 73 64 63 58 69 89 92 92 93 92 87 78 69 68 72 76 84 84 94 99 100 96 78 70 55 47 43 38 33 30 28 33 36 37 39 46 47 46 45 44 41 40 38 51 57 54 66 82 81
65 84 89 85 68 56 69 88 75 81 94 92 91 92 84 79 67 61 64 72 83 90 96 95 96 61 57 41 34 34 33 35 47 57 56 51 50 54 54 54 54 52 49 45 45 44 46 59 62 61 70 85 98 80
91 95 90 83 72 64 72 86 96 89 90 86 89 83 86 84 79 74 68 71 87 91 92 66 40 26 26 27 27 31 39 52 62 66 65 65 58 64 63 58 50 48 53 50 50 52 62 65 63 58 59 58 68 71
98 100 100 96 77 70 77 85 85 92 91 95 96 95 100 100 100 81 78 94 91 53 52 31 24 25 26 26 26 29 37 47 53 58 57 60 72 65 69 59 59 59 55 49 51 58 53 49 43 43 46 45 49 53
87 98 88 83 71 79 88 97 91 95 99 98 98 100 99 100 92 78 91 78 60 32 24 26 26 28 33 35 41 44 43 44 48 46 47 49 52 57 57 51 53 58 56 44 46 52 55 54 50 42 44 47 47 49
90 87 75 76 84 93 98 98 98 96 94 95 92 100 100 92 95 99 96 62 32 32 32 32 37 40 42 41 44 32 28 29 36 38 32 38 54 36 34 46 42 39 39 37 38 41 38 37 41 44 37 43 56 63
96 98 96 98 99 96 97 99 98 96 93 87 98 100 98 88 98 100 100 43 34 32 29 28 32 36 43 36 32 30 28 31 42 48 36 36 39 38 37 38 39 40 43 44 42 41 40 42 41 42 40 59 68 63
96 96 94 91 99 92 89 98 98 96 97 99 100 89 92 100 100 90 86 31 29 28 29 29 30 32 36 34 36 38 40 40 53 58 48 44 50 60 62 62 57 47 43 51 59 63 62 57 51 48 52 63 71 65
96 96 97 92 83 86 94 93 93 96 100 96 93 100 100 98 91 76 29 26 27 26 25 28 32 34 36 39 44 46 48 51 54 55 55 58 59 61 67 72 73 66 65 65 72 73 73 68 61 65 72 67 68 63
97 96 94 99 91 85 100 100 93 92 84 73 86 100 89 85 76 29 27 26 28 29 32 36 39 43 46 46 48 54 53 56 61 65 68 67 64 64 68 70 69 68 73 73 77 79 81 82 73 65 64 65 73 70
96 94 90 96 98 93 84 87 87 64 51 60 82 82 70 34 29 31 31 32 35 41 45 43 28 47 56 56 53 46 51 59 73 77 78 78 75 70 70 78 80 80 81 81 82 82 81 80 78 77 76 79 80 74
96 89 85 94 94 93 76 68 53 44 49 46 43 42 43 41 36 34 41 42 42 38 34 38 51 54 52 44 40 42 46 56 67 78 86 87 76 76 84 84 83 82 86 95 96 94 91 89 87 87 85 85 81 74
88 89 95 95 94 76 71 66 64 59 51 48 49 56 52 51 40 26 38 27 29 30 32 31 30 31 35 38 40 43 50 52 59 70 82 93 96 94 92 91 90 92 96 96 96 96 95 91 90 88 84 80 68 65
88 90 92 95 86 58 58 59 61 58 55 55 57 54 56 65 68 48 26 25 28 26 24 27 30 28 31 39 46 50 56 72 83 88 100 100 99 97 97 98 98 97 97 96 95 94 96 94 91 88 86 72 65 67
100 100 95 84 74 66 59 57 58 65 64 61 50 47 51 57 62 33 27 28 32 31 31 32 34 36 37 46 51 56 73 90 86 78 85 98 99 94 88 97 99 99 96 96 96 96 97 96 91 82 75 74 71 74

GFSWCAN_850_rhum_126.txt.gz
RH
98 96 98 98 98 99 100 92 84 74 62 58 59 66 68 68 63 63 56 54 51 48 43 44 47 48 52 48 37 56 60 62 57 43 36 38 39 39 43 44 62 59 66 68 66 69 50 43 45 33 34 42 46 43
99 97 97 98 96 97 100 98 90 80 65 59 58 58 60 61 56 56 59 56 53 52 50 46 53 55 55 52 43 57 43 53 50 41 47 46 46 49 39 27 54 46 45 45 48 39 41 46 40 40 47 49 50 50
100 98 95 97 95 94 99 100 96 87 71 63 61 58 53 50 51 54 55 56 51 50 56 59 58 60 61 58 55 55 53 50 55 49 51 50 44 44 39 38 35 44 52 44 46 41 44 38 41 49 48 48 39 40
100 99 96 94 90 93 93 100 100 97 78 66 64 62 58 56 51 49 55 56 55 56 62 61 64 70 66 64 64 62 58 57 61 62 62 52 44 50 38 43 39 38 48 44 42 37 42 43 46 45 38 38 42 47
99 100 97 96 88 93 96 98 100 100 84 69 65 63 62 59 52 43 53 59 59 58 64 66 67 70 73 71 66 65 68 67 66 71 70 60 65 57 70 68 58 46 37 35 32 40 48 48 37 34 35 37 36 36
97 100 100 92 91 85 95 98 99 100 91 71 65 64 63 58 49 54 70 58 55 66 55 74 70 76 74 72 72 73 74 76 71 69 69 74 73 71 69 62 52 57 42 40 49 53 52 34 34 40 40 43 43 40
94 100 100 96 93 88 90 100 97 100 97 73 65 64 63 57 53 63 66 64 67 48 60 80 84 84 81 80 79 82 82 80 76 70 82 79 84 84 76 70 59 59 57 61 53 36 37 43 46 48 46 42 39 36
99 100 100 99 95 94 90 100 91 99 96 74 68 66 63 57 60 71 62 61 63 62 63 93 89 82 84 82 86 86 88 85 85 87 90 86 89 92 90 69 65 67 51 48 39 41 44 46 42 39 37 34 30 29
94 100 100 100 96 97 88 100 99 99 99 79 70 73 71 77 79 77 71 76 71 67 79 98 92 86 87 90 88 88 88 83 91 86 86 92 82 93 70 70 73 57 43 44 49 48 40 37 37 36 34 34 34 30
99 99 100 100 97 96 88 98 100 100 100 83 93 82 78 78 77 76 84 87 88 87 84 91 96 94 86 93 90 88 92 82 92 82 96 91 84 77 66 68 57 45 43 47 32 35 38 42 44 42 40 38 39 41
99 100 100 100 97 95 88 99 100 100 100 100 97 79 77 81 82 90 94 93 95 94 99 99 97 92 88 83 80 92 88 86 92 84 90 80 83 74 68 61 57 47 40 38 46 50 47 37 33 32 27 26 30 30
99 100 100 100 98 97 94 100 99 100 97 90 81 88 94 92 93 91 96 94 91 85 100 95 98 95 94 86 85 95 89 87 91 91 87 87 72 70 53 48 48 44 46 49 47 34 26 27 32 34 34 34 36 34
100 100 100 100 97 99 98 100 100 100 100 96 99 99 98 99 97 98 91 89 89 94 99 100 98 97 95 88 93 86 94 88 88 90 86 75 74 61 55 51 52 47 40 32 37 40 36 32 33 35 35 32 41 42
100 100 99 96 98 100 98 100 100 100 100 99 99 97 95 96 90 86 75 81 80 84 93 92 100 92 93 89 85 97 85 83 92 91 87 71 66 56 48 44 42 40 36 34 31 28 28 30 29 28 26 26 27 27
99 100 97 98 100 100 100 100 100 98 99 98 98 96 96 81 86 76 83 92 92 90 93 90 95 90 93 93 83 88 96 95 81 81 74 70 57 52 50 48 44 38 35 36 35 35 35 36 34 28 22 21 19 23
100 100 100 98 100 100 100 100 100 99 99 98 98 97 96 88 99 98 93 97 96 96 92 87 93 95 94 89 92 92 88 86 76 82 64 57 48 42 35 35 29 30 32 35 38 40 42 39 32 27 24 20 22 33
100 98 100 100 100 100 100 99 98 98 97 98 99 96 91 88 88 86 82 84 95 94 94 95 96 94 92 94 91 77 83 75 65 63 57 44 39 36 32 31 33 33 35 40 42 41 38 33 32 29 24 22 33 42
98 99 100 100 99 99 98 96 96 96 98 98 96 98 96 91 94 94 91 93 98 98 96 92 86 97 97 92 86 77 72 61 48 43 35 31 36 39 38 36 35 37 40 42 40 38 38 35 30 27 36 40 56 56
98 98 99 99 99 93 96 96 90 92 97 97 97 97 94 88 83 78 90 93 93 86 80 93 96 99 87 79 69 51 45 41 33 33 35 37 38 40 40 41 45 47 43 37 37 35 37 39 43 39 44 58 65 53
98 97 97 95 94 86 94 96 86 85 93 90 94 94 86 84 84 84 81 80 78 73 90 95 84 68 53 25 25 25 25 30 42 52 53 48 40 37 34 36 44 41 47 45 49 48 42 42 38 37 48 48 52 47
96 98 93 88 70 78 82 95 95 93 92 92 98 92 92 89 84 79 82 83 81 85 91 59 31 12 12 14 17 21 28 30 35 40 46 56 44 59 64 66 57 54 56 55 50 44 44 40 38 42 47 48 49 51
97 92 88 78 61 79 83 90 89 94 92 100 96 89 95 96 93 80 92 99 88 44 41 26 12 13 15 17 20 24 30 34 38 40 36 36 45 47 42 46 52 49 47 45 44 44 35 32 31 36 42 42 43 40
95 82 68 62 62 69 98 94 91 100 94 100 98 97 97 100 91 86 99 84 53 28 23 16 16 19 23 26 32 32 28 29 30 29 29 29 32 32 33 32 32 44 45 32 30 31 34 34 36 38 41 42 42 39
89 71 63 69 78 100 99 98 94 95 96 95 94 98 100 98 100 100 96 71 35 24 23 19 23 27 29 29 28 24 22 24 29 29 30 33 40 37 37 42 37 36 38 51 56 50 52 45 44 48 46 47 46 49
70 78 82 100 100 93 99 98 98 93 92 92 96 98 97 97 99 100 100 64 27 23 21 22 26 28 30 25 24 25 26 29 32 37 34 36 56 61 59 60 65 57 66 75 69 72 70 72 69 66 63 66 63 67
96 95 96 93 99 89 93 98 98 95 88 96 97 93 98 97 100 92 82 30 23 21 21 22 24 25 25 26 28 30 30 33 42 49 39 39 58 69 69 71 72 64 72 73 73 74 73 73 74 73 74 73 75 92
96 98 100 91 86 88 94 94 90 93 100 100 98 100 100 97 92 74 35 26 23 20 22 25 26 28 30 32 35 40 40 43 48 50 47 52 62 68 71 71 72 65 63 75 80 83 86 86 85 86 88 85 90 95
96 98 96 99 89 85 99 99 96 98 90 80 91 100 94 83 70 32 26 27 26 26 26 28 30 32 34 36 37 38 37 42 49 53 48 48 52 54 54 57 65 69 72 77 80 83 94 96 94 92 93 90 86 87
96 95 88 98 96 90 83 85 85 64 57 71 83 83 76 39 34 37 34 32 31 31 33 33 23 24 32 32 39 43 45 47 54 54 55 55 56 56 62 78 84 88 90 93 90 93 95 97 96 97 96 96 97 98
94 94 92 95 95 95 77 70 64 55 50 47 43 42 42 44 43 41 40 38 38 34 24 29 30 45 42 46 39 35 33 36 42 51 59 56 58 74 82 89 95 100 98 97 96 94 95 98 97 96 95 97 100 97
93 92 90 90 90 71 64 60 59 59 62 61 56 60 56 55 46 30 33 28 23 20 24 25 28 32 34 32 34 35 37 33 38 49 56 66 81 83 84 85 94 97 97 97 97 96 97 97 98 98 96 95 93 92
95 90 92 100 91 70 66 66 64 66 66 69 68 63 62 66 65 46 17 25 22 25 24 28 30 29 31 34 35 37 38 41 41 49 64 82 92 91 83 86 95 96 100 100 99 97 97 97 97 97 94 93 89 85
98 100 95 86 82 72 65 64 70 69 70 66 55 52 52 58 56 34 25 21 25 26 28 32 34 34 33 34 36 38 39 46 49 55 66 86 97 97 91 90 96 97 97 96 100 100 100 99 100 99 94 89 90 96

GFSWCAN_850_rhum_129.txt.gz
RH
100 98 97 98 95 94 99 96 100 93 86 68 61 61 62 60 60 59 55 53 48 58 50 39 43 49 48 43 29 56 55 58 51 44 30 27 28 28 32 30 46 47 53 54 47 52 51 37 38 31 33 38 41 40
100 100 98 97 99 93 93 96 99 94 92 75 64 62 62 59 58 56 54 52 49 49 53 47 50 49 50 50 46 60 48 43 39 36 37 33 34 34 27 25 39 41 33 33 37 33 35 38 36 42 47 43 45 46
100 100 100 96 97 98 87 94 98 99 97 83 68 65 64 58 52 51 54 55 51 48 57 56 64 57 60 56 51 54 54 51 56 49 43 39 41 32 30 28 27 33 40 37 39 33 38 38 44 49 40 46 43 42
99 100 100 100 96 99 86 91 93 99 100 96 74 67 68 63 58 52 54 55 53 53 60 64 57 62 59 60 61 60 60 54 55 55 52 45 40 40 32 37 33 34 40 34 34 32 34 40 48 46 48 44 41 39
99 99 100 100 99 96 89 88 89 93 97 99 83 70 67 67 63 53 53 58 58 58 66 67 65 68 68 66 63 62 65 67 69 63 62 56 53 48 49 55 45 37 31 35 28 31 37 41 48 36 39 44 45 46
77 97 100 100 100 99 92 88 90 90 94 99 91 75 70 67 64 56 67 60 62 65 63 70 69 76 75 73 72 71 70 78 75 63 58 58 72 63 58 50 38 42 39 37 36 49 52 50 40 42 42 40 38 35
68 77 90 100 100 100 96 86 94 100 93 99 95 76 71 71 70 66 79 65 59 60 64 82 85 82 80 79 78 85 80 86 77 70 72 66 69 73 65 59 43 49 48 55 56 47 42 44 46 43 39 34 30 29
68 69 75 100 100 100 98 87 89 98 100 100 95 75 71 78 83 74 63 63 59 50 60 99 92 84 82 84 84 83 90 89 86 75 84 75 79 81 82 53 58 61 61 62 52 39 43 43 38 36 35 36 36 37
63 70 71 90 100 100 100 90 89 92 100 100 92 80 88 96 85 74 69 72 65 64 92 94 96 95 84 91 91 88 89 79 86 77 77 84 72 89 63 57 60 65 54 53 44 47 40 40 43 42 36 29 23 20
60 69 74 84 100 100 100 96 94 90 100 100 98 96 90 81 76 74 74 78 84 83 78 89 94 90 90 86 80 80 83 71 90 73 91 87 78 66 68 71 66 64 47 49 48 44 44 40 30 22 18 17 18 19
56 64 73 83 100 100 100 99 98 100 100 100 99 96 88 89 82 82 96 94 93 92 96 93 93 88 90 81 74 81 87 79 90 86 84 76 76 63 70 70 62 49 46 38 40 43 28 23 22 20 18 17 20 25
58 61 68 81 100 100 100 100 100 100 99 99 91 98 99 95 96 98 94 90 92 82 95 89 93 92 92 79 77 88 87 84 88 84 87 87 67 72 72 70 51 43 45 48 44 32 26 23 24 26 24 19 20 21
62 59 67 83 100 100 100 100 100 100 100 100 99 100 100 99 98 96 96 86 86 84 100 100 97 94 88 89 84 81 91 88 77 88 82 70 70 59 59 51 50 48 40 30 27 25 25 25 26 27 27 22 24 24
51 54 64 99 100 100 100 100 100 100 100 100 99 98 98 96 88 84 67 82 89 95 100 98 99 90 89 85 79 93 78 76 88 91 82 63 68 60 62 52 42 41 32 29 28 29 29 30 28 26 25 25 27 23
44 46 61 100 100 100 100 100 100 100 97 99 99 97 96 84 91 86 70 87 92 98 92 94 94 85 88 92 77 82 93 90 77 76 71 79 67 60 50 44 39 34 31 32 32 31 30 32 32 30 26 28 24 24
51 63 95 100 100 100 100 100 100 100 99 99 99 98 90 85 97 100 100 100 88 92 86 86 90 94 92 86 90 89 84 83 74 83 80 68 55 46 42 41 40 35 35 35 34 34 37 36 34 33 34 31 28 32
100 97 100 100 100 100 100 100 99 98 98 98 97 96 89 80 87 95 96 96 90 94 95 95 96 87 91 91 88 75 82 81 75 67 60 51 41 33 29 28 25 24 25 28 29 28 31 35 41 46 39 29 29 32
100 99 100 100 100 100 100 99 97 97 98 99 92 100 100 96 90 88 84 89 95 99 96 97 88 94 88 84 80 75 74 62 57 50 46 36 32 26 24 22 20 21 27 29 34 39 40 39 41 37 33 31 45 38
100 100 100 100 100 97 97 97 97 96 98 100 100 99 99 99 95 88 89 97 98 98 95 90 91 90 81 74 71 60 58 48 39 34 33 30 25 20 18 22 25 30 31 30 31 34 37 40 40 34 32 33 36 33
98 98 99 99 99 96 96 97 97 94 95 98 98 98 98 95 98 99 99 99 97 86 86 91 75 68 61 36 23 22 18 19 30 43 40 38 39 42 44 41 37 29 30 34 36 31 28 28 27 29 31 30 34 31
96 98 98 97 96 94 96 97 96 96 96 97 97 97 98 97 99 100 99 88 78 85 84 47 33 17 14 13 13 13 15 20 24 28 37 43 26 32 34 30 29 37 43 37 33 33 38 44 32 32 32 32 32 34
96 96 93 90 91 94 95 96 96 96 95 100 94 88 100 96 99 100 97 96 94 46 34 23 14 11 10 11 13 17 22 26 27 30 27 25 27 26 29 30 35 43 43 37 43 61 56 48 45 50 66 68 65 56
86 64 53 52 75 91 97 95 96 98 92 97 94 91 93 96 99 91 100 90 56 35 25 21 16 12 12 14 18 21 21 21 22 23 23 24 27 29 30 31 32 50 59 64 70 73 73 63 70 78 74 71 71 67
67 60 65 78 84 97 94 99 97 96 97 90 89 91 94 98 99 100 87 75 40 28 21 16 14 15 17 20 22 19 16 17 20 23 25 28 32 30 41 45 48 53 61 64 66 66 70 76 79 83 83 84 85 90
54 80 71 100 92 91 92 92 94 84 91 89 89 90 91 98 92 98 90 66 33 22 16 18 22 24 26 20 19 19 18 21 26 35 28 30 47 54 50 50 54 60 68 70 66 69 73 80 84 87 89 92 94 95
93 95 90 90 96 84 88 94 93 90 86 93 90 97 95 89 92 84 78 40 24 21 20 20 20 20 20 21 22 23 23 26 36 41 30 32 52 61 62 63 58 48 64 73 76 76 77 83 87 88 92 95 98 97
98 97 99 89 89 85 86 91 85 85 93 91 92 95 92 94 89 72 37 27 23 22 20 21 23 24 24 25 26 28 32 36 42 42 41 41 51 59 60 60 52 49 59 68 76 83 86 95 96 96 100 99 100 100
94 95 95 96 91 79 92 90 93 93 86 85 85 100 92 80 69 34 25 24 27 33 38 39 36 33 32 32 34 36 36 38 42 49 48 41 45 41 42 46 52 63 71 74 76 80 89 97 98 97 99 98 96 96
99 97 86 98 96 89 84 84 84 67 62 74 81 78 77 45 32 31 31 31 32 38 42 42 36 35 38 32 30 36 37 43 55 59 58 44 37 36 37 49 61 75 80 82 74 80 88 98 97 96 96 98 95 96
93 94 93 93 94 93 76 62 59 53 50 49 46 46 43 39 40 42 40 39 42 44 39 32 23 23 21 24 27 31 34 37 38 40 41 38 37 38 44 56 67 77 88 86 87 90 89 98 96 96 96 96 96 96
95 95 92 89 91 75 70 67 64 66 66 63 59 57 55 57 49 40 38 31 34 25 18 13 13 17 22 26 30 34 35 34 35 37 39 41 46 47 49 57 78 88 96 93 92 95 96 100 99 98 97 96 95 97
99 97 93 100 91 78 76 78 78 77 71 73 72 71 72 70 67 44 14 24 18 19 17 20 22 24 29 33 35 36 37 38 39 41 44 45 51 58 65 72 87 97 98 96 96 92 96 100 100 100 98 98 97 97
99 98 99 93 86 80 73 71 73 73 73 71 58 51 56 56 58 28 22 19 20 19 21 24 29 32 35 37 38 38 39 41 46 53 61 79 87 89 94 96 97 98 99 87 88 94 94 98 100 100 100 100 100 100

GFSWCAN_850_rhum_132.txt.gz
RH
100 100 99 96 98 99 98 99 98 100 97 80 70 62 58 60 58 55 56 57 52 60 56 38 39 47 43 39 42 60 62 63 62 61 44 39 41 40 36 41 61 65 76 73 62 64 62 35 38 41 40 38 40 41
100 100 100 97 94 97 98 96 97 98 100 90 84 66 61 58 57 52 56 58 55 52 63 48 46 44 47 48 42 55 48 46 48 54 48 44 45 42 36 38 39 54 46 52 54 57 40 35 41 43 39 39 43 36
100 99 100 100 97 95 97 98 91 94 100 100 97 75 66 64 61 54 52 59 57 56 67 57 63 54 53 51 47 53 52 48 49 47 54 58 51 44 46 42 33 39 38 46 40 44 45 41 43 45 34 28 31 36
98 100 100 100 100 99 96 96 96 93 95 100 100 90 71 69 65 60 54 55 58 57 72 72 60 59 59 58 57 53 57 47 49 48 56 62 56 40 48 46 43 42 44 45 44 38 37 39 43 44 32 34 35 36
88 97 99 100 100 100 100 96 93 91 96 94 98 100 78 70 70 64 58 55 58 58 88 75 67 66 66 66 61 62 63 66 68 69 76 76 55 54 50 65 66 39 44 49 47 34 39 45 49 37 37 38 38 40
52 63 92 100 100 100 100 100 94 90 94 98 93 100 87 72 70 66 61 64 64 68 60 95 76 78 74 71 73 71 72 75 70 66 66 58 65 62 77 69 41 34 32 36 40 46 42 45 36 39 44 41 38 34
41 55 62 82 98 100 100 100 99 91 93 100 100 100 94 77 70 69 75 68 60 64 55 90 93 82 80 80 79 81 77 79 77 71 74 67 70 64 82 81 44 45 44 44 49 46 48 42 45 41 39 35 32 34
44 46 56 62 74 93 100 100 100 97 93 100 100 99 94 83 83 76 66 63 62 54 58 98 97 81 81 84 87 82 90 82 80 81 81 78 77 81 96 66 56 51 51 58 56 42 35 42 44 38 35 33 26 20
49 48 52 56 64 71 93 100 100 100 97 99 100 100 100 99 85 74 70 67 69 65 88 97 98 96 84 87 85 81 88 94 85 90 84 85 89 97 76 60 58 60 61 56 47 46 47 41 39 36 25 19 18 17
57 45 50 53 56 65 75 100 100 100 100 100 100 98 99 90 79 76 72 72 80 79 76 98 89 98 86 86 84 85 83 92 96 89 87 93 87 70 67 66 64 64 54 51 49 48 44 40 30 23 22 20 18 16
60 47 43 50 53 60 70 99 100 100 100 100 100 100 99 96 86 79 89 93 95 95 96 93 89 94 90 94 91 79 86 87 92 96 90 86 92 71 67 69 67 63 52 52 44 40 31 24 23 20 19 18 16 16
71 50 46 49 54 58 68 93 100 100 100 98 98 100 100 98 99 98 98 94 93 93 92 96 94 88 81 77 82 88 93 88 92 84 86 86 89 70 70 72 55 51 47 47 41 33 29 25 23 21 20 18 18 18
89 73 54 52 54 56 66 83 100 100 100 100 100 100 100 99 99 98 97 98 98 86 99 99 98 86 83 85 86 89 97 90 79 86 83 90 71 61 70 57 53 53 37 29 27 25 24 24 23 23 22 20 20 21
100 99 83 63 59 59 65 78 100 99 100 98 99 98 98 98 95 92 90 89 82 90 96 94 99 91 87 89 90 97 85 79 92 88 92 90 62 62 62 54 40 33 29 28 27 26 26 25 24 23 23 24 28 28
96 91 76 65 57 59 65 76 100 100 97 100 99 98 98 86 88 82 80 89 96 91 91 92 95 91 99 98 96 98 96 96 86 90 94 72 61 61 50 43 37 36 29 26 24 22 20 21 24 29 31 34 30 28
72 73 70 60 60 59 63 90 100 100 100 99 99 99 94 89 97 94 92 99 98 93 82 85 98 98 98 98 97 94 93 91 89 95 76 68 59 48 40 34 28 24 21 20 20 22 24 26 31 36 36 30 24 27
70 78 56 55 52 54 66 100 99 99 99 99 99 98 84 83 89 91 94 98 93 84 98 97 98 93 98 98 98 87 92 92 71 68 70 58 48 40 31 24 18 17 18 17 18 19 22 25 26 27 23 18 20 24
90 95 91 92 66 77 100 99 99 98 98 98 97 93 86 80 92 97 94 88 91 97 89 98 90 98 96 94 94 88 70 58 54 55 52 47 37 24 16 15 14 15 15 15 18 21 21 21 21 18 19 20 26 26
98 100 97 96 99 97 97 97 98 97 98 99 100 99 98 98 92 89 92 98 93 90 91 96 98 98 94 72 74 67 59 59 56 46 32 22 17 16 16 17 20 21 22 24 24 24 23 23 27 29 29 31 37 31
100 99 100 99 100 94 96 97 97 95 97 98 100 100 100 100 100 100 100 99 99 99 98 99 92 74 64 48 35 26 23 27 23 21 16 15 20 26 27 30 26 23 25 26 25 24 29 36 34 32 34 41 53 48
98 99 98 100 97 96 96 97 97 97 97 96 98 95 97 98 98 98 98 98 98 96 93 63 45 33 34 15 11 12 12 14 16 18 19 20 19 25 22 22 24 27 28 27 28 35 44 46 41 52 60 62 66 69
98 98 97 96 96 96 96 96 96 96 96 97 96 97 97 97 97 97 97 96 83 53 40 32 23 20 18 14 11 10 13 17 19 20 21 19 20 19 20 22 24 25 25 26 39 48 48 44 49 59 66 69 71 74
94 96 94 96 95 95 97 97 96 96 96 96 96 96 96 96 97 89 91 72 53 40 32 25 19 15 15 14 14 14 15 17 19 18 16 16 18 21 24 26 26 30 33 36 49 51 50 47 58 64 68 73 75 77
70 93 95 96 95 96 96 96 96 96 96 96 96 95 97 99 92 97 94 74 45 29 23 17 20 22 20 17 12 11 13 16 20 19 18 21 24 24 24 25 27 35 45 53 55 55 56 60 64 69 73 77 82 84
64 93 84 96 96 94 95 95 95 93 95 94 88 96 99 97 99 100 94 62 32 21 19 21 21 18 18 16 14 13 14 20 20 21 23 24 27 32 36 37 40 41 48 53 48 54 58 59 67 73 77 84 89 94
99 100 91 94 93 88 93 95 94 94 94 95 96 96 94 97 95 83 86 33 24 20 18 18 18 19 19 18 17 17 19 21 25 28 30 34 38 46 49 51 51 33 39 52 57 57 63 70 78 83 87 90 94 100
98 98 95 86 80 81 88 86 82 88 93 93 97 98 95 88 88 73 38 29 22 21 23 22 23 27 29 30 30 30 30 31 33 36 38 38 45 54 59 62 53 30 35 45 51 62 73 79 80 83 88 91 97 100
99 90 96 92 87 78 94 95 95 92 95 84 81 96 83 76 71 35 26 26 25 25 28 34 36 38 37 34 33 33 28 27 31 36 37 31 30 32 35 37 40 39 42 46 56 72 79 84 86 89 93 99 98 97
96 91 80 100 94 86 82 86 87 66 64 68 84 88 83 46 33 30 31 34 36 38 38 36 35 36 34 29 24 18 18 26 36 36 35 36 35 35 39 40 42 45 48 50 57 72 81 89 98 99 96 97 97 98
95 86 92 94 95 94 72 63 59 55 56 53 50 51 45 40 40 42 45 46 47 44 39 34 25 24 19 21 18 18 22 30 34 37 39 38 39 40 41 43 45 49 51 58 65 68 79 91 92 90 96 94 97 95
100 100 91 88 94 86 78 75 70 66 63 59 57 58 54 54 49 40 37 26 20 18 20 15 16 19 23 24 25 27 30 32 36 40 40 40 40 40 43 47 53 65 75 72 76 84 94 96 94 94 95 93 96 97
98 99 96 100 93 82 76 75 77 77 79 75 72 71 68 68 65 47 24 20 16 19 19 23 23 21 24 29 32 35 37 40 42 43 43 47 53 52 57 67 78 90 98 97 97 97 96 97 97 97 95 94 97 100
97 96 96 94 92 84 76 75 78 77 78 78 67 64 65 63 61 34 23 17 19 21 24 26 27 28 29 32 36 39 41 44 45 48 48 54 58 61 73 94 100 97 96 98 98 97 96 97 99 95 97 100 100 100